[[{"header":{"parameterUnit":"m.s-1","parameterCategory":1,"la1":30.6,"la2":28.766,"lo1":-90.7593,"lo2":-88.6598,"dy":0.0162,"dx":0.0183,"nx":116,"ny":114,"refTime":"2023-04-13T12:00:00:Z","depth":0,"parameterNumber":2,"parameterNumberName":"U-component_of_WINDS"},"data":[0.0,0.0,0.0,0.0,0.0,0.0,0.0,0.0,0.0,0.0,0.0,0.0,0.0,0.0,0.0,0.0,0.0,0.0,0.0,0.0,0.0,0.0,0.0,0.0,0.0,0.0,0.0,0.0,0.0,0.0,0.0,0.0,0.0,0.0,0.0,0.0,0.0,0.0,0.0,0.0,0.0,0.0,0.0,0.0,0.0,0.0,0.0,0.0,0.0,0.0,0.0,0.0,0.0,0.0,0.0,0.0,0.0,0.0,0.0,0.0,0.0,0.0,0.0,0.0,0.0,0.0,0.0,0.0,0.0,0.0,0.0,0.0,0.0,0.0,0.0,0.0,0.0,0.0,0.0,0.0,0.0,0.0,0.0,0.0,0.0,0.0,0.0,0.0,0.0,0.0,0.0,0.0,0.0,0.0,0.0,0.0,0.0,0.0,0.0,0.0,0.0,0.0,0.0,0.0,0.0,0.0,0.0,0.0,0.0,0.0,0.0,0.0,0.0,0.0,0.0,0.0,0.0,0.0,0.0,0.0,0.0,0.0,0.0,0.0,0.0,0.0,0.0,0.0,0.0,0.0,0.0,0.0,0.0,0.0,0.0,0.0,0.0,0.0,0.0,0.0,0.0,0.0,0.0,0.0,0.0,0.0,0.0,0.0,0.0,0.0,0.0,0.0,0.0,0.0,0.0,0.0,0.0,0.0,0.0,0.0,0.0,0.0,0.0,0.0,0.0,0.0,0.0,0.0,0.0,0.0,0.0,0.0,0.0,0.0,0.0,0.0,0.0,0.0,0.0,0.0,0.0,0.0,0.0,0.0,0.0,0.0,0.0,0.0,0.0,0.0,0.0,0.0,0.0,0.0,0.0,0.0,0.0,0.0,0.0,0.0,0.0,0.0,0.0,0.0,0.0,0.0,0.0,0.0,0.0,0.0,0.0,0.0,0.0,0.0,0.0,0.0,0.0,0.0,0.0,0.0,0.0,0.0,0.0,0.0,0.0,0.0,0.0,0.0,0.0,0.0,0.0,0.0,0.0,0.0,0.0,0.0,0.0,0.0,0.0,0.0,0.0,0.0,0.0,0.0,0.0,0.0,0.0,0.0,0.0,0.0,0.0,0.0,0.0,0.0,0.0,0.0,0.0,0.0,0.0,0.0,0.0,0.0,0.0,0.0,0.0,0.0,0.0,0.0,0.0,0.0,0.0,0.0,0.0,0.0,0.0,0.0,0.0,0.0,0.0,0.0,0.0,0.0,0.0,0.0,0.0,0.0,0.0,0.0,0.0,0.0,0.0,0.0,0.0,0.0,0.0,0.0,0.0,0.0,0.0,0.0,0.0,0.0,0.0,0.0,0.0,0.0,0.0,0.0,0.0,0.0,0.0,0.0,0.0,0.0,0.0,0.0,0.0,0.0,0.0,0.0,0.0,0.0,0.0,0.0,0.0,0.0,0.0,0.0,0.0,0.0,0.0,0.0,0.0,0.0,0.0,0.0,0.0,0.0,0.0,0.0,0.0,0.0,0.0,0.0,0.0,0.0,0.0,0.0,0.0,0.0,0.0,0.0,0.0,0.0,0.0,0.0,0.0,0.0,0.0,0.0,0.0,0.0,0.0,0.0,0.0,0.0,0.0,0.0,0.0,0.0,0.0,0.0,0.0,0.0,0.0,0.0,0.0,0.0,0.0,0.0,0.0,0.0,0.0,0.0,0.0,0.0,0.0,0.0,0.0,0.0,0.0,0.0,0.0,0.0,0.0,0.0,0.0,0.0,0.0,0.0,0.0,0.0,0.0,0.0,0.0,0.0,0.0,0.0,0.0,0.0,0.0,0.0,0.0,0.0,0.0,0.0,0.0,0.0,0.0,0.0,0.0,0.0,0.0,0.0,0.0,0.0,0.0,0.0,0.0,0.0,0.0,0.0,0.0,0.0,0.0,0.0,0.0,0.0,0.0,0.0,0.0,0.0,0.0,0.0,0.0,0.0,0.0,0.0,0.0,0.0,0.0,0.0,0.0,0.0,0.0,0.0,0.0,0.0,0.0,0.0,0.0,0.0,0.0,0.0,0.0,0.0,0.0,0.0,0.0,0.0,0.0,0.0,0.0,0.0,0.0,0.0,0.0,0.0,0.0,0.0,0.0,0.0,0.0,0.0,0.0,0.0,0.0,0.0,0.0,0.0,0.0,0.0,0.0,0.0,0.0,0.0,0.0,0.0,0.0,0.0,0.0,0.0,0.0,0.0,0.0,0.0,0.0,0.0,0.0,0.0,0.0,0.0,0.0,0.0,0.0,0.0,0.0,0.0,0.0,0.0,0.0,0.0,0.0,0.0,0.0,0.0,0.0,0.0,0.0,0.0,0.0,0.0,0.0,0.0,0.0,0.0,0.0,0.0,0.0,0.0,0.0,0.0,0.0,0.0,0.0,0.0,0.0,0.0,0.0,0.0,0.0,0.0,0.0,0.0,0.0,0.0,0.0,0.0,0.0,0.0,0.0,0.0,0.0,0.0,0.0,0.0,0.0,0.0,0.0,0.0,0.0,0.0,0.0,0.0,0.0,0.0,0.0,0.0,0.0,0.0,0.0,0.0,0.0,0.0,0.0,0.0,0.0,0.0,0.0,0.0,0.0,0.0,0.0,0.0,0.0,0.0,0.0,0.0,0.0,0.0,0.0,0.0,0.0,0.0,0.0,0.0,0.0,0.0,0.0,0.0,0.0,0.0,0.0,0.0,0.0,0.0,0.0,0.0,0.0,0.0,0.0,0.0,0.0,0.0,0.0,0.0,0.0,0.0,0.0,0.0,0.0,0.0,0.0,0.0,0.0,0.0,0.0,0.0,0.0,0.0,0.0,0.0,0.0,0.0,0.0,0.0,0.0,0.0,0.0,0.0,0.0,0.0,0.0,0.0,0.0,0.0,0.0,0.0,0.0,0.0,0.0,0.0,0.0,0.0,0.0,0.0,0.0,0.0,0.0,0.0,0.0,0.0,0.0,0.0,0.0,0.0,0.0,0.0,0.0,0.0,0.0,0.0,0.0,0.0,0.0,0.0,0.0,0.0,0.0,0.0,0.0,0.0,0.0,0.0,0.0,0.0,0.0,0.0,0.0,0.0,0.0,0.0,0.0,0.0,0.0,0.0,0.0,0.0,0.0,0.0,0.0,0.0,0.0,0.0,0.0,0.0,0.0,0.0,0.0,0.0,0.0,0.0,0.0,0.0,0.0,0.0,0.0,0.0,0.0,0.0,0.0,0.0,0.0,0.0,0.0,0.0,0.0,0.0,0.0,0.0,0.0,0.0,0.0,0.0,0.0,0.0,0.0,0.0,0.0,0.0,0.0,0.0,0.0,0.0,0.0,0.0,0.0,0.0,0.0,0.0,0.0,0.0,0.0,0.0,0.0,0.0,0.0,0.0,0.0,0.0,0.0,0.0,0.0,0.0,0.0,0.0,0.0,0.0,0.0,0.0,0.0,0.0,0.0,0.0,0.0,0.0,0.0,0.0,0.0,0.0,0.0,0.0,0.0,0.0,0.0,0.0,0.0,0.0,0.0,0.0,0.0,0.0,0.0,0.0,0.0,0.0,0.0,0.0,0.0,0.0,0.0,0.0,0.0,0.0,0.0,0.0,0.0,0.0,0.0,0.0,0.0,0.0,0.0,0.0,0.0,0.0,0.0,0.0,0.0,0.0,0.0,0.0,0.0,0.0,0.0,0.0,0.0,0.0,0.0,0.0,0.0,0.0,0.0,0.0,0.0,0.0,0.0,0.0,0.0,0.0,0.0,0.0,0.0,0.0,0.0,0.0,0.0,0.0,0.0,0.0,0.0,0.0,0.0,0.0,0.0,0.0,0.0,0.0,0.0,0.0,0.0,0.0,0.0,0.0,0.0,0.0,0.0,0.0,0.0,0.0,0.0,0.0,0.0,0.0,0.0,0.0,0.0,0.0,0.0,0.0,0.0,0.0,0.0,0.0,0.0,0.0,0.0,0.0,0.0,0.0,0.0,0.0,0.0,0.0,0.0,0.0,0.0,0.0,0.0,0.0,0.0,0.0,0.0,0.0,0.0,0.0,0.0,0.0,0.0,0.0,0.0,0.0,0.0,0.0,0.0,0.0,0.0,0.0,0.0,0.0,0.0,0.0,0.0,0.0,0.0,0.0,0.0,0.0,0.0,0.0,0.0,0.0,0.0,0.0,0.0,0.0,0.0,0.0,0.0,0.0,0.0,0.0,0.0,0.0,0.0,0.0,0.0,0.0,0.0,0.0,0.0,0.0,0.0,0.0,0.0,0.0,0.0,0.0,0.0,0.0,0.0,0.0,0.0,0.0,0.0,0.0,0.0,0.0,0.0,0.0,0.0,0.0,0.0,0.0,0.0,0.0,0.0,0.0,0.0,0.0,0.0,0.0,0.0,0.0,0.0,0.0,0.0,0.0,0.0,0.0,0.0,0.0,0.0,0.0,0.0,0.0,0.0,0.0,0.0,0.0,0.0,0.0,0.0,0.0,0.0,0.0,0.0,0.0,0.0,0.0,0.0,0.0,0.0,0.0,0.0,0.0,0.0,0.0,0.0,0.0,0.0,0.0,0.0,0.0,0.0,0.0,0.0,0.0,0.0,0.0,0.0,0.0,0.0,0.0,0.0,0.0,0.0,0.0,0.0,0.0,0.0,0.0,0.0,0.0,0.0,0.0,0.0,0.0,0.0,0.0,0.0,0.0,0.0,0.0,0.0,0.0,0.0,0.0,0.0,0.0,0.0,0.0,0.0,0.0,0.0,0.0,0.0,0.0,0.0,0.0,0.0,0.0,0.0,0.0,0.0,0.0,0.0,0.0,0.0,0.0,0.0,0.0,0.0,0.0,0.0,0.0,0.0,0.0,0.0,0.0,0.0,0.0,0.0,0.0,0.0,0.0,0.0,0.0,0.0,0.0,0.0,0.0,0.0,0.0,0.0,0.0,0.0,0.0,0.0,0.0,0.0,0.0,0.0,0.0,0.0,0.0,0.0,0.0,0.0,0.0,0.0,0.0,0.0,0.0,0.0,0.0,0.0,0.0,0.0,0.0,0.0,0.0,0.0,0.0,0.0,0.0,0.0,0.0,0.0,0.0,0.0,0.0,0.0,0.0,0.0,0.0,0.0,0.0,0.0,0.0,0.0,0.0,0.0,0.0,0.0,0.0,0.0,0.0,0.0,0.0,0.0,0.0,0.0,0.0,0.0,0.0,0.0,0.0,0.0,0.0,0.0,0.0,0.0,0.0,0.0,0.0,0.0,0.0,0.0,0.0,0.0,0.0,0.0,0.0,0.0,0.0,0.0,0.0,0.0,0.0,0.0,0.0,0.0,0.0,0.0,0.0,0.0,0.0,0.0,0.0,0.0,0.0,0.0,0.0,0.0,0.0,0.0,0.0,0.0,0.0,0.0,0.0,0.0,0.0,0.0,0.0,0.0,0.0,0.0,0.0,0.0,0.0,0.0,0.0,0.0,0.0,0.0,0.0,0.0,0.0,0.0,0.0,0.0,0.0,0.0,0.0,0.0,0.0,0.0,0.0,0.0,0.0,0.0,0.0,0.0,0.0,0.0,0.0,0.0,0.0,0.0,0.0,0.0,0.0,0.0,0.0,0.0,0.0,0.0,0.0,0.0,0.0,0.0,0.0,0.0,0.0,0.0,0.0,0.0,0.0,0.0,0.0,0.0,0.0,0.0,0.0,0.0,0.0,0.0,0.0,0.0,0.0,0.0,0.0,0.0,0.0,0.0,0.0,0.0,0.0,0.0,0.0,0.0,0.0,0.0,0.0,0.0,0.0,0.0,0.0,0.0,0.0,0.0,0.0,0.0,0.0,0.0,0.0,0.0,0.0,0.0,0.0,0.0,0.0,0.0,0.0,0.0,0.0,0.0,0.0,0.0,0.0,0.0,0.0,0.0,0.0,0.0,0.0,0.0,0.0,0.0,0.0,0.0,0.0,0.0,0.0,0.0,0.0,0.0,0.0,0.0,0.0,0.0,0.0,0.0,0.0,0.0,0.0,0.0,0.0,0.0,0.0,0.0,0.0,0.0,0.0,0.0,0.0,0.0,0.0,0.0,0.0,0.0,0.0,0.0,0.0,0.0,0.0,0.0,0.0,1.7218,1.5634,0.0,0.0,0.0,0.0,0.0,0.0,0.0,0.0,0.0,0.0,0.0,0.0,0.0,0.0,0.0,0.0,0.0,0.0,0.0,0.0,0.0,0.0,0.0,0.0,0.0,0.0,0.0,0.0,0.0,0.0,0.0,0.0,0.0,0.0,0.0,0.0,0.0,2.8059,2.7734,2.7544,2.7372,2.6788,2.616,2.5427,0.0,0.0,0.0,0.0,0.0,0.0,0.0,0.0,0.0,0.0,0.0,0.0,0.0,0.0,0.0,0.0,0.0,0.0,0.0,0.0,0.0,0.0,0.0,0.0,0.0,0.0,0.0,0.0,0.0,0.0,0.0,0.0,0.0,0.0,0.0,0.0,0.0,0.0,0.0,0.0,0.0,0.0,0.0,0.0,0.0,0.0,0.0,0.0,0.0,0.0,0.0,0.0,0.0,0.0,0.0,0.0,0.0,0.0,0.0,0.0,0.0,0.0,0.0,0.0,0.0,0.0,0.0,0.0,0.0,0.0,1.7851,1.6358,0.0,0.0,0.0,0.0,0.0,0.0,0.0,0.0,0.0,0.0,0.0,0.0,0.0,0.0,0.0,0.0,0.0,0.0,0.0,0.0,0.0,0.0,0.0,3.3417,3.411,3.4888,3.4188,3.3652,3.3418,0.0,0.0,0.0,0.0,0.0,3.0459,2.9237,2.8572,2.8478,2.8278,2.8395,2.8806,2.6903,2.5926,2.5635,2.528,0.0,0.0,0.0,0.0,0.0,0.0,0.0,0.0,0.0,0.0,0.0,0.0,0.0,0.0,0.0,0.0,0.0,0.0,0.0,0.0,0.0,0.0,0.0,0.0,0.0,0.0,0.0,0.0,0.0,0.0,0.0,0.0,0.0,0.0,0.0,0.0,0.0,0.0,0.0,0.0,0.0,0.0,0.0,0.0,0.0,0.0,0.0,0.0,0.0,0.0,0.0,0.0,0.0,0.0,0.0,0.0,0.0,0.0,0.0,0.0,0.0,0.0,0.0,1.3138,1.4051,1.5176,1.6646,1.7751,1.8114,1.7931,1.6655,1.4822,1.2725,0.0,0.0,0.0,0.0,0.0,0.0,0.0,0.0,0.0,0.0,0.0,0.0,0.0,0.0,0.0,0.0,0.0,0.0,0.0,3.1367,3.2839,3.2914,3.3471,3.4954,3.4813,3.4521,3.424,0.0,0.0,0.0,0.0,3.2053,3.1739,3.0806,3.0226,3.0001,2.8968,2.8479,2.8474,2.7759,2.7326,2.7097,2.5961,2.5439,2.5325,0.0,0.0,0.0,0.0,0.0,0.0,0.0,0.0,0.0,0.0,0.0,0.0,0.0,0.0,0.0,0.0,0.0,0.0,0.0,0.0,0.0,0.0,0.0,0.0,0.0,0.0,0.0,0.0,0.0,0.0,0.0,0.0,0.0,0.0,0.0,0.0,0.0,0.0,0.0,0.0,0.0,3.3789,3.2168,0.0,0.0,0.0,0.0,0.0,0.0,0.0,0.0,0.0,0.0,0.0,0.0,0.0,1.7349,1.6754,1.6606,1.5763,1.4005,1.4868,1.5573,1.6043,1.7153,1.7878,1.8254,1.7965,0.0,1.5072,1.3295,0.0,0.0,0.0,0.0,0.0,0.0,0.0,0.0,0.0,0.0,0.0,0.0,0.0,0.0,0.0,0.0,0.0,0.0,0.0,0.0,0.0,3.4386,3.5178,3.5806,3.6122,3.6151,3.5935,3.5132,0.0,0.0,3.2714,3.2007,3.1622,3.083,3.0386,3.0273,3.0381,3.0388,3.0137,2.9457,2.9017,2.8748,2.7358,2.6313,2.5503,2.4072,0.0,0.0,0.0,0.0,0.0,0.0,0.0,0.0,0.0,0.0,0.0,0.0,0.0,0.0,0.0,0.0,0.0,0.0,0.0,0.0,0.0,0.0,0.0,0.0,0.0,0.0,0.0,0.0,0.0,0.0,0.0,0.0,0.0,0.0,0.0,0.0,0.0,0.0,0.0,3.5251,3.4592,3.3553,3.2078,3.0396,0.0,0.0,0.0,0.0,0.0,0.0,0.0,0.0,0.0,1.6285,1.6936,1.7367,1.7566,1.7621,1.7208,1.6509,1.6706,1.6994,1.7231,1.7919,1.8248,1.8222,1.7826,1.6703,1.5033,1.3372,1.1219,0.8726,0.0,0.0,0.0,0.0,-0.5279,-0.8661,0.0,0.0,0.0,0.0,0.0,0.0,0.0,0.0,0.0,0.0,0.0,0.0,3.4353,3.5575,3.6403,3.6761,3.7167,3.7268,3.7047,3.5876,3.4962,3.4515,3.3071,3.2158,3.1846,3.1275,3.1,3.1025,3.179,3.1992,3.1721,3.0855,3.0303,3.0033,2.8747,2.7363,2.5901,2.4106,2.2815,2.1825,0.0,0.0,0.0,0.0,0.0,0.0,0.0,0.0,0.0,0.0,0.0,0.0,0.0,0.0,0.0,0.0,0.0,0.0,0.0,0.0,0.0,0.0,0.0,0.0,0.0,0.0,0.0,0.0,0.0,0.0,0.0,0.0,0.0,0.0,0.0,0.0,0.0,3.5479,3.5258,3.4374,3.3375,3.1844,0.0,0.0,0.0,0.0,0.0,0.0,1.7246,1.6121,1.5842,1.6773,1.7181,1.7669,1.8426,1.8459,1.8331,1.8389,1.8271,1.8259,1.8338,1.8704,1.8622,1.8084,1.8051,1.6841,1.5042,1.348,1.1367,0.8973,0.6941,0.5049,0.2669,-0.0944,-0.4303,-0.7328,0.0,0.0,0.0,0.0,0.0,0.0,0.0,0.0,0.0,0.0,0.0,3.275,3.5084,3.5354,3.5954,3.7433,3.7371,3.7197,3.6932,3.5784,3.517,3.5247,3.3595,3.2904,3.3373,3.309,3.3025,3.3253,3.2882,3.2558,3.2303,3.1392,3.0927,3.0728,2.9738,2.8504,2.7103,2.5368,2.4119,2.3138,2.0229,0.0,0.0,0.0,0.0,0.0,0.0,0.0,0.0,0.0,0.0,0.0,0.0,0.0,0.0,0.0,0.0,0.0,0.0,0.0,0.0,0.0,0.0,0.0,0.0,0.0,0.0,0.0,0.0,0.0,0.0,0.0,0.0,0.0,0.0,0.0,0.0,0.0,0.0,3.4986,3.3796,0.0,0.0,0.0,0.0,2.4152,2.1726,1.9938,1.8813,1.7855,1.7833,1.867,1.8913,1.9238,1.9297,1.949,1.921,1.8631,1.8988,1.9248,1.9443,1.9817,1.9371,1.8365,1.8522,1.7329,1.5161,1.4201,1.2069,0.9534,0.8425,0.6144,0.3283,-0.0,-0.2821,-0.5703,0.0,0.0,0.0,0.0,0.0,0.0,0.0,0.0,3.169,3.2529,3.355,3.4687,3.5974,3.702,3.7794,3.8229,3.9082,3.9489,3.9171,3.8034,3.738,3.747,3.5528,3.4278,3.3874,3.394,3.3743,3.3213,3.3865,3.3831,3.3162,3.2909,3.2641,3.213,3.1168,3.0243,2.9262,2.7041,2.5483,2.4279,2.1776,1.9599,0.0,0.0,0.0,0.0,0.0,0.0,0.0,0.0,0.0,0.0,0.0,0.0,0.0,0.0,0.0,0.0,0.0,0.0,0.0,0.0,0.0,0.0,0.0,0.0,0.0,0.0,0.0,0.0,0.0,0.0,0.0,0.0,0.0,0.0,0.0,0.0,0.0,3.5627,3.4951,0.0,3.1884,3.0035,2.7905,2.5879,2.404,2.2576,2.1806,2.0792,2.0327,2.0486,2.041,2.0664,2.1081,2.0889,2.0724,2.0593,2.0969,2.1035,2.0385,2.106,2.0807,1.9846,1.9468,1.8136,1.629,1.5431,1.3327,1.0721,0.8525,0.6714,0.4983,0.1528,-0.1728,-0.4845,0.0,0.0,0.0,0.0,0.0,0.0,0.0,3.1439,3.2338,3.3766,3.4827,3.5944,3.7233,3.8249,3.8991,3.9353,4.0239,4.0734,4.0592,3.9228,3.8425,3.8496,3.652,3.5291,3.5037,3.4955,3.4704,3.4259,3.4794,3.4705,3.3969,3.372,3.3329,3.2794,3.1973,3.153,3.1132,2.9183,2.7372,2.5683,2.3466,2.1406,1.946,0.0,0.0,0.0,0.0,0.0,0.0,0.0,0.0,0.0,0.0,0.0,0.0,0.0,0.0,0.0,0.0,0.0,0.0,0.0,0.0,0.0,0.0,0.0,0.0,0.0,0.0,0.0,0.0,0.0,0.0,0.0,0.0,0.0,0.0,3.6444,3.6143,3.5722,3.5257,3.4228,3.2498,3.1093,2.9462,2.7696,2.6196,2.4996,2.4305,2.3315,2.2739,2.2813,2.2278,2.2266,2.2617,2.2069,2.1889,2.21,2.2061,2.1906,2.1657,2.1848,2.1514,2.0692,2.0079,1.8677,1.6969,1.5949,1.4166,1.1501,0.9072,0.7356,0.575,0.3062,-0.0614,-0.4338,0.0,0.0,0.0,0.0,0.0,0.0,3.169,3.1884,3.2861,3.5284,3.5547,3.6416,3.8843,3.8918,3.9359,4.075,4.0701,4.0717,4.0965,3.9246,3.8151,3.8128,3.6505,3.6013,3.6814,3.6124,3.6043,3.6452,3.5645,3.5079,3.4685,3.3679,3.3146,3.2865,3.237,3.2276,3.2465,3.1727,2.9976,2.7507,2.5188,2.3583,2.2085,0.0,0.0,0.0,0.0,0.0,0.0,0.0,0.0,0.0,0.0,0.0,0.0,0.0,0.0,0.0,0.0,0.0,0.0,0.0,0.0,0.0,0.0,0.0,0.0,0.0,0.0,0.0,0.0,0.0,0.0,0.0,0.0,0.0,3.6828,3.6202,3.5621,3.5305,3.4734,3.3923,3.2601,3.1666,3.0601,2.9459,2.8067,2.7062,2.6122,2.5461,2.4971,2.5085,2.4337,2.3867,2.3672,2.3033,2.2688,2.2899,2.2184,2.2229,2.2853,2.2366,2.1888,2.1058,2.0554,1.9384,1.742,1.6145,1.4059,1.1758,1.0616,0.8309,0.5545,0.4053,0.0429,-0.4112,0.0,0.0,0.0,0.0,0.0,0.0,3.1748,3.288,3.4156,3.5427,3.6548,3.7632,3.8764,3.9806,4.0486,4.06,4.1473,4.1693,4.0836,4.042,3.9828,3.9032,3.8753,3.8327,3.7684,3.7301,3.6835,3.6294,3.596,3.5673,3.5531,3.4969,3.4592,3.4544,3.3746,3.3575,3.357,3.3102,3.2298,3.1033,2.8214,2.5818,2.3699,0.0,0.0,0.0,0.0,0.0,0.0,0.0,0.0,0.0,0.0,0.0,0.0,0.0,0.0,0.0,0.0,0.0,0.0,0.0,0.0,0.0,0.0,0.0,0.0,0.0,0.0,0.0,0.0,0.0,0.0,0.0,3.5355,3.5623,3.6436,3.6372,3.6121,3.5491,3.5145,3.4472,3.3027,3.2233,3.1235,2.9495,2.8958,2.8273,2.7296,2.6999,2.6693,2.6403,2.6212,2.5811,2.5185,2.4948,2.4596,2.437,2.3867,2.3607,2.3436,2.339,2.2748,2.1767,2.1119,1.9648,1.7619,1.6318,1.437,1.1961,1.0508,0.84,0.5751,0.3317,-0.1332,-0.6719,0.0,0.0,0.0,0.0,0.0,0.0,3.228,3.3499,3.493,3.6458,3.7368,3.829,3.928,4.035,4.1017,4.1054,4.1653,4.1724,4.1034,4.0313,3.9678,3.9132,3.8924,3.8631,3.8341,3.7631,3.7181,3.7068,3.6359,3.6083,3.6205,3.5646,3.5301,3.5178,3.467,3.4574,3.4628,3.4193,3.3853,3.3321,3.1526,2.9268,2.6835,2.478,2.3227,2.2056,2.1269,2.1838,2.329,2.5042,0.0,0.0,0.0,0.0,0.0,0.0,0.0,0.0,0.0,0.0,0.0,0.0,0.0,0.0,0.0,0.0,0.0,0.0,0.0,0.0,0.0,0.0,0.0,0.0,3.5067,3.5533,3.5572,3.5697,3.5775,3.5508,3.4895,3.4232,3.3153,3.2436,3.1389,3.0212,2.9781,2.933,2.8922,2.852,2.8266,2.7983,2.7747,2.7156,2.6594,2.6058,2.5638,2.5406,2.4872,2.4346,2.4363,2.3688,2.3045,2.2034,2.1151,1.9612,1.7963,1.6473,1.423,1.1763,0.0,0.0,0.0,0.0,-0.3227,-0.7923,0.0,0.0,0.0,0.0,0.0,0.0,3.3004,3.3935,3.5405,3.7771,3.7969,3.8498,4.0005,4.0615,4.1155,4.1707,4.1526,4.1379,4.1384,3.9573,3.8662,3.9075,3.8216,3.8104,3.8867,3.7631,3.7399,3.8256,3.6764,3.6237,3.6651,3.5989,3.5527,3.5352,3.5155,3.5385,3.5695,3.5083,3.4841,3.4866,3.4616,3.3001,3.0387,2.7819,2.6269,2.53,2.4056,2.3695,2.41,2.5663,0.0,0.0,0.0,0.0,0.0,0.0,0.0,0.0,0.0,0.0,0.0,0.0,0.0,0.0,0.0,0.0,0.0,0.0,0.0,0.0,0.0,0.0,0.0,0.0,3.5114,3.5297,3.4669,3.4751,3.5049,3.5149,3.4307,3.362,3.293,3.2209,3.1593,3.1115,3.0496,3.0147,3.028,2.9831,0.0,0.0,0.0,2.8395,2.7651,2.6815,2.6356,2.6332,2.507,2.4555,2.5024,2.3447,2.2764,2.2146,2.0577,1.9244,1.8294,1.634,1.3847,1.1079,1.0125,0.8407,0.5848,-0.0471,-0.5016,-0.8233,0.0,0.0,0.0,0.0,0.0,0.0,3.3063,3.4448,3.6079,3.7781,3.7939,3.8465,3.9888,4.0624,4.1116,4.1438,4.1756,4.1723,4.1253,3.9905,3.9442,4.0174,3.9944,3.9713,3.9451,3.8843,3.8388,3.809,3.685,3.6444,3.6676,3.5915,3.5842,3.6098,3.5254,3.5632,3.6836,3.5646,3.5664,3.658,3.6358,3.4163,3.1067,3.0738,2.9699,2.8345,2.7969,2.8598,2.9794,3.0675,3.1662,3.2814,3.4666,3.4655,0.0,0.0,0.0,0.0,0.0,0.0,0.0,0.0,0.0,0.0,0.0,0.0,0.0,0.0,0.0,0.0,0.0,0.0,0.0,3.3687,3.4146,3.442,3.4407,3.4674,3.4555,3.4126,3.4102,3.3671,3.2592,3.2652,3.2055,3.078,3.0878,3.0913,3.0246,3.0343,3.0271,2.9991,3.0186,2.9556,2.7894,2.8419,2.7862,2.6483,2.5927,0.0,2.4147,2.3482,2.2512,2.1254,2.0292,1.928,1.7978,1.5896,1.2828,0.9316,0.7714,0.5029,0.1677,-0.1449,-0.5134,-0.8427,0.0,0.0,0.0,0.0,0.0,0.0,3.3112,3.4574,3.6256,3.7781,3.7954,3.8482,3.985,4.0564,4.0929,4.0815,4.0881,4.0688,4.0158,3.9559,3.9564,4.0358,3.9968,3.9656,3.9534,3.8802,3.8214,3.7893,3.6676,3.6389,3.6855,3.5989,3.5885,3.6383,3.5836,3.5985,3.6723,3.6161,3.6568,3.7535,3.7838,3.6879,3.5218,3.4604,3.3267,3.18,3.2679,3.2876,3.2958,3.4042,3.476,3.5419,3.6353,3.6356,3.5995,0.0,0.0,0.0,0.0,0.0,0.0,0.0,0.0,0.0,0.0,0.0,0.0,0.0,0.0,3.2876,3.2308,0.0,3.3683,3.3446,3.3885,3.4032,3.3705,3.3856,3.4082,3.3715,3.3784,3.344,3.2803,3.2586,3.2158,3.1153,3.1483,3.1328,3.0803,3.0958,3.0928,3.0448,3.0967,3.0106,2.8268,2.8824,2.8285,2.6573,2.614,2.5357,2.421,2.3293,2.2073,2.0832,1.9806,1.8516,1.6943,1.3803,1.0743,0.7729,0.6687,0.3938,0.0491,-0.3228,-0.6027,-0.8627,0.0,0.0,0.0,0.0,0.0,0.0,3.3112,3.4584,3.6267,3.7808,3.8022,3.8514,3.9871,4.0268,4.0265,3.9845,3.9698,3.9534,3.9164,3.9213,3.9564,4.0337,3.9573,3.9281,3.9616,3.8542,3.797,3.785,3.6661,3.6279,3.6775,3.5912,3.5696,3.623,3.6009,3.623,3.6621,3.675,3.7425,3.8437,3.9264,3.976,3.9929,3.8888,3.7118,3.5459,3.6815,3.6476,3.5492,3.652,3.7093,3.7386,3.7597,3.7786,3.7898,3.7349,3.7299,0.0,0.0,0.0,0.0,0.0,0.0,0.0,0.0,3.31,3.2466,3.1761,3.2418,3.2945,3.2543,3.3196,3.3595,3.3289,3.373,3.3736,3.2763,3.3227,3.3634,3.3451,3.3214,3.2896,3.2763,3.231,3.2098,3.1542,3.1803,3.1667,3.1277,3.1704,3.1509,3.0813,3.1194,3.0552,2.8622,2.8965,2.8143,2.6539,2.6273,2.5485,2.388,2.3053,2.1837,2.0298,1.8758,1.7182,1.5321,1.167,0.8853,0.7083,0.5831,0.328,-0.0251,-0.4837,-0.7713,-0.9326,0.0,0.0,0.0,0.0,0.0,0.0,0.0,0.0,3.6245,3.7808,3.8022,3.853,3.9948,3.9326,3.8665,3.8437,3.9079,3.9575,3.9617,3.971,4.0107,4.0787,3.993,3.9689,4.0324,3.923,3.8481,3.8088,3.7125,3.6511,3.6129,3.5596,3.5385,3.5475,3.5002,3.5787,3.7358,3.7133,3.822,4.0106,4.0707,4.1542,4.2587,4.3401,4.1843,3.9238,3.8894,3.8841,3.8822,3.8311,3.8419,3.8887,3.9743,3.944,3.8947,3.9291,3.8837,3.7917,3.7139,3.6382,3.5733,3.5817,3.5347,3.491,0.0,3.396,3.3084,3.291,3.2411,3.2074,3.2703,3.2601,3.2492,3.2815,3.3233,3.3293,3.2592,3.2999,3.3016,3.2287,3.239,3.2246,3.1907,3.2185,3.2115,3.098,3.1972,3.2169,3.1158,3.1511,3.1449,3.0813,3.1296,3.0428,2.8622,2.942,2.8648,2.6019,2.6388,2.529,2.2807,2.2703,2.1683,1.9528,1.7489,1.5223,1.2716,1.1084,0.9481,0.7649,0.4364,0.1281,-0.1782,-0.642,-0.9088,-1.1045,0.0,0.0,0.0,0.0,0.0,0.0,0.0,0.0,3.6102,3.7205,3.728,3.7801,3.926,3.9029,3.8619,3.8165,3.8968,3.9273,3.8826,3.9377,3.9761,3.9826,3.8962,3.8552,3.8705,3.7689,3.6893,3.6199,3.5241,3.4767,3.469,3.3766,3.376,3.4312,3.3903,3.4525,3.6032,3.6871,3.8556,4.067,4.1937,4.3693,4.5685,4.5852,4.5598,4.4849,4.3343,4.2621,0.0,4.1215,4.1083,4.1235,4.0631,4.0145,3.9783,3.9752,3.9091,3.8313,3.7405,3.7077,3.6831,3.5994,3.5167,3.4672,3.4452,3.3294,3.2421,3.2271,3.1912,3.17,3.204,3.1888,3.1763,3.1642,3.1915,3.1855,3.1063,3.1532,3.1634,3.0857,3.0857,3.1028,3.154,3.162,3.1514,3.1051,3.1383,3.1206,3.0582,3.0924,3.0825,3.0384,3.1103,3.0482,2.8622,2.8752,2.7979,2.6036,2.5708,2.4705,2.2726,2.2274,2.0526,1.7714,1.6156,1.4072,1.1712,0.9863,0.8525,0.694,0.2835,-0.0259,-0.2859,-0.7041,-0.9437,-1.1084,0.0,0.0,0.0,0.0,0.0,0.0,0.0,0.0,0.0,0.0,3.6793,3.7041,3.7966,3.8439,3.828,3.7156,3.8146,3.8489,3.7763,3.8522,3.8985,3.8905,3.8028,3.7414,3.7276,3.6299,3.5463,3.4854,3.3756,3.3274,3.3357,3.2227,3.2092,3.2628,3.2613,3.3213,3.4491,3.6471,3.8756,4.1191,4.3122,4.5525,4.7871,4.7584,4.8086,4.8653,4.6459,4.52,4.4354,4.3112,4.2647,4.2425,4.123,4.0516,4.0145,3.975,3.9037,3.7976,3.7224,3.711,3.6945,3.5624,3.5091,3.464,3.3812,3.2884,3.2293,3.2071,3.1579,3.1272,3.1446,3.1339,3.1021,3.056,3.0725,3.0772,3.0082,3.0225,3.0395,2.9785,2.9457,2.957,3.0366,3.0776,3.0872,3.0551,3.0744,3.0498,2.9956,3.0139,3.0249,2.9944,3.0377,3.0164,2.8612,2.8168,2.7399,2.6036,2.5102,2.4139,2.2815,2.1318,1.9117,1.6388,1.4758,1.2858,1.0709,0.8867,0.7266,0.5419,0.1549,-0.1558,-0.4452,-0.7352,-0.9748,-1.167,0.0,0.0,0.0,0.0,0.0,0.0,0.0,0.0,0.0,0.0,3.6752,3.6434,3.6033,3.7156,3.698,3.4604,3.6078,3.6928,3.6637,3.7268,3.7913,3.8394,3.7143,3.6619,3.6931,3.5827,3.5022,3.4574,3.3472,3.2675,3.2246,3.1412,3.0738,3.022,3.0966,3.2061,3.354,3.6136,3.8999,4.2012,4.4415,4.6628,4.8453,4.8753,4.9149,4.9223,4.6766,4.5608,4.4938,4.3285,4.2367,4.1871,4.1443,4.0707,3.9925,3.9865,3.837,3.6635,3.623,3.5699,3.5066,3.4575,3.51,3.5296,3.3509,3.3262,3.3318,3.2764,3.1602,3.0913,3.1324,3.09,3.0326,2.9716,3.0069,3.0259,2.9695,2.9937,2.981,2.918,2.8588,2.821,2.7665,2.9487,3.0311,2.9602,3.0165,3.0308,2.9306,2.9382,2.9444,2.991,2.9512,2.9092,2.8612,2.8085,2.7053,2.6036,2.4732,2.374,2.2815,1.9352,1.7203,1.6086,1.3761,1.1584,0.9476,0.7841,0.5711,0.2837,0.0774,-0.2839,-0.6982,-0.8059,-1.0294,-1.3179,0.0,0.0,0.0,0.0,0.0,0.0,0.0,0.0,0.0,0.0,0.0,0.0,0.0,0.0,0.0,0.0,3.5723,3.6012,3.5756,3.6153,3.6478,3.65,3.5589,3.4787,3.4298,3.3256,3.2401,3.1724,3.0771,3.0031,2.9471,2.7952,2.7378,2.7582,2.721,2.8358,3.0726,3.3742,3.7069,4.0701,4.3946,4.6985,4.9578,5.0209,5.0354,5.0162,0.0,4.7834,4.6431,4.4792,4.3832,4.3154,4.1571,4.0455,3.932,3.7962,3.7449,3.7148,3.604,3.566,3.5514,3.5173,3.499,3.4627,3.3583,3.3143,3.2749,3.1888,3.0965,3.0087,2.9487,2.8876,2.8207,2.7218,2.7718,2.7903,2.7521,2.7984,2.8116,2.7451,2.7109,2.6886,2.7048,2.7756,2.8268,2.8148,2.8479,2.8529,2.8414,2.8567,2.8717,2.8604,2.8859,2.8625,2.7695,2.7027,2.6472,2.5852,2.3677,2.1931,2.077,1.8332,1.6345,1.5097,1.345,1.1554,0.9412,0.8349,0.5972,0.2579,-0.0516,-0.3879,-0.7018,-0.859,-1.0789,-1.3362,0.0,0.0,0.0,0.0,0.0,0.0,0.0,0.0,0.0,0.0,0.0,0.0,0.0,0.0,0.0,0.0,0.0,3.495,3.4432,3.4605,3.4809,3.4848,3.3839,3.301,3.255,3.1349,3.0488,2.9858,2.8825,2.7953,2.7212,2.5448,2.4657,2.4696,2.4262,2.5415,2.7958,3.1397,3.5382,3.9733,4.3478,4.68,4.9575,5.0493,5.0526,0.0,4.9969,4.9174,4.7851,4.5756,4.4469,4.3588,4.1874,4.0495,3.8928,3.706,3.6838,3.7076,3.5976,3.5528,3.5287,3.4993,3.4592,3.4094,3.3383,3.2896,3.2418,3.1233,3.0163,2.9259,2.7856,2.746,2.6729,2.5736,2.6233,2.6647,2.6245,2.6731,2.6881,2.65,2.6163,2.5906,2.5973,2.6094,2.6393,2.6845,2.7259,2.7261,2.7144,2.7471,2.7607,2.7923,2.815,2.7944,2.7488,2.6575,2.5626,2.462,2.2969,2.1228,1.922,1.7535,1.6037,1.4205,1.2633,1.0754,0.8598,0.8081,0.5451,0.1547,-0.1547,-0.4397,-0.7012,-0.8826,-1.0719,-1.3217,0.0,0.0,0.0,0.0,0.0,0.0,0.0,0.0,0.0,0.0,0.0,0.0,0.0,0.0,0.0,0.0,0.0,0.0,3.2773,3.2784,3.298,3.3367,3.2054,3.1446,3.1656,3.0199,2.9303,2.9003,2.7545,2.645,2.5633,2.3928,2.2599,2.1765,2.1931,2.3174,2.5322,2.9093,3.3783,3.9023,4.2923,4.6106,4.8638,4.9547,4.9753,4.9582,4.9604,4.9515,4.8895,4.6285,4.4413,4.3073,4.2356,4.0773,3.8778,3.7252,3.6772,3.6516,3.579,3.5162,3.4678,3.4373,3.4298,3.3932,3.2896,3.257,3.205,3.0666,2.9281,2.805,2.6795,2.6487,2.6066,2.4891,2.5553,2.6086,2.6211,2.633,2.6488,2.5905,2.5523,2.5066,2.484,2.4661,2.503,2.5655,2.6315,2.6478,2.6097,2.6139,2.6803,2.8113,2.7247,2.7034,2.7707,2.6725,2.4958,2.2797,2.2634,2.1082,1.8674,1.7241,1.5729,1.366,1.1299,0.9427,0.729,0.703,0.4152,-0.0258,-0.2063,-0.4128,-0.6448,-0.8503,-1.0611,-1.2791,0.0,0.0,0.0,0.0,0.0,0.0,0.0,0.0,0.0,0.0,0.0,0.0,0.0,0.0,0.0,0.0,0.0,0.0,3.1855,3.1421,3.1344,3.1722,3.0687,3.0092,2.9995,2.895,2.8101,2.7429,2.6175,2.5006,2.3875,2.1687,2.0197,1.9254,1.8682,1.966,2.2062,2.6223,3.0786,3.5625,4.0508,4.4249,4.7188,4.9408,4.9953,4.9727,5.0632,5.0194,4.9104,4.7845,4.5824,4.3684,4.2422,4.0899,3.9334,3.793,3.7384,3.6773,3.5625,3.4993,3.4729,3.4059,3.3479,3.297,3.2022,3.1386,3.0792,2.9357,2.793,2.6669,2.5047,2.4415,2.3948,2.3137,2.3466,2.3935,2.4616,2.4797,2.5098,2.5104,2.4864,2.4567,2.4514,2.4176,2.4052,2.4077,2.5312,2.5795,2.5257,2.6056,2.6519,2.6162,2.6824,2.6798,2.6365,2.5588,2.3984,2.1963,2.1436,2.0119,1.8259,1.626,1.4769,1.3248,1.1217,0.9456,0.7951,0.6929,0.3856,-0.0258,-0.2837,-0.4644,-0.6448,-0.8503,-1.036,-1.2243,0.0,0.0,0.0,0.0,0.0,0.0,0.0,0.0,0.0,0.0,0.0,0.0,0.0,0.0,0.0,0.0,0.0,0.0,0.0,3.0371,3.0107,3.028,2.9324,2.8932,2.9149,2.7973,2.716,2.6715,2.5405,2.3908,2.2336,2.018,1.8392,1.7172,1.6385,1.7402,1.9879,2.3874,2.8546,0.0,0.0,4.2389,4.579,4.79,4.9017,4.9455,5.0052,4.974,4.9027,4.8606,4.6785,4.4401,4.2736,4.1529,4.0429,3.8672,3.7762,3.6933,3.535,3.4734,3.4196,3.3009,3.249,3.2057,3.091,3.0111,2.9129,2.7538,2.6036,2.458,2.3096,2.2631,2.2251,2.1663,2.2099,2.2757,2.33,2.3531,2.3831,2.4567,2.4131,2.386,2.4542,2.4062,2.3701,2.363,2.4558,2.4962,2.4565,2.539,2.5599,2.5729,2.6147,2.6009,2.5495,2.4934,2.3691,2.1737,2.1402,2.0086,1.802,1.6331,1.4602,1.2596,1.0838,0.9106,0.7114,0.586,0.3325,0.0257,-0.2835,-0.4902,-0.6188,-0.8251,-1.0098,-1.172,0.0,0.0,0.0,0.0,0.0,0.0,0.0,0.0,0.0,0.0,0.0,0.0,0.0,0.0,0.0,0.0,0.0,0.0,0.0,0.0,2.9064,2.8973,2.7953,2.7656,2.84,2.7055,2.6286,2.6251,2.4551,2.2843,2.0999,1.8724,1.6857,1.5297,1.4774,1.5892,1.8396,2.2009,2.6708,3.2064,3.6373,4.0488,4.4003,0.0,4.7433,4.8864,4.8886,4.8693,4.848,4.8618,4.7239,4.523,4.3438,4.2445,4.162,3.943,3.8159,3.6932,3.5056,3.3975,3.3117,3.1664,3.136,3.081,2.9592,2.8406,2.7341,2.55,2.3832,2.2346,2.1058,2.0868,2.0863,2.065,2.1279,2.1906,2.2434,2.2606,2.3055,2.4049,2.3375,2.3292,2.4279,2.3889,2.3547,2.3576,2.3808,2.3973,2.4236,2.4375,2.4943,2.5882,2.5356,2.5031,2.4903,2.4455,2.3348,2.1957,2.1624,2.0109,1.7849,1.6485,1.4542,1.2057,1.0809,0.8554,0.6053,0.4827,0.3058,0.0766,-0.2573,-0.4386,-0.5419,-0.7223,-0.9317,-1.1186,0.0,0.0,0.0,0.0,0.0,0.0,0.0,0.0,0.0,0.0,3.324,3.3615,0.0,0.0,0.0,0.0,0.0,0.0,0.0,0.0,0.0,2.7342,2.6472,2.6012,2.6113,2.5733,2.5318,2.4863,2.2655,2.0918,1.9429,1.6503,1.4666,1.3879,1.3679,1.488,1.7233,2.0804,2.4838,2.9309,3.4353,3.8252,4.1411,4.43,0.0,0.0,4.8348,4.8185,4.7626,4.7466,4.6805,4.6002,4.5254,4.3575,4.1602,3.9735,3.8045,3.622,3.3868,3.2625,3.1618,3.029,2.9684,2.8895,2.7604,2.6414,2.4992,2.3704,2.1805,2.0241,1.9937,1.9569,1.9614,2.0038,2.0437,2.0925,2.1989,2.2029,2.2367,2.3228,2.2864,2.2872,2.3089,2.2945,2.2774,2.2955,2.3317,2.3689,2.4042,2.4538,2.5351,2.6117,2.4926,2.4235,2.4038,2.3354,2.2424,2.0961,2.0292,1.9115,1.7562,1.5657,1.4002,1.2613,1.0641,0.8692,0.6502,0.5795,0.3554,-0.0,-0.1801,-0.3095,-0.4644,-0.5931,-0.7483,-0.905,0.0,0.0,0.0,0.0,0.0,0.0,0.0,3.293,3.3377,3.2777,3.361,3.3916,3.306,3.2669,3.2231,0.0,0.0,0.0,0.0,0.0,0.0,2.6553,2.5335,2.4803,2.511,2.4242,2.3587,2.3101,0.0,1.8271,1.6314,1.3934,1.2386,1.1778,1.233,1.3976,1.6432,1.9733,2.3464,2.7595,3.2214,3.6009,3.9145,4.1992,0.0,0.0,4.7095,4.6951,4.6299,4.6118,4.5528,4.4709,4.4203,4.2673,4.0669,3.8263,3.6324,3.4516,3.2275,3.0907,2.977,2.8601,2.7891,2.7068,2.5604,2.4127,2.2746,2.1304,1.958,1.8358,1.8084,1.7893,1.7938,1.8305,1.8519,1.9034,2.0298,2.04,2.0942,2.2327,2.2143,2.215,2.2661,2.2596,2.2434,2.2538,2.3039,2.3427,2.3625,2.4242,2.4661,2.4863,2.432,2.3851,2.3259,2.2603,2.1637,2.0601,1.9754,1.8542,1.7391,1.5543,1.3925,1.2806,1.0843,0.8645,0.6699,0.6027,0.3795,0.0762,-0.0514,-0.2323,-0.4128,-0.4902,-0.6465,-0.8559,0.0,0.0,0.0,0.0,0.0,0.0,0.0,3.256,3.3064,3.3077,3.388,3.3988,3.2823,3.2511,3.2017,0.0,0.0,0.0,0.0,0.0,0.0,0.0,0.0,0.0,2.3815,0.0,0.0,2.0958,1.8113,0.0,0.0,0.0,0.0,0.0,1.1399,1.3456,1.6151,1.9078,2.2515,0.0,0.0,3.3943,3.6982,0.0,0.0,0.0,0.0,4.5364,4.476,4.4501,4.3635,4.2405,4.1683,4.0813,3.9405,3.6662,3.4652,3.2855,3.052,2.9156,2.7852,2.6782,2.6105,2.5247,2.3427,2.2023,2.0565,1.8807,1.7334,1.6401,1.6196,1.6124,1.6285,1.652,1.6845,1.7394,1.856,1.8723,1.9416,2.1202,2.122,2.1244,2.2169,2.2211,2.2283,2.2321,2.2907,2.3323,2.3464,2.4013,2.4196,2.3709,2.3693,2.3497,2.2494,2.1855,2.112,2.0267,1.9275,1.8039,1.7067,1.5243,1.3667,1.2806,1.0843,0.8879,0.716,0.5756,0.4286,0.2276,0.0512,-0.1546,-0.3611,-0.387,-0.5697,-0.7805,0.0,0.0,0.0,0.0,0.0,0.0,0.0,3.1351,3.2232,3.3213,3.3315,3.3092,3.2727,3.2689,3.191,0.0,0.0,0.0,0.0,0.0,0.0,0.0,0.0,0.0,0.0,0.0,0.0,1.8339,1.5459,0.0,0.0,0.0,0.0,0.0,0.0,1.3862,1.6517,1.9226,0.0,0.0,0.0,0.0,0.0,0.0,0.0,0.0,0.0,4.3294,4.2966,4.2527,4.1139,3.9379,3.7569,3.7869,3.8391,3.6236,3.4116,3.1903,2.9223,2.7821,2.6506,2.5055,2.4085,2.3148,2.0999,1.9795,1.8427,1.6564,1.5283,1.439,1.4646,1.4777,1.5023,1.5507,1.6216,1.6871,1.7492,1.7939,1.8739,1.9729,2.0106,2.0419,2.1206,2.1603,2.1924,2.2104,2.269,2.3294,2.3871,2.4315,2.4346,2.3718,2.3249,2.2716,2.1433,2.1152,2.0222,1.9256,1.8262,1.716,1.6351,1.4439,1.3359,1.2806,1.0843,0.9364,0.8636,0.6224,0.4766,0.3538,0.1019,-0.1026,-0.2323,-0.3615,-0.4648,-0.5686,0.0,0.0,0.0,0.0,0.0,0.0,2.9359,2.998,3.066,3.1531,3.2505,3.2836,3.215,3.1951,3.1425,3.0309,0.0,0.0,0.0,0.0,0.0,0.0,0.0,0.0,0.0,0.0,1.7548,1.6355,1.3521,0.0,0.0,0.0,0.0,0.0,0.0,1.3551,1.6218,1.8895,0.0,0.0,0.0,0.0,0.0,0.0,0.0,0.0,0.0,0.0,4.0252,3.9626,3.8509,3.7265,3.5337,3.4693,3.4203,3.2281,3.0908,2.9493,2.7148,2.5878,2.4796,2.3838,2.2674,2.1394,1.9618,1.8099,1.6461,1.4664,1.356,1.3137,1.3282,1.3222,1.3275,1.396,1.4057,1.4404,1.5658,1.6324,1.7164,1.8703,1.9405,1.9931,2.0932,2.1471,2.2028,2.2605,2.2869,2.3228,2.3739,2.3741,2.3536,2.3099,2.2752,2.2142,2.1255,2.0663,1.9921,1.9039,1.7807,1.6832,1.5635,1.426,1.3163,1.2806,1.1092,0.9859,0.8885,0.7498,0.577,0.3768,0.2042,0.0257,-0.1283,-0.3351,-0.4374,-0.4616,0.0,0.0,0.0,0.0,0.0,2.7612,2.8276,2.8938,2.9624,3.0435,3.1698,3.2364,3.1934,3.1155,3.0521,3.0087,2.8574,0.0,0.0,0.0,0.0,0.0,0.0,0.0,0.0,0.0,1.5796,1.4746,1.211,1.0243,0.0,0.0,0.8695,0.9532,0.0,0.0,0.0,0.0,0.0,0.0,0.0,0.0,0.0,0.0,0.0,0.0,0.0,0.0,0.0,0.0,0.0,3.4958,3.2924,3.1411,3.0089,2.9182,2.8389,2.7284,2.5142,2.414,2.3309,2.2336,2.1005,1.9578,1.782,1.6154,1.4556,1.2855,1.1919,1.1515,1.1864,1.161,1.1724,1.2423,1.2493,1.277,1.3981,1.4743,1.588,1.7432,1.8326,1.9075,2.0327,2.131,2.2132,2.2954,2.3011,2.319,2.3616,2.34,2.2983,2.2557,2.2335,2.1579,2.0717,2.0139,1.9405,1.847,1.7443,1.6426,1.4918,1.403,1.3172,1.2324,1.1338,1.0109,0.9134,0.823,0.6752,0.4503,0.3302,0.153,-0.0255,-0.2303,-0.3322,-0.3816,0.0,0.0,0.0,0.0,0.0,0.0,2.7602,2.8381,2.9319,3.0523,3.0978,3.1483,3.2236,3.0486,2.9275,2.9013,2.7619,0.0,0.0,0.0,0.0,0.0,0.0,0.0,0.0,0.0,1.4407,1.3535,1.1395,0.9982,0.9324,0.9708,1.0294,1.12,0.0,0.0,0.0,0.0,0.0,0.0,0.0,0.0,3.2449,0.0,0.0,0.0,0.0,0.0,0.0,0.0,0.0,0.0,0.0,2.7966,2.6677,2.7836,2.746,2.599,2.3345,2.2572,2.1852,2.0366,1.9049,1.7828,1.5926,1.4244,1.2527,1.0975,1.0039,0.9639,0.9928,1.0369,1.0663,1.0663,1.169,1.2437,1.2594,1.3878,1.5058,1.5909,1.6751,1.7922,1.9177,2.087,2.2132,2.2954,2.3011,2.319,2.3616,2.2979,2.2557,2.2557,2.2025,2.0985,1.9871,1.9533,1.8768,1.762,1.7073,1.6092,1.4429,1.3712,1.2866,1.1833,1.1092,1.0348,0.9859,0.8389,0.744,0.6491,0.4495,0.2259,-0.0,-0.0252,-0.1262,-0.2777,0.0,0.0,0.0,0.0,0.0,0.0,0.0,2.6447,2.6864,2.7781,2.8271,2.8918,2.9844,2.8778,2.7752,2.7374,2.6673,0.0,0.0,0.0,0.0,0.0,0.0,0.0,0.0,0.0,1.4607,1.3394,1.2374,1.143,1.0775,1.0882,1.1476,1.2343,1.3816,1.5606,0.0,0.0,0.0,0.0,0.0,2.8559,3.0446,0.0,0.0,0.0,0.0,0.0,0.0,0.0,0.0,0.0,0.0,0.0,0.0,2.325,2.2996,2.2797,2.0894,1.9865,1.8862,1.7243,1.6205,1.5108,1.3191,1.2062,1.11,0.9261,0.8883,0.8835,0.8907,0.9123,0.9534,1.0205,1.0804,1.136,1.1848,1.3252,1.4499,1.5559,1.7614,1.9285,1.9813,2.0709,2.1422,2.156,2.1858,2.212,2.2391,2.1515,2.1568,2.2548,2.1472,2.0645,1.9871,1.9417,1.843,1.6931,1.6454,1.5475,1.3712,1.2998,1.2348,1.1739,1.1431,1.0678,0.971,0.9274,0.8084,0.6641,0.5471,0.3998,0.2505,0.0751,-0.0499,-0.1242,0.0,0.0,0.0,0.0,0.0,0.0,0.0,2.5431,2.5672,2.6126,2.6535,2.7248,2.8404,2.7435,2.6651,2.6603,2.5775,0.0,0.0,0.0,0.0,0.0,0.0,0.0,1.7083,1.6113,1.5085,1.4008,1.3641,1.3057,1.237,1.2854,1.3308,1.3797,1.5083,1.6466,0.0,0.0,0.0,0.0,2.5905,2.7044,2.8579,0.0,0.0,0.0,0.0,0.0,0.0,0.0,0.0,0.0,0.0,0.0,0.0,0.0,1.9196,1.8816,1.8142,1.7303,1.613,1.4914,1.396,1.2802,1.1271,1.0259,0.9412,0.795,0.7608,0.759,0.7864,0.7925,0.8314,0.9259,0.9854,1.0405,1.1176,1.2512,1.4094,1.5546,1.7776,1.9275,1.9488,2.0233,2.0596,2.0603,2.1115,2.1212,2.1071,2.0737,2.0767,2.116,2.0295,1.9707,1.9194,1.8684,1.7673,1.5928,1.568,1.467,1.2888,1.2452,1.1803,1.1158,1.1107,1.0359,0.0,0.9206,0.8256,0.6563,0.589,0.4929,0.3696,0.1972,0.0737,-0.0245,0.0,0.0,0.0,0.0,0.0,0.0,0.0,2.5248,2.5559,2.5339,2.5618,2.635,2.7625,2.6444,2.5827,2.6381,0.0,0.0,0.0,0.0,0.0,0.0,0.0,0.0,1.721,1.6488,1.5845,1.5257,1.5121,1.4715,1.4145,1.5178,1.5577,1.5401,1.6955,1.8029,1.873,0.0,0.0,0.0,2.488,2.5727,0.0,0.0,0.0,0.0,0.0,0.0,0.0,0.0,0.0,0.0,0.0,0.0,0.0,0.0,0.0,0.0,0.0,1.4596,1.3553,1.2924,1.1899,1.0793,0.9832,0.8807,0.0,0.6762,0.6131,0.6002,0.6814,0.7052,0.7285,0.7879,0.8749,0.9595,1.0399,1.202,1.3774,1.6052,1.7157,1.8059,1.8409,1.9518,1.9992,1.9978,2.0587,2.0662,1.9987,1.9991,1.954,1.8646,1.8458,1.8336,1.8057,1.7536,1.6487,1.4657,1.4782,1.3749,1.2214,1.1599,1.0978,1.058,0.9865,0.9381,0.8658,0.8658,0.7941,0.6734,0.6016,0.5058,0.3851,0.3855,0.2409,0.0241,0.0,0.0,0.0,0.0,0.0,0.0,0.0,0.0,0.0,0.0,2.4178,2.4611,2.5258,2.5061,2.4875,0.0,0.0,0.0,0.0,0.0,0.0,0.0,0.0,0.0,1.8107,1.7612,1.7129,1.6647,1.6486,1.6246,1.593,1.5844,1.5861,1.6088,1.6601,1.7719,1.9141,1.9647,0.0,0.0,2.2778,2.3596,0.0,0.0,0.0,0.0,2.4735,2.4256,0.0,0.0,0.0,0.0,0.0,0.0,0.0,0.0,1.3363,1.1821,1.105,0.0,1.1096,0.9361,0.902,0.8502,0.0,0.6568,0.6359,0.5403,0.5357,0.5474,0.5638,0.6462,0.7181,0.7468,0.8383,0.9339,0.9965,1.1982,1.4002,1.5436,1.6479,1.7073,1.6972,1.771,1.8216,1.7866,1.8356,1.8213,1.7813,1.7682,1.7287,1.6808,1.6382,1.6614,1.7079,1.6218,1.5439,1.4532,1.3746,1.2939,1.2112,1.0968,1.0567,1.0408,0.9704,0.9202,0.8444,0.8444,0.7747,0.6575,0.5907,0.5212,0.45,0.403,0.3542,0.258,0.0,0.0,0.0,0.0,0.0,0.0,0.0,0.0,0.0,0.0,0.0,2.37,2.4334,2.4254,0.0,0.0,0.0,0.0,0.0,0.0,0.0,0.0,0.0,1.8946,1.8646,1.8354,1.8009,1.7715,1.7813,1.7637,1.7199,1.7128,1.6917,1.6564,1.6736,1.7595,1.8858,1.8974,1.9889,2.1311,2.1496,0.0,0.0,0.0,0.0,0.0,2.25,2.1959,0.0,2.0924,2.0101,1.9002,0.0,0.0,0.0,0.0,1.1389,0.9895,0.8354,0.8433,0.852,0.7148,0.679,0.6411,0.5167,0.5141,0.5089,0.4315,0.4583,0.4858,0.5005,0.5733,0.6345,0.688,0.7827,0.8985,1.0435,1.2156,1.3885,1.5068,1.5883,1.6256,1.6427,1.6733,1.6803,1.6587,1.6629,1.6665,1.6085,1.6108,1.5886,1.5407,1.5175,1.5159,1.5579,1.5064,1.4276,1.3212,1.2644,1.2078,1.1491,1.038,0.9733,0.9776,0.885,0.8367,0.7871,0.7637,0.7172,0.6484,0.5581,0.5126,0.4897,0.3963,0.3719,0.3701,0.0,0.0,0.0,0.0,0.0,0.0,0.0,0.0,0.0,0.0,0.0,0.0,0.0,0.0,0.0,0.0,0.0,0.0,0.0,0.0,0.0,0.0,1.9473,1.9156,1.9045,1.8748,1.8628,1.8678,1.892,1.8775,1.8312,1.8571,1.8117,1.6973,1.7063,1.7515,1.8286,1.8467,1.9266,2.0404,2.0606,0.0,0.0,0.0,0.0,0.0,0.0,0.0,0.0,1.8787,1.8034,1.7117,1.5259,0.0,0.0,0.0,0.0,0.0,0.6681,0.6183,0.6081,0.5696,0.517,0.462,0.4261,0.4061,0.3999,0.3557,0.3673,0.4085,0.4541,0.502,0.5503,0.628,0.726,0.8645,1.1025,1.2235,1.3356,1.4388,1.4812,1.5329,1.6022,1.5946,1.5629,1.5415,1.5549,1.5355,1.4641,1.4979,1.4904,1.399,1.4002,1.3962,1.3658,1.3712,1.2916,1.1695,1.1564,1.1193,1.0828,0.9785,0.9145,0.9151,0.801,0.7559,0.7327,0.6634,0.6398,0.6163,0.5028,0.4577,0.4577,0.3896,0.3663,0.366,0.0,0.0,0.0,0.0,0.0,0.0,0.0,0.0,0.0,0.0,0.0,0.0,0.0,0.0,0.0,0.0,0.0,0.0,0.0,0.0,0.0,2.0049,1.9482,1.9323,1.9668,1.8941,1.9081,2.0095,1.9297,1.9312,2.007,1.9602,1.8852,1.7853,1.7423,1.7442,1.7671,1.7667,1.8309,1.9442,1.96,0.0,0.0,0.0,0.0,0.0,0.0,0.0,0.0,1.6898,1.6029,1.495,1.2984,0.0,0.0,0.0,0.0,0.0,0.5968,0.4881,0.4267,0.4249,0.4459,0.4389,0.338,0.3227,0.3218,0.3072,0.3066,0.3376,0.4197,0.4633,0.5253,0.6189,0.7381,0.865,1.0112,1.0992,1.1709,1.2817,1.3387,1.3644,1.3852,1.3927,1.4197,1.4254,1.4292,1.4232,1.3901,1.3632,1.33,1.2716,1.222,1.2132,1.224,1.2307,1.2452,1.2036,1.1182,1.0972,1.1208,1.0199,0.9382,0.9002,0.8106,0.7654,0.7196,0.6481,0.5991,0.5299,0.4668,0.4235,0.3792,0.3594,0.3589,0.3565,0.0,0.0,0.0,0.0,0.0,0.0,0.0,0.0,0.0,0.0,0.0,0.0,0.0,0.0,0.0,0.0,0.0,0.0,0.0,0.0,2.1195,2.0193,1.9849,1.9776,1.9983,1.9366,1.9643,2.0798,2.0117,1.9998,2.0449,1.9364,1.8562,1.7906,1.7133,1.6936,1.7353,1.722,1.7726,1.8697,0.0,0.0,0.0,0.0,0.0,0.0,0.0,0.0,0.0,0.0,1.4593,1.3725,1.1802,0.0,0.0,0.0,0.0,0.0,0.5072,0.4271,0.382,0.3119,0.3197,0.3274,0.2233,0.2382,0.2679,0.2679,0.2679,0.2839,0.3476,0.4114,0.5114,0.6581,0.7657,0.8596,0.9963,1.0366,1.0899,1.2237,1.2595,1.2829,1.3382,1.3069,1.3083,1.321,1.2753,1.2497,1.2463,1.2388,1.2024,1.1974,1.1715,1.1409,1.1249,1.1391,1.1547,1.1712,1.1064,1.0874,1.0925,1.0089,0.9466,0.9279,0.8186,0.7742,0.7521,0.6172,0.5488,0.5031,0.4176,0.3744,0.3303,0.221,0.1546,0.176,0.0,0.0,0.0,0.0,0.0,0.0,0.0,0.0,0.0,0.0,0.0,0.0,0.0,0.0,0.0,0.0,0.0,0.0,0.0,0.0,2.1451,2.0604,2.0463,2.0311,2.017,1.9604,1.9856,2.0995,2.0549,2.0281,2.0288,1.9226,1.8438,1.7893,1.7098,1.6936,1.7296,1.708,1.7531,1.8246,0.0,0.0,0.0,0.0,0.0,0.0,0.0,0.0,0.0,0.0,0.0,0.0,0.0,0.0,0.0,0.8008,0.6855,0.5797,0.4625,0.4088,0.3501,0.2415,0.2196,0.1956,0.1366,0.1669,0.2123,0.2136,0.2292,0.2444,0.2751,0.3741,0.512,0.6605,0.7535,0.8471,0.9616,0.9845,1.0367,1.1493,1.1582,1.1955,1.2731,1.2183,1.1952,1.2219,1.1397,1.114,1.1254,1.1354,1.1171,1.1297,1.1236,1.112,1.0737,1.0942,1.1068,1.1321,1.1108,1.0934,1.0793,1.0144,0.9721,0.9525,0.8448,0.7806,0.7605,0.5871,0.5219,0.5002,0.3915,0.3486,0.3273,0.1527,0.0436,-0.0,0.0,0.0,0.0,0.0,0.0,0.0,0.0,0.0,0.0,0.0,0.0,0.0,0.0,0.0,0.0,0.0,0.0,0.0,0.0,0.0,2.225,2.1356,2.1272,2.1033,2.0427,1.9425,1.9522,2.0839,1.9871,1.963,2.0143,1.9993,1.9331,1.8359,1.8101,1.7823,1.7464,1.7432,1.784,1.8337,1.7953,0.0,0.0,0.0,0.0,0.0,0.0,0.0,0.0,0.0,0.0,0.0,0.0,0.0,0.8948,0.8228,0.705,0.5874,0.5127,0.4116,0.3036,0.2521,0.1722,0.1329,0.1223,0.1222,0.122,0.1248,0.188,0.2507,0.2507,0.3993,0.5232,0.5524,0.6613,0.7738,0.8602,0.8996,0.9605,1.0335,1.0461,1.0572,1.0674,1.0785,1.0931,1.1134,1.0968,1.1063,1.1259,1.0886,1.0489,1.0485,1.0498,1.0546,1.0639,1.125,1.1511,1.1625,1.1014,1.1014,1.1428,1.0816,1.0032,0.927,0.864,0.8048,0.7467,0.5763,0.5125,0.4912,0.3845,0.3435,0.346,0.346,0.1946,-0.0,0.0,0.0,0.0,0.0,0.0,0.0,0.0,0.0,0.0,0.0,0.0,0.0,0.0,0.0,0.0,0.0,0.0,0.0,0.0,2.2812,2.247,2.1909,2.1725,2.119,2.0412,1.9946,2.0074,2.0861,2.036,2.0078,2.0053,1.9594,1.8877,1.8024,1.7548,1.7261,1.707,1.6979,1.7251,1.7779,1.7707,1.7671,0.0,0.0,0.0,0.0,0.0,0.0,0.0,0.0,1.2036,1.1405,1.0273,0.9354,0.8665,0.7928,0.6827,0.5582,0.5106,0.4174,0.3032,0.2375,0.2004,0.1619,0.0606,0.0461,0.0624,0.1119,0.1446,0.1932,0.2918,0.3288,0.4007,0.5253,0.6001,0.6769,0.7922,0.8033,0.8324,0.9356,0.9455,0.9737,1.0023,1.0367,1.0441,1.0582,1.0232,1.0201,1.0275,1.0079,1.0083,1.0083,1.0083,1.007,1.0445,1.0708,1.1129,1.1703,1.1501,1.1184,1.1189,1.0776,1.0385,0.9584,0.8753,0.8143,0.7961,0.6287,0.5241,0.5033,0.3797,0.3179,0.2765,0.2566,0.1285,-0.0,0.0,0.0,0.0,0.0,0.0,0.0,0.0,0.0,0.0,0.0,0.0,0.0,0.0,0.0,0.0,0.0,0.0,0.0,2.3157,2.2886,2.2629,2.2197,2.172,2.109,2.0289,2.0048,2.0157,2.0576,2.0466,2.008,1.9577,1.9004,1.8427,1.7842,1.726,1.6987,1.7013,1.6746,1.6798,1.7116,1.7208,1.7146,0.0,0.0,0.0,0.0,0.0,0.0,0.0,0.0,1.1702,1.1003,1.0152,0.9293,0.8431,0.7959,0.6888,0.5659,0.5283,0.4243,0.3133,0.2497,0.2268,0.1891,0.0601,-0.0309,-0.0475,0.0651,0.131,0.1972,0.2501,0.2852,0.3216,0.4478,0.5041,0.5783,0.6905,0.7024,0.7313,0.8308,0.8579,0.8852,0.9319,0.9632,0.9679,0.9989,0.9703,0.9681,0.9681,0.9681,0.9653,0.9595,0.9849,1.0019,1.029,1.055,1.1163,1.1916,1.1777,1.1497,1.1297,1.1093,1.0684,1.0074,0.9072,0.8462,0.8053,0.663,0.5602,0.4567,0.3762,0.3148,0.2527,0.233,0.1486,0.0424,0.0,0.0,0.0,0.0,0.0,0.0,0.0,0.0,0.0,0.0,0.0,0.0,0.0,0.0,0.0,0.0,0.0,0.0,2.3679,2.3207,2.2665,2.2197,2.1365,2.0572,1.9896,1.9598,1.9628,1.9885,1.9932,1.9483,1.8711,1.8275,1.8078,1.7933,1.7336,1.7242,1.7388,1.6895,1.6687,1.6536,1.6403,1.6386,1.6444,0.0,0.0,0.0,0.0,0.0,0.0,0.0,1.1935,1.072,1.0907,0.961,0.8214,0.8251,0.7383,0.6217,0.5461,0.4475,0.3581,0.2866,0.2501,0.1992,0.1197,-0.0926,-0.2222,-0.0329,0.1491,0.2336,0.1533,0.2374,0.3234,0.2814,0.4062,0.5137,0.5552,0.6152,0.6763,0.7384,0.7459,0.7726,0.8368,0.8379,0.8638,0.9391,0.9376,0.9476,0.9673,0.9677,0.9595,0.9412,0.9977,1.0184,1.0188,1.0764,1.1402,1.191,1.1828,1.1884,1.2084,1.1483,1.1082,1.0489,0.9365,0.8789,0.8184,0.7023,0.56,0.4151,0.3528,0.3339,0.3366,0.3366,0.2735,0.1683,0.0,0.0,0.0,0.0,0.0,0.0,0.0,0.0,0.0,0.0,0.0,0.0,0.0,0.0,0.0,0.0,0.0,0.0,2.3564,2.3266,2.2809,2.2197,2.172,2.0966,1.9896,1.9274,1.9165,1.9696,1.9429,1.8893,1.8275,1.8445,1.7914,1.6848,1.7181,1.6816,1.581,1.6189,1.6001,1.5599,1.5749,1.5754,1.5681,0.0,0.0,0.0,0.0,0.0,0.0,0.0,0.0,0.0,1.028,0.9483,0.853,0.8419,0.7261,0.6064,0.5831,0.4506,0.326,0.3056,0.2622,0.2148,0.1613,-0.0757,-0.22,-0.0328,0.1509,0.2547,0.2393,0.2748,0.3112,0.3317,0.3693,0.4065,0.4613,0.5226,0.5485,0.5359,0.6346,0.6974,0.6853,0.7489,0.8292,0.8645,0.891,0.9166,0.9511,0.942,0.9444,0.935,1.0024,1.041,1.067,1.1173,1.1788,1.2304,1.2252,1.218,1.2084,1.1405,1.1012,1.048,0.924,0.8453,0.8103,0.6502,0.5496,0.4483,0.4101,0.3722,0.3335,0.3335,0.3139,0.2941,0.0,0.0,0.0,0.0,0.0,0.0,0.0,0.0,0.0,0.0,0.0,0.0,0.0,0.0,0.0,0.0,0.0,0.0,0.0,2.353,2.295,2.2447,2.1667,2.0795,1.9607,1.891,1.8664,1.8954,1.8711,1.837,1.7961,1.7845,1.7456,1.6757,1.6845,1.6337,1.5449,1.5637,1.5442,1.5118,1.5262,1.5315,1.5312,0.0,0.0,0.0,0.0,0.0,0.0,0.0,0.0,0.0,1.0202,0.9391,0.8539,0.8188,0.7174,0.6137,0.58,0.4628,0.3535,0.3224,0.2772,0.229,0.2059,0.0306,-0.0955,-0.0164,0.1512,0.2728,0.2751,0.2772,0.2966,0.3168,0.3188,0.3383,0.3934,0.4355,0.4602,0.4463,0.5258,0.606,0.6093,0.6717,0.7492,0.8576,0.8562,0.8841,0.9557,0.9367,0.9553,0.9713,0.9937,1.0487,1.0945,1.1432,1.1849,1.239,1.2439,1.2363,1.2149,1.1728,1.1182,1.0681,0.922,0.8225,0.8065,0.6659,0.5652,0.5051,0.4673,0.4096,0.351,0.351,0.3314,0.3325,0.0,0.0,0.0,0.0,0.0,0.0,0.0,0.0,0.0,0.0,2.6258,0.0,0.0,0.0,0.0,0.0,0.0,0.0,0.0,0.0,2.3055,2.2638,2.1471,2.0302,1.9233,1.8742,1.8271,1.7991,1.7974,1.7813,1.7571,1.6929,1.6842,1.7226,1.642,1.5982,1.5841,1.5277,1.4967,1.4977,1.4877,1.5007,1.5193,1.4514,0.0,0.0,0.0,0.0,0.0,0.0,0.0,0.0,1.0311,0.9493,0.8332,0.7668,0.7123,0.644,0.5445,0.4668,0.411,0.3452,0.2805,0.2288,0.2402,0.1888,0.1141,0.033,0.1502,0.271,0.2769,0.278,0.2799,0.286,0.287,0.3061,0.3458,0.3679,0.3902,0.4314,0.4547,0.4956,0.5718,0.5908,0.6669,0.8386,0.8383,0.8703,0.9612,0.9424,0.9692,1.0078,1.0078,1.0596,1.1416,1.1406,1.1842,1.2335,1.2416,1.2488,1.2526,1.204,1.1545,1.1045,0.9047,0.8052,0.8058,0.6855,0.6254,0.5652,0.5049,0.4468,0.4094,0.3478,0.3273,0.3276,0.0,0.0,0.0,0.0,0.0,0.0,0.0,0.0,0.0,0.0,0.0,0.0,0.0,0.0,0.0,0.0,0.0,0.0,0.0,0.0,2.3272,2.2139,2.1555,2.093,2.02,1.9372,1.8787,1.8455,1.7816,1.7387,1.6987,1.7329,1.7081,1.6564,1.7069,1.6635,1.5529,1.5751,1.5465,1.4909,1.4796,1.4683,1.4682,1.4383,1.393,0.0,0.0,0.0,0.0,0.0,0.0,0.0,0.9764,0.9126,0.8552,0.7926,0.7057,0.615,0.5483,0.4614,0.3978,0.3711,0.3227,0.2813,0.2596,0.2359,0.2256,0.2119,0.249,0.2703,0.274,0.2747,0.2767,0.2829,0.2838,0.2856,0.3091,0.3495,0.353,0.3378,0.417,0.4385,0.3813,0.4764,0.5715,0.6669,0.7052,0.765,0.8672,0.9012,0.9365,0.9945,1.0702,1.1257,1.1416,1.1789,1.2183,1.221,1.2183,1.2265,1.2433,1.1849,1.109,1.0144,0.8652,0.7929,0.7784,0.6788,0.6217,0.5652,0.5049,0.4468,0.4091,0.3452,0.3255,0.3272,0.0,0.0,0.0,0.0,0.0,0.0,0.0,0.0,0.0,0.0,0.0,0.0,0.0,0.0,0.0,0.0,0.0,0.0,0.0,0.0,2.3345,2.1972,2.155,2.1082,2.0555,1.9722,1.9027,1.8426,1.781,1.7232,1.6769,1.6794,1.6736,1.6444,1.6911,1.6563,1.5575,1.5854,1.5746,1.5256,1.4837,1.4856,1.4969,1.433,1.3848,1.3426,1.2953,0.0,0.0,0.0,0.0,0.0,0.0,0.0,0.8276,0.7545,0.6614,0.5793,0.5203,0.4583,0.383,0.3354,0.3145,0.286,0.2593,0.2506,0.2568,0.2597,0.2639,0.2684,0.2729,0.2737,0.2758,0.2819,0.2829,0.2849,0.2908,0.3114,0.3328,0.3002,0.3032,0.3051,0.3052,0.3813,0.4764,0.6098,0.6288,0.7071,0.8458,0.8599,0.9158,1.0349,1.1062,1.1605,1.2172,1.2367,1.255,1.2544,1.2356,1.2216,1.2297,1.162,1.0887,0.9924,0.8416,0.7871,0.7711,0.6757,0.619,0.6019,0.5441,0.4862,0.4269,0.3843,0.3443,0.3251,0.0,0.0,0.0,0.0,0.0,0.0,0.0,0.0,0.0,0.0,0.0,0.0,0.0,0.0,0.0,0.0,0.0,0.0,0.0,0.0,0.0,2.1949,2.1619,2.122,2.0705,2.0031,1.9293,1.8332,1.7845,1.7324,1.6864,1.6393,1.6369,1.6823,1.674,1.6486,1.6105,1.6158,1.6121,1.5906,1.5311,1.5317,1.5518,1.4498,1.386,1.355,1.2791,1.2165,1.1599,1.1066,0.0,0.0,0.0,0.0,0.7697,0.6909,0.6166,0.5326,0.4824,0.4224,0.3732,0.3025,0.2903,0.2864,0.2421,0.2487,0.2553,0.2587,0.2623,0.2664,0.272,0.2731,0.275,0.2811,0.2821,0.2844,0.2908,0.2919,0.2942,0.3001,0.2086,0.1716,0.248,0.2862,0.3803,0.5661,0.5866,0.6663,0.8458,0.8398,0.9146,1.0749,1.1237,1.1951,1.2733,1.2904,1.3093,1.2922,1.255,1.2172,1.1989,1.122,1.0717,1.0135,0.8585,0.7824,0.7851,0.6731,0.6368,0.6589,0.5836,0.545,0.4847,0.4242,0.3836,0.3231,0.0,0.0,0.0,0.0,0.0,0.0,0.0,0.0,0.0,0.0,0.0,0.0,0.0,0.0,0.0,0.0,0.0,0.0,0.0,0.0,0.0,2.1987,2.2202,2.1985,2.1063,2.0402,1.977,1.8982,1.8004,1.7447,1.7298,1.7036,1.7131,1.7582,1.7611,1.7665,1.7637,1.7527,1.7253,1.6894,1.6566,1.6079,1.5503,1.5053,1.4591,1.4048,1.3285,1.2598,1.1983,1.1214,1.036,0.0,0.0,0.0,0.7334,0.6468,0.5828,0.5287,0.4168,0.3544,0.3252,0.3133,0.2986,0.2802,0.2412,0.2454,0.2497,0.2553,0.2609,0.2657,0.2692,0.2698,0.2718,0.278,0.2789,0.2819,0.2906,0.2919,0.2942,0.3002,0.2086,0.1144,0.0573,0.2099,0.3383,0.4169,0.4965,0.5932,0.7562,0.8381,0.9364,1.031,1.1599,1.2399,1.2528,1.3156,1.3361,1.3329,1.2945,1.2367,1.1416,1.0877,1.0702,1.0507,0.8413,0.7917,0.8434,0.6874,0.6748,0.705,0.6052,0.5652,0.545,0.4847,0.4444,0.3836,0.0,0.0,0.0,0.0,0.0,0.0,0.0,0.0,0.0,0.0,0.0,0.0,0.0,0.0,0.0,0.0,0.0,0.0,0.0,0.0,0.0,2.2482,2.239,2.2067,2.1468,2.0876,2.0183,1.9396,1.8781,1.8455,0.0,1.7928,1.7807,1.7935,1.8241,1.8244,1.8066,1.8009,1.7746,1.7221,1.673,1.6499,1.633,1.5436,1.4851,1.4407,1.3743,1.3017,1.2142,1.1466,1.0793,0.9983,0.909,0.0,0.0,0.0,0.5369,0.4445,0.3515,0.3189,0.3091,0.2957,0.2941,0.2753,0.2363,0.2409,0.2461,0.2522,0.2555,0.2592,0.2656,0.2667,0.2687,0.2748,0.2758,0.2777,0.2834,0.2322,0.2344,0.2928,0.1667,0.0751,0.0763,0.1706,0.2804,0.4024,0.4786,0.591,0.7361,0.8362,0.9339,1.064,1.19,1.2835,1.3264,1.3561,1.3592,1.2987,1.2881,1.255,1.1794,1.1037,1.0469,1.0095,0.8809,0.8299,0.8562,0.7678,0.7156,0.7211,0.6846,0.6256,0.5652,0.545,0.4847,0.4444,0.0,0.0,0.0,0.0,0.0,0.0,0.0,0.0,0.0,0.0,0.0,0.0,0.0,0.0,0.0,0.0,0.0,0.0,0.0,0.0,0.0,2.3055,2.2665,2.2297,2.1901,2.14,2.0764,1.9857,1.9594,0.0,1.9286,1.8807,1.8643,0.0,1.8911,1.8763,1.834,1.8547,1.8246,1.7581,1.7084,1.6946,1.6996,1.6021,1.5405,1.4967,1.4316,1.3471,1.2573,1.1844,1.1162,1.0364,0.9075,0.8062,0.0,0.0,0.0,0.36,0.3045,0.2909,0.2886,0.2753,0.2728,0.2677,0.23,0.2357,0.2416,0.2469,0.2487,0.2357,0.2264,0.2293,0.2324,0.2376,0.2556,0.274,0.2778,0.2281,0.1773,0.2152,0.1087,0.0738,0.1713,0.1857,0.2552,0.4375,0.4912,0.5818,0.7279,0.8461,0.9618,1.1085,1.213,1.3011,1.3907,1.4075,1.3782,1.3008,1.297,1.2864,1.2317,1.1401,1.0659,1.0284,0.9016,0.8495,0.8737,0.8081,0.7556,0.7392,0.7245,0.6659,0.5853,0.5853,0.545,0.5049,0.0,0.0,0.0,0.0,0.0,0.0,0.0,0.0,0.0,0.0,0.0,0.0,0.0,0.0,2.7456,2.7456,2.7027,2.6089,2.4638,2.4413,2.4096,2.3416,2.333,0.0,2.2372,2.2002,2.1439,2.0571,2.0053,0.0,1.9657,1.9599,1.9898,2.0462,1.9696,1.9213,1.8991,0.0,1.9127,1.8251,1.8251,1.766,1.6906,0.0,1.6552,1.6011,1.4967,1.4376,1.3701,1.2294,1.1169,1.0177,0.9056,0.7975,0.6838,0.0,0.0,0.0,0.3136,0.2768,0.2392,0.263,0.246,0.2142,0.223,0.2296,0.2346,0.2379,0.2408,0.2134,0.1545,0.1433,0.1313,0.1342,0.2189,0.2716,0.2949,0.2801,0.2122,0.0359,0.0898,0.1644,0.2664,0.2845,0.3413,0.4529,0.4853,0.571,0.7483,0.8538,0.989,1.1298,1.2349,1.3053,1.3597,1.4142,1.4283,1.3997,1.3573,1.3276,1.2562,1.1741,1.1416,1.1227,0.9332,0.8856,0.9204,0.7648,0.7537,0.7861,0.6861,0.6461,0.6461,0.6461,0.6057,0.5652,0.0,0.0,0.0,0.0,0.0,0.0,0.0,0.0,0.0,0.0,0.0,0.0,0.0,2.7921,2.7881,2.7881,2.7326,2.6733,2.6086,2.5354,2.4892,2.4926,2.4013,2.3482,2.3282,2.269,2.1963,2.1146,2.07,2.0568,2.065,1.9831,1.9802,2.053,2.0325,2.0058,1.9758,1.9782,1.9297,1.8593,1.837,1.8096,1.7777,0.0,0.0,0.0,0.0,0.0,0.0,0.0,0.0,0.0,0.0,0.0,0.7449,0.5666,0.4468,0.3671,0.2967,0.2694,0.2422,0.2274,0.2118,0.2064,0.2117,0.2191,0.2256,0.2286,0.2333,0.2223,0.1935,0.1545,0.112,0.0487,0.0819,0.1322,0.2665,0.2709,0.24,0.1723,0.1413,0.1797,0.2701,0.3193,0.3669,0.4319,0.5189,0.624,0.7461,0.8867,1.0228,1.1654,1.2656,1.3696,1.4448,1.4476,1.4353,1.3905,1.3776,1.3567,1.3109,1.2218,1.1908,1.2361,1.0654,0.9781,0.9721,0.9248,0.8936,0.8403,0.7848,0.7264,0.7065,0.6662,0.6461,0.6259,0.0,0.0,0.0,0.0,0.0,0.0,0.0,0.0,0.0,0.0,0.0,0.0,0.0,0.0,2.8341,2.8276,2.7584,2.7173,2.7046,2.6144,2.5712,2.6021,2.4823,2.415,2.4202,2.3304,2.2519,2.1753,2.1273,2.1086,2.1135,2.0038,1.9828,2.0521,2.058,2.0358,0.0,0.0,0.0,1.8946,1.8696,1.852,1.8387,0.0,0.0,0.0,0.0,0.0,0.0,0.0,0.0,0.0,0.0,0.0,0.0,0.0,0.493,0.4334,0.3211,0.2939,0.2668,0.207,0.19,0.1956,0.2008,0.2082,0.2014,0.1633,0.1813,0.1849,0.1563,0.162,0.1222,0.0157,-0.0,0.0481,0.1619,0.1977,0.2171,0.2525,0.2047,0.2064,0.2924,0.3291,0.3806,0.444,0.5634,0.6826,0.8009,0.9385,1.0719,1.2457,1.3442,1.4407,1.4999,1.4653,1.4483,1.4122,1.4003,1.3827,1.3598,1.2899,1.2614,1.3116,1.2172,1.1287,1.0441,1.0374,0.9682,0.8956,0.841,0.8045,0.7465,0.7267,0.7065,0.6864,0.0,0.0,0.0,0.0,0.0,0.0,0.0,0.0,0.0,2.9338,0.0,0.0,0.0,0.0,0.0,2.8627,2.7739,2.7327,2.7453,2.6765,2.6444,2.662,2.5701,2.5143,2.5022,2.3996,2.3065,2.2433,2.1753,2.1303,2.0983,2.0247,2.0137,2.0495,2.0372,2.0057,1.9633,0.0,1.9491,1.9423,0.0,1.8982,1.8622,0.0,0.0,0.0,1.7727,1.6883,0.0,1.473,0.0,0.0,0.0,0.0,0.0,0.0,0.0,0.0,0.0,0.0,0.0,0.2109,0.1793,0.1931,0.1906,0.1973,0.1645,0.0385,0.0658,0.094,0.0134,0.1237,0.171,0.015,-0.0,-0.0,-0.0,0.0808,0.1638,0.2346,0.2586,0.288,0.351,0.3456,0.3935,0.5198,0.5964,0.7226,0.8866,1.018,1.1766,1.3742,1.4643,1.5154,1.5211,1.4836,1.4653,1.4653,1.4077,1.3855,1.3997,1.3776,1.3541,1.3676,1.3682,1.2991,1.1564,1.0422,0.9963,0.9538,0.8952,0.8603,0.8069,0.8065,0.8065,0.8069,0.0,0.0,0.0,0.0,0.0,0.0,3.0334,3.0602,3.0687,0.0,0.0,0.0,0.0,0.0,2.929,2.8853,2.8692,2.8463,2.8072,2.7669,2.7344,2.7185,2.6217,2.5474,2.4936,2.4268,2.3569,2.2884,2.2372,2.1957,2.1554,2.0604,2.0175,2.0333,1.9618,1.9264,1.9367,1.9661,0.0,1.9558,1.8894,1.9124,0.0,0.0,0.0,0.0,0.0,1.772,1.6537,0.0,1.4842,1.2911,0.0,0.0,0.0,0.0,0.0,0.0,0.4871,0.0,0.0,0.0,0.0,0.0,0.0224,0.0346,0.0593,0.0241,-0.0496,-0.1016,-0.077,-0.079,-0.0811,-0.0694,-0.0292,0.0151,0.0763,0.1077,0.1553,0.2361,0.2675,0.2988,0.3149,0.411,0.4942,0.55,0.6709,0.8008,0.9351,1.1346,1.2925,1.4368,1.4695,1.519,1.5675,1.5444,1.5167,1.5017,1.5111,1.5262,1.5134,1.4931,1.4963,1.5025,1.4467,1.3796,1.3548,1.2208,1.1538,1.1025,1.0387,0.9657,0.9275,0.8869,0.8467,0.8065,0.0,0.0,0.0,0.0,0.0,3.06,3.1114,3.1302,3.1367,0.0,0.0,0.0,0.0,0.0,2.9849,2.9646,2.9363,2.9067,2.8822,2.8447,2.803,2.7776,2.6796,2.5908,2.5424,2.4517,2.3702,2.2858,2.2542,2.1987,2.1261,2.0578,2.0176,1.9865,1.9375,0.0,0.0,0.0,0.0,0.0,1.9028,0.0,0.0,1.9835,1.9816,0.0,0.0,0.0,1.7616,1.7588,1.6179,0.0,0.0,0.0,0.0,0.0,0.0,0.0,0.0,0.0,0.0,0.0,0.0,0.0,-0.0108,-0.044,-0.056,-0.0683,-0.1516,-0.2025,-0.1443,-0.1734,-0.1785,-0.1426,-0.1079,-0.0421,0.058,0.1174,0.1919,0.2662,0.286,0.3188,0.3756,0.4694,0.5644,0.6434,0.7689,0.9051,1.0753,1.2553,1.4077,1.4937,1.5202,1.5711,1.6307,1.6018,1.5895,1.609,1.5707,1.5675,1.5986,1.5727,1.5586,1.5881,1.5334,1.5231,1.5201,1.4155,1.3297,1.2347,1.1743,1.1045,1.0681,1.0079,0.9673,0.9271,0.0,0.0,2.9868,3.0656,3.108,3.1589,3.2219,3.1923,3.1809,0.0,3.1479,3.091,0.0,0.0,0.0,0.0,2.9808,2.9389,2.9454,2.8937,2.8546,2.8271,2.7274,2.6559,2.6091,2.4846,2.3683,2.2712,2.254,2.1848,2.0726,2.052,2.0094,1.9459,1.9479,0.0,0.0,0.0,0.0,1.8594,1.9331,1.9568,0.0,0.0,2.0644,2.0096,2.0216,1.9747,1.8998,1.874,1.7339,0.0,0.0,0.0,0.0,0.0,0.9013,0.0,0.0,0.0,0.0,0.0,0.2152,0.0,0.021,-0.0741,-0.149,-0.1725,-0.2189,-0.2329,-0.1897,-0.1842,-0.1899,-0.194,-0.1833,-0.1391,-0.0137,0.1259,0.2386,0.3079,0.3147,0.3484,0.4643,0.521,0.6213,0.7805,0.876,1.0347,1.258,1.4004,1.4983,1.5607,1.6065,1.6613,1.7061,1.6585,1.673,1.7322,1.6183,1.6133,1.6604,1.627,1.6288,1.6413,1.6413,1.6517,1.6703,1.6053,1.4835,1.3509,1.3049,1.2583,1.2284,1.1668,1.1473,1.1282,0.0,0.0,3.0598,3.1635,3.1774,3.2247,3.3637,3.3098,3.2706,3.3332,3.2499,3.1825,0.0,0.0,0.0,0.0,3.0256,2.9834,2.9206,2.9104,2.8675,2.8029,2.7748,2.7054,2.5807,2.5123,2.4313,2.339,2.2834,2.2224,2.1448,2.0846,2.0357,1.992,1.9389,1.9043,1.8725,0.0,0.0,1.8614,1.9144,2.0102,2.1071,2.0757,2.1115,2.1639,2.1176,2.0565,1.98,1.8564,1.7539,1.663,0.0,0.0,0.0,1.1463,0.0,0.0,0.0,0.0,0.0,0.0,0.2817,0.0,-0.0,-0.0504,-0.0813,-0.1711,-0.2113,-0.2359,-0.2272,-0.2157,-0.2041,-0.208,-0.1478,-0.072,-0.0,0.0783,0.1585,0.2748,0.3359,0.4097,0.4803,0.5939,0.7074,0.84,1.0633,1.2324,1.3453,1.4589,1.5479,1.6059,1.6326,1.6678,1.6966,1.7044,1.7225,1.7518,1.7579,1.7569,1.7297,1.7455,1.7186,1.6795,1.6795,1.6781,1.6696,1.67,1.6088,1.5054,1.4232,1.3766,1.3267,1.3172,1.2604,1.1884,0.0,3.0499,3.1173,3.1924,3.2151,3.2691,3.4112,3.3833,3.3624,3.412,0.0,0.0,0.0,0.0,0.0,0.0,0.0,3.0391,3.0024,2.9417,2.8821,2.8266,2.779,2.7189,2.6337,2.5342,2.4478,2.3628,2.309,2.2335,2.1459,2.1095,2.077,2.0578,1.9854,1.954,1.965,1.9231,1.9056,1.9146,1.9539,0.0,2.1111,2.1217,2.1481,2.1903,2.1541,2.1135,2.0478,1.9069,1.8501,0.0,1.6356,1.5569,1.4944,0.0,1.2168,1.1202,0.0,0.0,0.0,0.4986,0.352,0.0,0.0,0.01,-0.0597,-0.1295,-0.1873,-0.2081,-0.1662,-0.1965,-0.2141,-0.1719,-0.093,-0.0108,0.0694,0.1339,0.2158,0.3286,0.3887,0.4623,0.5902,0.704,0.8502,1.0281,1.2135,1.3543,1.4383,1.5377,1.6259,1.6977,1.7204,1.7629,1.8135,1.8105,1.8356,1.9051,1.863,1.847,1.8578,1.8087,1.7848,1.801,1.7829,1.7851,1.8192,1.7994,1.7733,1.7245,1.587,1.5244,1.5157,1.4496,1.3923,1.3387,0.0,0.0,3.1632,3.2131,3.245,3.3064,3.4298,3.4249,3.4185,0.0,0.0,0.0,0.0,0.0,0.0,0.0,0.0,3.0883,0.0,2.9914,2.9187,2.8821,2.8051,2.7441,2.7026,2.5761,2.466,2.3839,2.321,2.2444,2.1524,2.1339,2.1229,2.1152,2.0355,2.0194,2.0509,1.989,0.0,1.9841,0.0,2.0534,2.0555,2.1431,2.178,2.1795,2.1859,2.1573,2.1155,2.0002,1.9498,1.9076,1.7681,1.7018,0.0,0.0,0.0,0.0,0.0,0.0,0.0,0.0,0.0,0.3071,0.0,0.0,0.0,-0.0888,-0.1554,-0.1828,-0.1076,-0.1767,-0.2142,-0.1041,-0.019,0.0679,0.1632,0.2361,0.3259,0.3959,0.456,0.544,0.7008,0.8365,1.0181,1.227,1.3428,1.4463,1.531,1.6278,1.7133,1.7957,1.8306,1.8832,1.9532,1.9293,1.9644,2.0311,1.9519,1.9222,1.9609,1.8601,1.8531,1.9042,1.8716,1.8932,1.963,1.9253,1.9141,1.897,1.7436,1.686,1.6825,1.5784,1.5407,1.5061,3.2039,3.2195,0.0,3.2803,3.3087,3.355,3.4541,3.4216,3.3899,0.0,0.0,0.0,0.0,0.0,0.0,0.0,0.0,0.0,3.1138,0.0,2.9961,2.9505,2.9073,2.8435,2.7471,2.6559,2.5515,2.4247,2.3484,2.2798,2.2262,2.169,2.1422,2.153,2.077,2.0509,2.0665,2.0293,2.031,0.0,2.1281,2.0828,0.0,2.0848,2.1613,2.2096,2.2657,2.248,2.1937,2.1094,2.0133,1.9127,1.7865,1.7334,1.6594,1.4965,0.0,0.0,0.0,0.0,0.0,0.0,0.6298,0.5088,0.1961,0.0,0.0662,-0.0733,0.0,-0.144,-0.1232,0.0,0.0,-0.036,0.1024,0.1908,0.2116,0.3459,0.4442,0.438,0.5227,0.6323,0.7567,1.0022,1.2001,1.3095,1.4307,1.5576,1.6661,1.7464,1.832,1.8948,1.9382,1.981,2.0067,2.0312,2.0358,2.0517,2.0765,2.0577,1.9609,1.9634,1.9323,1.884,1.9015,1.9217,1.9437,1.9622,1.9701,1.9532,1.8592,1.8112,1.7974,1.7474,1.678,1.5636,3.1678,3.2157,0.0,0.0,3.3691,3.4206,3.491,3.523,3.5299,0.0,0.0,0.0,0.0,0.0,0.0,0.0,0.0,3.2975,0.0,0.0,0.0,3.0516,2.9435,2.8864,2.8844,2.7421,2.6237,2.5214,2.4304,2.3513,2.2665,2.1963,2.197,2.2407,2.1328,2.1309,2.1923,2.0867,2.0614,0.0,0.0,2.0481,1.9939,2.1828,2.2727,2.279,2.2556,2.2305,2.1937,2.1135,2.0389,1.9773,1.9114,1.8404,0.0,1.644,0.0,0.0,0.0,0.0,0.0,0.8262,0.7154,0.5959,0.3147,0.2,0.1309,0.0744,0.0,0.0,0.0,0.0,0.0,0.0,0.2118,0.3179,0.3316,0.4685,0.5546,0.526,0.6221,0.7774,1.0044,1.1989,1.3386,1.439,1.5474,1.6583,1.7438,1.8571,1.9502,1.987,2.0286,2.0703,2.0955,2.1057,2.1357,2.1552,2.1545,2.1222,2.0935,2.0304,2.024,2.039,2.0308,2.029,2.0505,2.0702,2.0602,2.0262,2.0091,1.9587,1.9038,1.8311,1.7581,1.6736,3.1689,0.0,0.0,0.0,3.4058,3.4653,3.5262,3.5761,0.0,0.0,0.0,0.0,3.5933,3.5398,0.0,0.0,3.4843,3.4237,0.0,0.0,3.1903,0.0,0.0,0.0,3.0069,2.8526,2.7087,2.5959,2.5301,2.4397,2.329,2.2615,2.2686,2.3323,2.1901,2.1849,2.2709,0.0,2.0915,2.1186,2.1174,2.1083,2.1278,2.2622,2.3243,2.3458,2.2707,2.2335,2.2075,2.1355,2.0645,2.0169,1.984,1.9113,1.8302,0.0,0.0,0.0,1.3719,1.2869,1.1655,0.9035,0.7859,0.6562,0.4006,0.2833,0.2321,0.2263,0.1576,0.0,0.0,0.0,0.0,0.0,0.0,0.5156,0.5022,0.6247,0.6868,0.6278,0.7629,0.9661,1.2365,1.3709,1.4844,1.5806,1.6902,1.7741,1.8752,1.9893,2.0723,2.1175,2.151,2.1733,2.1976,2.2142,2.2292,2.2403,2.2335,2.2201,2.1868,2.1094,2.108,2.1618,2.1154,2.1136,2.1363,2.1629,2.1566,2.1231,2.1452,2.1067,2.0261,1.9124,1.8403,1.7678,3.3118,3.3463,0.0,0.0,0.0,3.4843,3.5307,0.0,0.0,0.0,0.0,0.0,0.0,0.0,0.0,0.0,0.0,3.505,3.4799,0.0,3.3338,0.0,0.0,3.1216,0.0,2.9792,2.8296,2.6202,2.6243,2.5581,2.4336,2.3717,2.3668,2.3931,2.2385,2.1847,2.208,2.1628,2.1341,2.1269,2.2288,2.3341,2.4227,2.2611,2.2557,2.3526,2.3592,2.311,2.2515,2.2133,2.1236,2.0219,1.9569,1.8915,1.8272,1.7453,1.6918,1.6486,1.5562,1.4624,1.3197,1.0038,0.8744,0.7384,0.4051,0.3882,0.4242,0.3236,0.2997,0.3411,0.4849,0.0,0.0,0.0,0.0,0.0,0.0,0.8325,0.8804,0.7282,0.9719,1.2233,1.4063,1.5267,1.6327,1.7477,1.8207,1.9243,2.0762,2.1348,2.223,2.3147,2.308,2.3126,2.3482,2.3591,2.3554,2.3056,2.3692,2.3423,2.2124,2.2034,2.1779,2.1521,2.1394,2.1433,2.1666,2.2111,2.2293,2.2313,2.2546,2.2278,2.1733,2.0241,1.9048,1.8231,0.0,0.0,0.0,0.0,0.0,0.0,0.0,3.6253,0.0,0.0,0.0,0.0,0.0,3.8063,3.7828,0.0,0.0,3.7507,3.6693,3.5751,0.0,0.0,0.0,3.2807,0.0,3.1316,2.9545,2.7865,2.7113,2.6123,2.4987,2.3979,2.3498,2.3393,2.2228,2.1776,0.0,0.0,0.0,2.1446,2.1949,2.3141,2.4421,2.3696,2.3718,2.4072,2.3937,2.3515,2.2841,2.255,2.1575,2.0554,2.0082,1.9273,1.8401,1.8168,1.7616,1.7005,1.6685,1.5881,1.4668,1.2375,1.0544,0.8678,0.5903,0.5578,0.5408,0.4002,0.4775,0.5666,0.5422,0.0,0.0,0.0,0.0,0.0,0.0,1.0657,1.2348,1.3176,1.364,1.4435,1.5972,1.6963,1.7936,1.8977,1.9864,2.0742,2.1466,2.2506,2.3155,2.3304,2.3638,2.3882,2.4018,2.4182,2.4168,2.3998,2.4346,2.4111,2.3178,2.3096,2.2954,2.3021,2.2928,2.275,2.2305,2.261,2.2381,2.1868,2.1741,2.1659,2.1326,2.0502,1.9445,1.8272,3.5439,0.0,0.0,0.0,0.0,0.0,0.0,0.0,0.0,0.0,3.7838,0.0,3.9141,0.0,3.8987,0.0,3.8939,3.8677,3.8014,3.7147,0.0,3.7366,3.5574,0.0,0.0,0.0,3.1337,2.9422,2.849,2.738,2.6078,2.4734,2.3953,2.3708,2.2321,2.1745,2.1714,2.1456,2.1432,2.1556,2.2189,2.3286,2.4471,2.4471,2.4404,2.4203,2.3969,2.3513,2.3001,2.2601,2.1846,2.1032,2.0545,1.9781,1.8924,1.9011,1.8398,1.7591,1.7378,1.6721,1.5684,1.3636,1.2093,1.028,0.7712,0.7328,0.7285,0.581,0.6679,0.7594,0.7401,0.0,0.0,0.0,0.0,0.0,0.0,1.3503,1.5502,1.7231,1.6608,1.6693,1.8241,1.8973,1.9717,2.0816,2.1705,2.2316,2.2622,2.3729,2.4332,2.4283,2.4635,2.4756,2.5068,2.487,2.4796,2.4903,2.4775,2.4532,2.4194,2.3828,2.3702,2.3797,2.3712,2.345,2.3093,2.3151,2.277,2.235,2.1878,2.1611,2.1472,2.0463,1.9236,1.79,3.5296,3.5025,0.0,0.0,3.5296,0.0,0.0,0.0,3.6962,0.0,3.7829,3.852,3.8935,3.902,3.9204,3.9756,3.9064,3.8653,3.8653,3.8229,0.0,0.0,3.7507,3.681,3.622,0.0,0.0,3.0856,3.0377,2.9225,2.7575,2.5884,2.5018,2.4682,2.2741,2.1838,2.187,2.1762,2.167,2.169,2.2982,2.3815,2.4338,2.488,2.4545,2.3825,2.3632,2.3299,2.2983,2.2394,2.192,2.1642,2.0939,2.0275,1.9809,1.9809,1.926,1.8385,1.7888,1.7275,1.6319,1.4079,1.3243,1.2314,0.9364,0.9389,0.9715,0.8612,0.8811,0.9494,1.0597,1.0307,0.0,0.0,0.0,0.0,0.0,1.6732,1.8181,1.9444,1.892,1.9107,2.082,2.132,2.1934,2.2963,2.3541,2.3925,2.4224,2.5058,2.5786,2.627,2.5789,2.5798,2.6588,2.5761,2.557,2.5744,2.5337,2.5046,2.4853,2.4377,2.4037,2.384,2.3608,2.3526,2.3675,2.3403,2.3476,2.3534,2.2903,2.2286,2.176,2.0327,1.8647,1.6949,3.4511,3.5254,3.5809,0.0,3.6105,3.6468,3.714,0.0,0.0,0.0,3.9123,3.9787,4.0419,4.0671,4.0629,4.0189,4.0344,0.0,0.0,0.0,0.0,3.9816,3.8726,3.7975,3.7673,3.5654,3.4203,3.332,3.1162,2.9789,2.9167,2.6852,2.5365,2.4607,2.3152,2.2138,2.1596,2.2199,2.2577,2.2907,2.3168,2.373,2.4266,2.4481,2.4333,2.4141,2.4121,2.3829,2.3326,2.2983,2.2528,2.1895,2.132,2.0802,2.0371,2.027,1.9818,1.9456,1.9261,1.8631,1.7754,1.6782,1.5291,1.3713,1.2162,1.2174,1.2043,1.0529,1.1692,1.2699,1.1816,1.2093,1.257,0.0,0.0,0.0,0.0,1.8583,2.0096,2.1767,2.2451,2.2757,2.265,2.3506,2.4216,2.4694,2.5378,2.5643,2.545,2.6187,2.6691,2.6757,2.6662,2.6744,2.7279,2.6548,2.616,2.5982,2.6242,2.5968,2.5012,2.508,2.4843,2.434,2.4295,2.3968,2.3645,2.339,2.3303,2.3027,2.1901,2.0801,1.9906,1.9346,1.8091,1.6772,3.3928,3.5413,0.0,3.6036,3.688,3.7685,3.7818,3.793,0.0,3.8424,3.9401,0.0,4.0151,4.057,4.0777,4.057,4.0495,0.0,4.0239,0.0,0.0,4.0209,3.9676,3.9144,3.8587,3.6823,0.0,3.4481,3.199,3.0254,2.9384,2.7013,2.5448,2.4532,2.3352,2.2476,2.1926,2.2491,2.3123,2.3626,2.3653,2.3988,0.0,2.4666,2.4607,2.4489,2.4437,2.4066,2.3488,2.2956,2.2601,2.2199,2.1609,2.1097,2.0771,2.0931,2.0402,1.9808,2.0033,1.9458,1.8741,1.8171,1.6897,1.5639,1.4355,1.4117,1.3934,1.284,1.3442,1.414,1.3936,1.3931,1.4251,0.0,0.0,0.0,0.0,2.0352,2.1803,2.3438,2.497,2.5802,2.5711,2.5928,2.6195,2.6667,2.7172,2.7236,2.6722,2.7394,2.7752,2.7568,2.7488,2.7661,2.7855,2.7117,2.6823,2.6725,2.6379,2.5997,2.5422,2.5458,2.5059,2.4622,2.4414,2.4184,2.392,2.3248,2.3019,2.3011,2.1325,2.0104,1.8921,1.8506,1.7654,1.6595,3.353,3.543,0.0,0.0,0.0,3.8645,3.8514,3.8607,3.8517,3.8085,3.9391,4.0071,3.9333,3.9849,4.0391,4.0781,4.0233,3.9929,4.0178,4.0187,4.0122,4.0039,4.0236,3.9976,3.9137,3.7997,3.6687,3.5138,3.2836,3.0823,2.9038,2.6906,2.5501,2.451,2.3452,2.2822,2.2614,2.2882,2.3362,2.4082,2.4185,2.4469,2.5001,2.5102,2.5043,2.4981,2.4792,2.4217,2.3536,2.283,2.2688,2.2558,2.1927,2.1345,2.0944,2.1556,2.0827,1.9977,2.0243,1.9918,1.9386,1.8766,1.8156,1.745,1.6118,1.5627,1.5419,1.5117,1.4844,1.4944,1.6177,1.5774,1.5627,0.0,0.0,1.9519,2.1076,2.2213,2.3479,2.4967,2.6913,0.0,2.895,2.8361,2.8092,2.8539,2.8999,2.8842,2.7875,2.8524,2.8786,2.8531,2.8236,2.8272,2.8535,2.7582,2.718,2.7451,2.6249,2.5769,2.5974,2.5478,2.5011,2.4449,2.4276,2.4196,2.4013,2.2957,2.2633,2.2754,2.1118,1.99,1.8705,1.7673,1.7006,1.6194,3.3208,0.0,0.0,0.0,3.6613,3.7916,3.8913,3.9451,3.9628,3.9213,4.0155,4.0679,4.0398,4.0542,4.0504,4.0323,4.0257,3.9979,3.9382,3.9929,4.0094,3.9536,3.9719,3.9645,3.9244,3.8043,3.7094,3.628,3.3719,3.1702,3.0065,2.7801,2.6143,2.5022,2.3954,2.3356,2.3245,2.3538,2.395,2.4601,2.5078,2.5243,2.5235,2.5488,2.539,2.5258,2.5227,2.4753,2.4094,2.3382,2.3173,2.3113,2.2828,2.2166,2.1729,2.1933,2.1227,2.0479,2.0647,2.0376,1.9946,1.9306,1.9085,1.873,1.7463,1.7187,1.7081,1.6778,1.7016,1.7235,1.7049,1.75,1.8096,1.8769,1.9996,2.1569,2.3385,2.4341,2.5428,2.7317,2.8778,2.987,3.0568,3.064,3.0388,2.9777,3.0198,3.0049,2.8951,2.919,2.9399,2.9351,2.8542,2.8407,2.9194,2.7782,2.7044,2.7164,2.6925,2.6599,2.6067,2.5855,2.5422,2.4566,2.413,2.3529,2.2887,2.2403,2.19,2.12,2.0396,1.9475,1.8488,1.6787,1.5809,1.5376,3.3939,0.0,0.0,0.0,3.65,3.7615,3.8839,3.9529,3.9744,3.95,4.0118,4.05,4.0385,4.0475,4.0578,4.0659,4.0355,3.9964,3.9618,3.9584,3.9548,3.9564,3.9474,3.9344,3.9292,3.8249,3.7196,3.6144,3.4146,3.2071,2.9903,2.8383,2.7013,2.5712,2.4849,2.439,2.4294,2.4526,2.4897,2.5464,2.5748,2.5921,2.6147,2.5936,2.5737,2.5544,2.534,2.4999,2.452,2.3883,2.351,2.3187,2.3062,2.2387,2.1755,2.2417,2.1505,2.0554,2.1018,2.0618,1.988,1.9599,1.9462,1.9118,1.8218,1.8126,1.8194,1.7833,1.8331,1.8654,1.8805,1.951,2.0269,2.0851,2.1947,2.3286,2.5062,2.5939,2.7069,2.8891,3.0096,3.1023,3.1698,3.2227,3.2072,3.0924,3.1087,3.0792,2.9745,3.0013,2.9874,2.9268,2.8921,2.8828,2.9049,2.8048,2.7522,2.7654,2.7036,2.6572,2.6145,2.5557,2.5087,2.4685,2.3823,2.3292,2.3125,2.2292,2.1249,2.013,1.9915,1.9037,1.7811,1.6566,1.5593,1.4953,3.4693,3.5118,0.0,3.5852,3.6517,3.7456,3.866,3.9168,3.9456,3.9563,3.9997,4.0153,3.9972,4.0214,4.0498,4.0778,4.0339,3.9938,3.9862,3.9226,3.8939,3.9311,3.9116,3.9074,3.9102,3.8512,3.7375,3.5818,3.4418,3.232,2.9592,2.8795,2.7632,2.6136,2.5724,2.5411,2.5242,2.5532,2.5994,2.6506,2.6498,2.6683,2.6989,2.6536,2.6232,2.5948,2.5547,2.5145,2.4905,2.4471,2.3861,2.3368,2.3419,2.2606,2.1861,2.2814,2.1885,2.0696,2.1526,2.09,2.0033,2.0091,1.9843,1.9439,1.8837,1.8865,1.9028,1.8787,1.9255,1.9964,2.0394,2.1241,2.2128,2.2669,2.3654,2.4935,2.6425,2.7409,2.8644,3.0278,3.1198,3.2034,3.2694,3.3365,3.3246,3.2105,3.1947,3.1551,3.0683,3.0725,3.0271,2.9441,2.9409,2.9157,2.8875,2.8294,2.7955,2.806,2.711,2.6456,2.6052,2.529,2.4929,2.4734,2.3484,2.3053,2.3113,2.1939,2.0776,1.9732,1.9244,1.839,1.7258,1.6246,1.5324,1.4543,3.4603,0.0,3.6392,3.5645,3.6202,3.7165,3.8432,3.8573,3.8939,4.0065,4.0154,3.9998,3.9658,4.0086,4.0254,3.9924,4.0101,3.991,3.9252,3.8964,3.8567,3.8074,3.8504,3.871,3.8505,3.855,3.7819,3.6275,3.4767,3.2635,2.9912,2.8984,2.7504,2.5688,2.6089,2.5906,2.5326,2.6453,2.7117,2.7352,2.7413,2.7511,2.7526,2.7262,2.6778,2.6267,2.6168,2.5667,2.508,2.4979,2.4488,2.3841,2.3983,2.3272,2.2502,2.3079,2.2344,2.1396,2.19,2.1258,2.0624,2.0937,2.0567,1.999,1.9699,1.9607,1.9633,1.9604,2.0544,2.1274,2.1206,2.2507,2.3628,2.3712,2.4885,2.6441,2.8032,2.9011,3.0217,3.192,3.2559,3.3161,3.386,3.3729,3.3624,3.3487,3.2946,3.2496,3.2306,3.1334,3.0695,3.0598,2.967,2.9077,2.8879,2.8314,2.7985,2.7953,2.7349,2.6668,2.6005,2.5323,2.4868,2.4734,2.3484,2.246,2.1578,2.0682,2.0216,1.9813,1.8227,1.7445,1.7145,1.5089,1.4231,1.369,3.6353,3.6464,3.6602,3.6735,3.697,3.7396,3.8242,3.8606,3.9064,3.9851,3.9935,3.9945,3.9916,3.9838,3.9762,3.9596,3.9256,3.8918,3.871,3.815,3.7892,3.8116,3.8256,3.8471,3.8596,3.8905,3.8162,3.6273,3.5385,3.3485,3.0922,3.0164,2.913,2.7848,2.7945,2.7738,2.7311,2.8139,2.8521,2.868,2.8637,2.8679,2.8653,2.7998,2.7723,2.7631,2.7061,2.6823,2.668,2.5925,2.4876,2.3895,2.4417,2.365,2.2656,2.3567,2.2848,2.1755,2.1913,2.1402,2.0861,2.0693,2.0654,2.0633,2.0126,2.0461,2.0813,2.0617,2.1324,2.2136,2.2639,2.3865,2.5114,2.5879,2.6968,2.81,2.9505,3.0283,3.1294,3.2882,3.33,3.3783,3.4713,3.4426,3.4258,3.4692,3.3477,3.2464,3.1955,3.1655,3.1023,3.0097,3.0101,2.9721,2.9036,2.872,2.8427,2.8093,2.7399,2.6594,2.5802,2.5242,2.4531,2.3754,2.2904,2.2066,2.1208,2.0288,1.958,1.908,1.796,1.7226,1.6616,1.4828,1.3946,1.3353,3.7545,3.7144,3.6981,3.7575,3.7679,3.782,3.8342,3.8744,3.9109,3.9577,3.9625,3.9668,3.9621,3.939,3.9248,3.9155,3.8549,3.8226,3.8192,3.7664,3.7428,3.7707,3.7917,3.8034,3.8136,3.8553,3.8081,3.6458,3.5785,3.4313,3.2087,3.1162,3.0276,2.9464,2.9476,2.9218,2.88,2.9524,2.9788,2.9748,2.973,2.9792,2.976,2.8817,2.8473,2.8508,2.7883,2.7737,2.7683,2.6883,2.5733,2.4709,2.479,2.4061,2.3286,2.4104,2.347,2.2606,2.2543,2.2129,2.1511,2.1264,2.1322,2.1395,2.1124,2.1557,2.1947,2.1712,2.236,2.3161,2.3788,2.499,2.6231,2.7282,2.8235,2.9332,3.0435,3.1182,3.2109,3.3408,3.3644,3.4199,3.5216,3.4896,3.4849,3.5425,3.4183,3.3219,3.2631,3.215,3.1483,3.0606,3.0787,3.0378,2.9359,2.9181,2.8862,2.8329,2.7322,2.652,2.573,2.5061,2.398,2.2808,2.245,2.1702,2.0843,1.9788,1.9041,1.8321,1.7464,1.6771,1.6026,1.4657,1.3641,1.2874,3.7483,3.7677,3.7821,3.7963,3.8103,3.8342,3.8851,3.8789,3.8891,3.9454,3.9202,3.8931,3.8655,3.8818,3.8702,3.8246,3.8206,3.808,3.7707,3.7612,3.7215,3.6653,3.7288,3.737,3.6935,3.7483,3.743,3.6791,3.5976,3.4826,3.3483,3.1707,3.0511,2.9818,3.0413,3.0136,2.9276,3.0159,3.0642,3.0695,3.0543,3.0572,3.0487,2.9715,2.898,2.8416,2.8625,2.8216,2.7615,2.7843,2.7382,2.6507,2.5163,2.4637,2.4692,2.4489,2.4298,2.4175,2.4127,2.3527,2.2996,2.3389,2.2958,2.2577,2.2927,2.2942,2.2933,2.2897,2.3651,2.4343,2.4474,2.5761,2.691,2.7458,2.8593,2.9623,3.048,3.1669,3.2746,3.3514,3.3784,3.4354,3.5437,3.5008,3.49,3.5575,3.5298,3.5138,3.5251,3.3093,3.2143,3.2943,3.1746,3.0782,3.0046,2.9766,2.9291,2.854,2.7419,2.6593,2.602,2.4569,2.3256,2.2199,2.2061,2.1306,2.0161,1.9144,1.8425,1.7859,1.6441,1.5613,1.5177,1.4145,1.3071,1.1924,3.7669,3.8214,3.8587,3.8371,3.8807,3.9076,3.8673,3.8942,3.9191,3.9135,3.8887,3.8635,3.8254,3.8168,3.7884,3.7371,3.6812,3.6501,3.6619,3.6241,3.6201,3.6625,3.6838,3.6927,3.6907,3.7223,3.6844,3.5779,3.5115,3.3835,3.1965,3.1236,3.0826,3.0662,3.0957,3.083,3.0522,3.1602,3.188,3.1625,3.16,3.1574,3.1448,3.0777,3.0285,3.0094,2.9781,2.9589,2.9266,2.8684,2.8146,2.757,2.631,2.5618,2.5339,2.513,2.5126,2.4987,2.4314,2.4153,2.4042,2.3702,2.3478,2.3393,2.3508,2.3751,2.3944,2.3938,2.4648,2.5357,2.5559,2.6817,2.8094,2.8735,2.9845,3.0917,3.1495,3.2433,3.3149,3.3747,3.4463,3.5218,3.6068,3.6008,3.6213,3.6569,3.5736,3.5009,3.4499,3.3621,3.2898,3.2441,3.2117,3.1547,3.0555,3.0338,2.9737,2.8967,2.7958,2.6672,2.5312,2.3981,2.3217,2.2859,2.1659,2.0686,2.015,1.8706,1.7976,1.739,1.6129,1.5492,1.5152,1.3695,1.2594,1.1791,3.8226,3.8537,3.8874,3.883,3.909,3.911,3.8593,3.8877,3.8983,3.8733,3.8469,3.8246,3.7854,3.7535,3.721,3.6876,3.607,3.5674,3.5763,3.5488,3.5495,3.5968,3.6115,3.6184,3.625,3.6434,3.6082,3.526,3.4555,3.3318,3.168,3.1497,3.1215,3.0787,3.1317,3.1334,3.1136,3.2354,3.2691,3.2444,3.2852,3.2872,3.2671,3.2268,3.1896,3.1623,3.1084,3.0926,3.082,2.9829,2.9321,2.8815,2.7744,2.7061,2.6641,2.6012,2.6064,2.6133,2.5344,2.5344,2.5343,2.4683,2.459,2.4671,2.4562,2.4751,2.5034,2.5034,2.5679,2.6373,2.6866,2.7975,2.9005,3.0023,3.0853,3.1598,3.2185,3.278,3.3288,3.3611,3.4603,3.5392,3.5748,3.6358,3.6839,3.7016,3.6592,3.595,3.5122,3.4345,3.3643,3.3007,3.2807,3.2291,3.1404,3.0917,3.0287,2.9347,2.7884,2.6468,2.5246,2.3873,2.3178,2.2887,2.1526,2.0605,2.0014,1.8592,1.7786,1.729,1.5922,1.5285,1.4951,1.3522,1.2409,1.1568,3.89,3.8811,3.8769,3.9082,3.8764,3.8455,3.8455,3.8511,3.8399,3.8059,3.7886,3.7653,3.7358,3.6876,3.66,3.66,3.5876,3.5359,3.5169,3.5224,3.5119,3.4754,3.5097,3.5201,3.5077,3.5107,3.5096,3.5148,3.4147,3.3233,3.2302,3.2253,3.1541,3.0385,3.1546,3.1637,3.1052,3.2525,3.3234,3.3338,3.4221,3.431,3.3922,3.4057,3.3611,3.2864,3.2394,3.2126,3.2052,3.1142,3.0614,3.01,2.9197,2.8844,2.8407,2.7094,2.7094,2.7314,2.6881,2.6881,2.6772,2.6008,2.6008,2.6026,2.5824,2.5952,2.6172,2.6172,2.6737,2.7394,2.8301,2.9035,2.9868,3.1059,3.1398,3.1847,3.2559,3.2983,3.3221,3.3241,3.4352,3.5044,3.4791,3.6223,3.7143,3.7041,3.765,3.765,3.6709,3.5021,3.427,3.452,3.3671,3.2915,3.242,3.1629,3.0727,2.9687,2.75,2.6236,2.5578,2.427,2.3199,2.2452,2.17,2.0793,1.9699,1.8468,1.7791,1.7188,1.5812,1.5171,1.4617,1.3621,1.2501,1.1314,3.833,3.902,3.9226,3.7499,3.762,3.7834,3.7389,3.7381,3.735,3.7087,3.7032,3.6817,3.6507,3.6133,3.5752,3.5365,3.5133,3.4935,3.4601,3.4369,3.4311,3.434,3.4112,3.4169,3.4419,3.396,3.3579,3.333,3.2413,3.1539,3.0676,3.0272,2.9832,2.945,3.0438,3.1028,3.1314,3.2396,3.3183,3.3695,3.4262,3.4484,3.441,3.4488,3.4114,3.3494,3.3167,3.2771,3.2345,3.1289,3.0683,3.0147,2.911,2.8828,2.8728,2.7804,2.7826,2.796,2.7638,2.7314,2.6989,2.6989,2.6772,2.6409,2.6163,2.6346,2.668,2.692,2.7716,2.8312,2.8435,2.942,3.0449,3.088,3.178,3.2425,3.2707,3.3379,3.3731,3.3768,3.4969,3.5864,3.5855,3.719,3.7791,3.701,3.7556,3.7349,3.6033,3.5629,3.5108,3.4377,3.3577,3.3036,3.2768,3.1936,3.0895,2.9799,2.8108,2.6924,2.6189,2.4734,2.3547,2.2836,2.1603,2.0605,1.9971,1.889,1.8069,1.759,1.651,1.5632,1.5044,1.3929,1.255,1.1314,3.8139,3.8942,3.9355,3.7903,3.737,3.7014,3.6812,3.6752,3.6536,3.6039,3.594,3.5872,3.5623,3.527,3.4971,3.4572,3.4505,3.4399,3.4059,3.3716,3.3438,3.339,3.323,3.3171,3.3224,3.3005,3.2508,3.192,3.093,3.0067,2.9375,2.9011,2.8601,2.8321,2.9091,2.9903,3.0721,3.166,3.2675,3.3649,3.4328,3.4881,3.5185,3.5315,3.5253,3.4829,3.4068,3.3765,3.3387,3.1854,3.1129,3.0778,2.9626,2.9428,2.9423,2.8707,2.8634,2.8601,2.8388,2.8067,2.7745,2.7422,2.7247,2.7013,2.677,2.7082,2.7435,2.7678,2.8183,2.8785,2.9196,2.9819,3.0538,3.1096,3.1605,3.1912,3.2192,3.2746,3.3116,3.3268,3.4628,3.5598,3.5524,3.6971,3.7682,3.7169,3.7692,3.7668,3.6577,3.6329,3.5667,3.4503,3.3886,3.3487,3.3092,3.2053,3.119,3.0478,2.8897,2.7777,2.7159,2.5562,2.4316,2.3495,2.2229,2.1201,2.0293,1.9475,1.8594,1.7854,1.6836,1.596,1.5336,1.4194,1.2947,1.1557,3.8202,3.8723,3.9119,3.8943,3.7559,3.6537,3.6484,3.6365,3.5933,3.5082,3.4994,3.4898,3.4677,3.4341,3.407,3.3865,3.3825,3.3687,3.3479,3.3058,3.2704,3.2345,3.2395,3.2342,3.199,3.2051,3.167,3.0673,2.9697,2.8928,2.8132,2.7917,2.7568,2.7041,2.7679,2.8451,2.9473,3.0524,3.1786,3.3139,3.4126,3.5011,3.5703,3.6071,3.6294,3.6157,3.5055,3.4726,3.4582,3.2648,3.1941,3.1777,3.0443,3.0237,3.0221,2.9706,2.9515,2.9237,2.89,2.8814,2.8534,2.7714,2.7582,2.766,2.7437,2.7844,2.8199,2.8313,2.8482,2.8956,2.9928,3.0254,3.0616,3.1349,3.136,3.1296,3.1598,3.1895,3.2264,3.2602,3.4162,3.507,3.4889,3.6255,3.722,3.7116,3.7691,3.7976,3.7515,3.702,3.6161,3.4988,3.4388,3.3814,3.3284,3.2323,3.1613,3.1313,2.9805,2.8737,2.8122,2.6399,2.5194,2.4224,2.3106,2.1892,2.0656,2.0145,1.9329,1.8226,1.7347,1.6452,1.5603,1.4474,1.3333,1.218,3.8202,3.8277,3.8352,3.8352,3.7924,3.7267,3.6298,3.6086,3.5597,3.4611,3.4356,3.4157,3.3813,3.3339,3.2988,3.2917,3.2632,3.2561,3.2846,3.2489,3.2128,3.1963,3.1649,3.1465,3.1345,3.0778,3.0097,2.9417,2.8588,2.7912,2.7208,2.6779,2.6346,2.5865,2.6737,2.7248,2.748,2.8876,3.0138,3.1382,3.2635,3.3769,3.4847,3.5647,3.5805,3.5604,3.5515,3.5355,3.4921,3.3528,3.2955,3.2476,3.1202,3.0798,3.07,3.04,3.0381,3.0412,2.9659,2.9132,2.8593,2.8404,2.81,2.7995,2.848,2.8223,2.8046,2.8626,2.8787,2.9189,2.97,3.0392,3.0856,3.1184,3.1543,3.1835,3.1847,3.2093,3.2627,3.3356,3.4234,3.5097,3.5655,3.6602,3.7002,3.6788,3.7109,3.7133,3.6811,3.6853,3.6573,3.615,3.4762,3.3777,3.3173,3.3226,3.2857,3.2253,3.0684,2.968,2.9076,2.7021,2.5562,2.4826,2.3604,2.2539,2.1692,2.0938,2.0148,1.9324,1.8476,1.7439,1.6452,1.5186,1.4039,1.2745,3.8127,3.8202,3.8052,3.7596,3.7443,3.7175,3.6626,3.6276,3.5647,3.4446,3.4112,3.379,3.3329,3.2809,3.2481,3.2255,3.179,3.1569,3.1763,3.169,3.1569,3.1299,3.1075,3.0778,3.0398,2.9383,2.868,2.8395,2.7302,2.655,2.6021,2.553,2.5225,2.5036,2.5201,2.5695,2.6504,2.6974,2.8139,2.9628,3.0778,3.2093,3.3522,3.4198,3.4595,3.4869,3.4637,3.4454,3.4241,3.3197,3.2651,3.2317,3.144,3.1127,3.1108,3.0808,3.0649,3.0516,2.9994,2.9343,2.8874,2.8535,2.8377,2.837,2.8406,2.8388,2.8346,2.8582,2.8747,2.882,2.9325,2.9906,3.0374,3.0636,3.0833,3.0941,3.1021,3.146,3.1979,3.2472,3.357,3.4392,3.4939,3.5663,3.6112,3.5972,3.631,3.6438,3.6256,3.6297,3.625,3.6119,3.5081,3.429,3.3794,3.3759,3.3334,3.2559,3.1572,3.0529,2.9667,2.8122,2.6796,2.5823,2.4456,2.3304,2.2229,2.166,2.073,1.9681,1.9392,1.8422,1.7147,1.6037,1.4759,1.3325,3.7825,3.7901,3.7749,3.7134,3.6822,3.6665,3.6665,3.6377,3.5596,3.4376,3.4008,3.3557,3.2804,3.2346,3.1982,3.1649,3.1123,3.0823,3.0773,3.0898,3.0823,3.0546,3.0266,2.9804,2.9238,2.8066,2.7417,2.7302,2.625,2.5464,2.5041,2.4529,2.4283,2.4255,2.3839,2.4323,2.5296,2.5295,2.6237,2.7805,2.8797,3.0312,3.1942,3.2568,3.322,3.3801,3.3582,3.3353,3.3191,3.2724,3.2297,3.2034,3.1689,3.1493,3.1384,3.1162,3.0815,3.0495,3.0308,2.9659,2.9046,2.8739,2.8507,2.8446,2.8314,2.8333,2.8271,2.8372,2.8325,2.8517,2.8856,2.945,2.9906,3.0198,3.0115,3.0174,3.0367,3.0937,3.1377,3.1693,3.2771,3.3704,3.4032,3.4709,3.5241,3.5224,3.5625,3.5781,3.573,3.5779,3.5787,3.5787,3.5304,3.4713,3.4207,3.4053,3.3504,3.2727,3.2064,3.1092,2.9922,2.8838,2.7762,2.6692,2.5439,2.4085,2.2914,2.2373,2.1317,2.0063,2.0036,1.9122,1.757,1.5744,1.4474,1.3468,3.7056,3.7056,3.7056,3.6978,3.635,3.579,3.579,3.579,3.5332,3.4313,3.3832,3.3171,3.2044,3.1526,3.1139,3.0825,3.0596,3.0292,2.9934,2.9856,3.0011,3.0164,2.9048,2.8305,2.7938,2.6966,2.6346,2.6034,2.5486,2.5041,2.4529,2.41,2.3774,2.3573,2.3485,2.3287,2.3086,2.39,2.4771,2.5651,2.6735,2.835,3.0144,3.1128,3.1854,3.2289,3.279,3.2676,3.2299,3.2476,3.2345,3.212,3.1973,3.1927,3.1869,3.1666,3.1403,3.1116,3.0827,2.9973,2.9232,2.9547,2.8816,2.8179,2.8577,2.8113,2.7605,2.784,2.8009,2.8259,2.8856,2.9331,2.9672,3.0083,3.0195,3.032,3.077,3.1038,3.1402,3.1948,3.2738,3.3394,3.3599,3.4566,3.4993,3.4624,3.5041,3.5332,3.54,3.5443,3.5421,3.5421,3.5404,3.4916,3.3857,3.4229,3.3888,3.2758,3.1747,3.0956,3.0274,2.8719,2.7762,2.7401,2.605,2.4964,2.3913,2.315,2.1964,2.0718,2.0598,1.9541,1.7439,1.3468,1.2466,1.2745,3.69,3.6978,3.6822,3.627,3.5467,3.4977,3.5304,3.5059,3.4733,3.4357,3.3918,3.3148,3.1909,3.1487,3.0947,3.0113,3.0062,2.9908,2.9599,2.9521,2.9443,2.9263,2.8699,2.8124,2.7406,2.6816,2.6184,2.5738,2.5041,2.4615,2.4292,2.3841,2.3493,2.3232,2.3055,2.2948,2.2813,2.2967,2.3448,2.4257,2.5155,2.639,2.773,2.9056,2.9873,3.0422,3.1042,3.0974,3.0812,3.1349,3.133,3.1292,3.1772,3.1913,3.171,3.1629,3.1424,3.1116,3.0827,3.0203,2.9615,2.946,2.8839,2.8325,2.8236,2.8008,2.7786,2.7903,2.811,2.8397,2.8636,2.9094,2.963,2.9947,3.018,3.029,3.0678,3.0974,3.1279,3.1442,3.2158,3.2726,3.2778,3.356,3.3989,3.3727,3.4133,3.4311,3.4311,3.4267,3.4246,3.4246,3.4072,3.3874,3.3673,3.3733,3.314,3.2133,3.1536,3.0859,3.0039,2.9094,2.8259,2.7401,2.6432,2.521,2.4037,2.3551,2.2359,2.0851,2.0735,1.9541,1.7429,1.4181,1.2323,1.1168,3.6508,3.6665,3.6536,3.5629,3.4895,3.4564,3.5003,3.4564,3.4314,3.4314,3.381,3.3115,3.1902,3.1555,3.0941,2.9845,2.977,2.9642,2.9287,2.9106,2.8949,2.8736,2.8354,2.7853,2.7103,2.6453,2.5876,2.538,2.4615,2.41,2.3841,2.3493,2.3232,2.2882,2.2706,2.2618,2.253,2.2353,2.2599,2.3232,2.3987,2.4836,2.5873,2.737,2.8184,2.8696,2.9465,2.9555,2.9527,3.0319,3.0361,3.0362,3.1323,3.1527,3.13,3.1149,3.1003,3.0799,3.049,3.0181,2.9808,2.9197,2.8731,2.8295,2.7967,2.7715,2.7676,2.7687,2.8048,2.8372,2.8498,2.8975,2.945,2.9686,2.9928,3.0199,3.0525,3.0869,3.1097,3.1003,3.1721,3.2133,3.1883,3.2636,3.3066,3.2955,3.3235,3.3235,3.2993,3.3156,3.3135,3.2797,3.2571,3.2406,3.2436,3.2571,3.2113,3.1208,3.0743,3.0157,2.9331,2.8737,2.8002,2.7039,2.6189,2.5087,2.3773,2.3178,2.2015,2.0572,2.0191,1.9022,1.7137,1.4514,1.2408,1.0599,3.571,3.5978,3.5978,3.5249,3.4729,3.4481,3.4839,3.4424,3.4004,3.4089,3.3496,3.2782,3.1953,3.1649,3.1038,2.9959,2.9942,2.9616,2.884,2.8578,2.8522,2.8522,2.7758,2.7261,2.688,2.5895,2.5218,2.4871,2.4186,2.358,2.3144,2.3144,2.2882,2.2441,2.2441,2.2264,2.2106,2.2106,2.2176,2.2441,2.3232,2.3927,2.4593,2.6025,2.687,2.7451,2.8364,2.856,2.8545,2.9473,2.9599,2.9572,3.053,3.0827,3.0742,3.0274,3.0125,3.0024,2.98,2.9698,2.9599,2.9221,2.8708,2.8194,2.753,2.7196,2.7158,2.7236,2.7633,2.803,2.8444,2.8755,2.9094,2.9431,2.9667,3.0039,3.0372,3.0859,3.1208,3.0898,3.146,3.1672,3.1325,3.2073,3.2387,3.2289,3.2444,3.2185,3.1615,3.2114,3.2002,3.1124,3.1124,3.0754,2.9922,3.084,3.082,2.9922,2.9213,2.8618,2.802,2.7642,2.6918,2.6067,2.5317,2.4332,2.301,2.1902,2.1045,2.0148,1.9094,1.7845,1.6404,1.3628,1.2277,1.1312,3.571,3.5817,3.5737,3.5168,3.4729,3.4397,3.4256,3.392,3.3641,3.3641,3.3154,3.2524,3.1808,3.1479,3.0761,2.9552,2.9618,2.9375,2.8626,2.8498,2.8259,2.7592,2.7532,2.7209,2.6715,2.5898,2.5314,2.4871,2.4013,2.3406,2.3057,2.2794,2.253,2.2441,2.2441,2.2264,2.2106,2.2106,2.2124,2.2232,2.2549,2.3047,2.3624,2.4948,2.5771,2.6443,2.7381,2.7814,2.7915,2.8528,2.8754,2.8974,2.9912,3.0203,3.0183,3.0037,3.0202,3.0284,2.9995,3.0078,3.0016,2.9303,2.8814,2.8388,2.7853,2.7654,2.7512,2.7559,2.773,2.7939,2.8066,2.8201,2.8345,2.8514,2.8707,2.8916,2.9545,2.9815,3.0045,3.047,3.0976,3.1092,3.0995,3.158,3.1928,3.1576,3.1792,3.1727,3.1257,3.1519,3.1311,3.0443,3.0392,2.9906,2.9213,2.9785,2.9549,2.8618,2.7882,2.7263,2.6537,2.5806,2.5056,2.4317,2.3698,2.2702,2.1614,2.1004,2.0017,1.8932,1.8094,1.6606,1.5027,1.3433,1.1934,1.0314,3.571,3.571,3.5548,3.5168,3.4921,3.4481,3.4089,3.381,3.3556,3.3386,3.2896,3.2426,3.1958,3.1625,3.093,2.9701,2.9383,2.8996,2.8681,2.8611,2.8231,2.7348,2.7658,2.7463,2.6612,2.5888,2.5296,2.4885,2.4074,2.3387,2.2969,2.2656,2.2479,2.2264,2.2264,2.2176,2.1909,2.1909,2.1946,2.1965,2.2195,2.253,2.294,2.4257,2.5098,2.5778,2.6755,2.7202,2.7461,2.8007,2.8528,2.8942,2.9495,2.9556,2.9413,2.9413,2.925,2.9147,2.9311,2.9477,2.9415,2.9051,2.9026,2.89,2.8174,2.7956,2.7823,2.766,2.7728,2.7833,2.7864,2.79,2.7925,2.8029,2.8106,2.8369,2.8991,2.9278,2.9545,3.01,3.0392,3.0509,3.0645,3.0859,3.0976,3.0976,3.1441,3.1471,3.0804,3.0928,3.0718,2.9872,2.9659,2.9164,2.8379,2.8241,2.7882,2.7418,2.6658,2.5806,2.5071,2.4193,2.3325,2.2577,2.1685,2.0803,1.9814,1.9217,1.8307,1.7214,1.6348,1.5125,1.3891,1.2725,1.1241,0.9642,3.5629,3.5629,3.5548,3.5168,3.5086,3.4839,3.4147,3.3894,3.3641,3.3386,3.281,3.24,3.24,3.2025,3.1351,3.0254,2.9196,2.8626,2.8712,2.8793,2.8457,2.7522,2.8003,2.7805,2.6672,2.5915,2.5379,2.4941,2.419,2.3533,2.2851,2.279,2.2504,2.2106,2.2143,2.1946,2.1731,2.1731,2.1731,2.1731,2.2054,2.2232,2.2574,2.3939,2.475,2.5349,2.6439,2.686,2.7023,2.7781,2.841,2.8866,2.8946,2.8685,2.8384,2.8425,2.7863,2.7422,2.8224,2.8329,2.831,2.8635,2.9152,2.9343,2.8495,2.8301,2.8095,2.7751,2.7623,2.7623,2.775,2.771,2.7691,2.7673,2.7881,2.8162,2.8589,2.8991,2.9392,2.9747,2.9922,3.0039,3.0392,3.0157,3.0039,3.0392,3.1208,3.1242,3.0215,3.0482,3.0273,2.9316,2.8988,2.8355,2.7521,2.6554,2.6205,2.6449,2.5333,2.4332,2.3355,2.2716,2.1825,2.0829,1.9674,1.8768,1.7753,1.6732,1.6075,1.5442,1.4209,1.3553,1.3014,1.1774,1.0457,0.9192,3.5249,3.5386,3.5331,3.4921,3.4839,3.459,3.3894,3.3725,3.3556,3.324,3.2896,3.255,3.24,3.2113,3.1583,3.0759,2.9891,2.9093,2.8363,2.8354,2.8139,2.7592,2.7589,2.7435,2.72,2.664,2.6004,2.539,2.4635,2.3874,2.3024,2.2926,2.2465,2.1839,2.2333,2.2205,2.1731,2.1909,2.1909,2.1768,2.2351,2.2572,2.2809,2.3944,2.4722,2.5243,2.5819,2.629,2.6673,2.7021,2.7222,2.7401,2.789,2.7715,2.7591,2.7941,2.7902,2.7805,2.8212,2.8489,2.866,2.8986,2.9132,2.9026,2.8388,2.8174,2.7968,2.7952,2.7734,2.753,2.727,2.7288,2.7196,2.6885,2.6958,2.7197,2.7915,2.8122,2.8496,2.9474,2.9804,3.0039,3.0392,3.0392,3.0274,3.0392,3.0626,3.0432,2.9891,3.0316,3.0103,2.9335,2.8799,2.8271,2.7521,2.6327,2.5472,2.498,2.3728,2.2591,2.1587,2.0703,1.9686,1.8664,1.7893,1.713,1.6353,1.5303,1.4408,1.3796,1.2708,1.1814,1.1199,0.9965,0.9046,0.8127,3.5249,3.5331,3.5249,3.4839,3.4839,3.4647,3.381,3.3725,3.3556,3.3154,3.2896,3.2636,3.24,3.2025,3.1632,3.0903,2.9735,2.9093,2.9084,2.853,2.8035,2.7889,2.7955,2.7789,2.7317,2.7296,2.671,2.5675,2.4908,2.4302,2.3736,2.343,2.3019,2.2684,2.2723,2.2631,2.2262,2.2464,2.2373,2.228,2.2668,2.2908,2.3038,2.4011,2.4581,2.5003,2.5674,2.6287,2.6665,2.6582,2.673,2.7079,2.7014,2.696,2.7065,2.7275,2.7199,2.7122,2.7756,2.8019,2.8219,2.8436,2.8708,2.8834,2.8514,2.8408,2.8252,2.8033,2.7853,2.7654,2.7306,2.7196,2.7141,2.6828,2.6791,2.7068,2.7881,2.7992,2.8422,2.9338,2.9568,2.9804,2.9922,3.0039,3.0157,3.0157,3.0157,3.0062,2.9852,3.0043,2.9827,2.9151,2.8747,2.8002,2.7039,2.5961,2.4734,2.3604,2.2731,2.1727,2.0576,1.9444,1.8221,1.7096,1.6172,1.5255,1.453,1.3569,1.2816,1.2157,1.1155,1.0471,0.9933,0.8824,0.7928,0.7057,3.5386,3.5331,3.5249,3.4839,3.4921,3.4729,3.3894,3.3725,3.3556,3.324,3.2896,3.2723,3.2487,3.1937,3.1392,3.1023,2.9797,2.9229,2.9609,2.8793,2.8304,2.8303,2.8496,2.825,2.7537,2.7713,2.7243,2.5933,2.5283,2.4859,2.4438,2.407,2.3824,2.3579,2.3204,2.3017,2.2871,2.2868,2.2862,2.2894,2.2899,2.3052,2.3391,2.3972,2.4315,2.4737,2.5567,2.6328,2.6705,2.6275,2.6589,2.6899,2.6361,2.6418,2.6635,2.6692,2.6417,2.6237,2.7018,2.7283,2.741,2.7649,2.8087,2.8408,2.8408,2.8455,2.8396,2.797,2.7863,2.7756,2.7435,2.7492,2.7422,2.7098,2.7098,2.736,2.8127,2.8182,2.8613,2.9381,2.953,2.9568,2.9686,2.9804,2.9804,2.9804,2.9804,2.9686,2.9686,2.9686,2.945,2.8856,2.8498,2.7642,2.6449,2.5349,2.3976,2.248,2.1853,2.0969,1.9699,1.8419,1.715,1.5957,1.4688,1.3761,1.288,1.1949,1.1336,1.0663,0.9751,0.9169,0.8874,0.7878,0.6873,0.5912,3.5249,3.5168,3.5086,3.4839,3.4673,3.4397,3.4063,3.381,3.3641,3.3386,3.3154,3.2896,3.2636,3.1673,3.1205,3.1553,3.136,3.0433,2.8302,2.8657,2.8881,2.864,2.8496,2.8404,2.8287,2.7694,2.703,2.6416,2.6088,2.5467,2.4697,2.4716,2.4218,2.3411,2.369,2.3444,2.2905,2.2942,2.2884,2.2921,2.3039,2.3262,2.351,2.3699,2.3943,2.4295,2.5002,2.5451,2.5881,2.6088,2.5797,2.5526,2.5994,2.6126,2.5945,2.6069,2.6062,2.61,2.6209,2.63,2.6391,2.6754,2.6989,2.7206,2.7206,2.7583,2.7859,2.7754,2.7754,2.7629,2.7295,2.7709,2.7979,2.7422,2.7638,2.7809,2.7955,2.8333,2.8842,2.9219,2.9596,2.9922,3.0274,2.9804,2.9568,2.9568,2.9331,2.9094,2.9094,2.8856,2.848,2.814,2.7539,2.6813,2.57,2.4471,2.3106,2.1713,2.0195,1.9048,1.8291,1.7518,1.6343,1.5014,1.382,1.2938,1.2266,1.1091,1.013,0.9211,0.8802,0.8081,0.7093,0.6314,0.5551,0.4788,3.5168,3.5086,3.5003,3.4673,3.4673,3.4564,3.3979,3.381,3.3556,3.324,3.3154,3.2982,3.2636,3.1849,3.1407,3.1318,3.1584,3.1177,3.0095,3.0396,3.0217,2.9607,2.8878,2.8632,2.8653,2.7998,2.7431,2.6976,2.638,2.5799,2.5257,2.5139,2.483,2.42,2.4388,2.4175,2.362,2.3717,2.3717,2.3639,2.351,2.3583,2.3699,2.3665,2.3737,2.3827,2.4543,2.5136,2.5587,2.5587,2.5372,2.5104,2.5258,2.5136,2.514,2.5414,2.5559,2.5522,2.5626,2.5679,2.5898,2.5771,2.6008,2.6336,2.6427,2.6439,2.6767,2.7632,2.7902,2.8008,2.8008,2.827,2.8408,2.8174,2.796,2.7987,2.843,2.855,2.8706,2.9145,2.9012,2.92,2.9678,2.9231,2.8972,2.9194,2.8856,2.8636,2.8498,2.8122,2.7762,2.7539,2.6935,2.6083,2.5087,2.3852,2.2591,2.1082,1.9674,1.8664,1.7636,1.6602,1.5375,1.4105,1.2963,1.1919,1.1112,1.0,0.9323,0.8654,0.8001,0.6995,0.591,0.5329,0.4839,0.4464]},{"header":{"parameterUnit":"m.s-1","parameterCategory":1,"la1":30.6,"la2":28.766,"lo1":-90.7593,"lo2":-88.6598,"dy":0.0162,"dx":0.0183,"nx":116,"ny":114,"refTime":"2023-04-13T12:00:00:Z","depth":0,"parameterNumber":3,"parameterNumberName":"V-component_of_WINDS"},"data":[0.0,0.0,0.0,0.0,0.0,0.0,0.0,0.0,0.0,0.0,0.0,0.0,0.0,0.0,0.0,0.0,0.0,0.0,0.0,0.0,0.0,0.0,0.0,0.0,0.0,0.0,0.0,0.0,0.0,0.0,0.0,0.0,0.0,0.0,0.0,0.0,0.0,0.0,0.0,0.0,0.0,0.0,0.0,0.0,0.0,0.0,0.0,0.0,0.0,0.0,0.0,0.0,0.0,0.0,0.0,0.0,0.0,0.0,0.0,0.0,0.0,0.0,0.0,0.0,0.0,0.0,0.0,0.0,0.0,0.0,0.0,0.0,0.0,0.0,0.0,0.0,0.0,0.0,0.0,0.0,0.0,0.0,0.0,0.0,0.0,0.0,0.0,0.0,0.0,0.0,0.0,0.0,0.0,0.0,0.0,0.0,0.0,0.0,0.0,0.0,0.0,0.0,0.0,0.0,0.0,0.0,0.0,0.0,0.0,0.0,0.0,0.0,0.0,0.0,0.0,0.0,0.0,0.0,0.0,0.0,0.0,0.0,0.0,0.0,0.0,0.0,0.0,0.0,0.0,0.0,0.0,0.0,0.0,0.0,0.0,0.0,0.0,0.0,0.0,0.0,0.0,0.0,0.0,0.0,0.0,0.0,0.0,0.0,0.0,0.0,0.0,0.0,0.0,0.0,0.0,0.0,0.0,0.0,0.0,0.0,0.0,0.0,0.0,0.0,0.0,0.0,0.0,0.0,0.0,0.0,0.0,0.0,0.0,0.0,0.0,0.0,0.0,0.0,0.0,0.0,0.0,0.0,0.0,0.0,0.0,0.0,0.0,0.0,0.0,0.0,0.0,0.0,0.0,0.0,0.0,0.0,0.0,0.0,0.0,0.0,0.0,0.0,0.0,0.0,0.0,0.0,0.0,0.0,0.0,0.0,0.0,0.0,0.0,0.0,0.0,0.0,0.0,0.0,0.0,0.0,0.0,0.0,0.0,0.0,0.0,0.0,0.0,0.0,0.0,0.0,0.0,0.0,0.0,0.0,0.0,0.0,0.0,0.0,0.0,0.0,0.0,0.0,0.0,0.0,0.0,0.0,0.0,0.0,0.0,0.0,0.0,0.0,0.0,0.0,0.0,0.0,0.0,0.0,0.0,0.0,0.0,0.0,0.0,0.0,0.0,0.0,0.0,0.0,0.0,0.0,0.0,0.0,0.0,0.0,0.0,0.0,0.0,0.0,0.0,0.0,0.0,0.0,0.0,0.0,0.0,0.0,0.0,0.0,0.0,0.0,0.0,0.0,0.0,0.0,0.0,0.0,0.0,0.0,0.0,0.0,0.0,0.0,0.0,0.0,0.0,0.0,0.0,0.0,0.0,0.0,0.0,0.0,0.0,0.0,0.0,0.0,0.0,0.0,0.0,0.0,0.0,0.0,0.0,0.0,0.0,0.0,0.0,0.0,0.0,0.0,0.0,0.0,0.0,0.0,0.0,0.0,0.0,0.0,0.0,0.0,0.0,0.0,0.0,0.0,0.0,0.0,0.0,0.0,0.0,0.0,0.0,0.0,0.0,0.0,0.0,0.0,0.0,0.0,0.0,0.0,0.0,0.0,0.0,0.0,0.0,0.0,0.0,0.0,0.0,0.0,0.0,0.0,0.0,0.0,0.0,0.0,0.0,0.0,0.0,0.0,0.0,0.0,0.0,0.0,0.0,0.0,0.0,0.0,0.0,0.0,0.0,0.0,0.0,0.0,0.0,0.0,0.0,0.0,0.0,0.0,0.0,0.0,0.0,0.0,0.0,0.0,0.0,0.0,0.0,0.0,0.0,0.0,0.0,0.0,0.0,0.0,0.0,0.0,0.0,0.0,0.0,0.0,0.0,0.0,0.0,0.0,0.0,0.0,0.0,0.0,0.0,0.0,0.0,0.0,0.0,0.0,0.0,0.0,0.0,0.0,0.0,0.0,0.0,0.0,0.0,0.0,0.0,0.0,0.0,0.0,0.0,0.0,0.0,0.0,0.0,0.0,0.0,0.0,0.0,0.0,0.0,0.0,0.0,0.0,0.0,0.0,0.0,0.0,0.0,0.0,0.0,0.0,0.0,0.0,0.0,0.0,0.0,0.0,0.0,0.0,0.0,0.0,0.0,0.0,0.0,0.0,0.0,0.0,0.0,0.0,0.0,0.0,0.0,0.0,0.0,0.0,0.0,0.0,0.0,0.0,0.0,0.0,0.0,0.0,0.0,0.0,0.0,0.0,0.0,0.0,0.0,0.0,0.0,0.0,0.0,0.0,0.0,0.0,0.0,0.0,0.0,0.0,0.0,0.0,0.0,0.0,0.0,0.0,0.0,0.0,0.0,0.0,0.0,0.0,0.0,0.0,0.0,0.0,0.0,0.0,0.0,0.0,0.0,0.0,0.0,0.0,0.0,0.0,0.0,0.0,0.0,0.0,0.0,0.0,0.0,0.0,0.0,0.0,0.0,0.0,0.0,0.0,0.0,0.0,0.0,0.0,0.0,0.0,0.0,0.0,0.0,0.0,0.0,0.0,0.0,0.0,0.0,0.0,0.0,0.0,0.0,0.0,0.0,0.0,0.0,0.0,0.0,0.0,0.0,0.0,0.0,0.0,0.0,0.0,0.0,0.0,0.0,0.0,0.0,0.0,0.0,0.0,0.0,0.0,0.0,0.0,0.0,0.0,0.0,0.0,0.0,0.0,0.0,0.0,0.0,0.0,0.0,0.0,0.0,0.0,0.0,0.0,0.0,0.0,0.0,0.0,0.0,0.0,0.0,0.0,0.0,0.0,0.0,0.0,0.0,0.0,0.0,0.0,0.0,0.0,0.0,0.0,0.0,0.0,0.0,0.0,0.0,0.0,0.0,0.0,0.0,0.0,0.0,0.0,0.0,0.0,0.0,0.0,0.0,0.0,0.0,0.0,0.0,0.0,0.0,0.0,0.0,0.0,0.0,0.0,0.0,0.0,0.0,0.0,0.0,0.0,0.0,0.0,0.0,0.0,0.0,0.0,0.0,0.0,0.0,0.0,0.0,0.0,0.0,0.0,0.0,0.0,0.0,0.0,0.0,0.0,0.0,0.0,0.0,0.0,0.0,0.0,0.0,0.0,0.0,0.0,0.0,0.0,0.0,0.0,0.0,0.0,0.0,0.0,0.0,0.0,0.0,0.0,0.0,0.0,0.0,0.0,0.0,0.0,0.0,0.0,0.0,0.0,0.0,0.0,0.0,0.0,0.0,0.0,0.0,0.0,0.0,0.0,0.0,0.0,0.0,0.0,0.0,0.0,0.0,0.0,0.0,0.0,0.0,0.0,0.0,0.0,0.0,0.0,0.0,0.0,0.0,0.0,0.0,0.0,0.0,0.0,0.0,0.0,0.0,0.0,0.0,0.0,0.0,0.0,0.0,0.0,0.0,0.0,0.0,0.0,0.0,0.0,0.0,0.0,0.0,0.0,0.0,0.0,0.0,0.0,0.0,0.0,0.0,0.0,0.0,0.0,0.0,0.0,0.0,0.0,0.0,0.0,0.0,0.0,0.0,0.0,0.0,0.0,0.0,0.0,0.0,0.0,0.0,0.0,0.0,0.0,0.0,0.0,0.0,0.0,0.0,0.0,0.0,0.0,0.0,0.0,0.0,0.0,0.0,0.0,0.0,0.0,0.0,0.0,0.0,0.0,0.0,0.0,0.0,0.0,0.0,0.0,0.0,0.0,0.0,0.0,0.0,0.0,0.0,0.0,0.0,0.0,0.0,0.0,0.0,0.0,0.0,0.0,0.0,0.0,0.0,0.0,0.0,0.0,0.0,0.0,0.0,0.0,0.0,0.0,0.0,0.0,0.0,0.0,0.0,0.0,0.0,0.0,0.0,0.0,0.0,0.0,0.0,0.0,0.0,0.0,0.0,0.0,0.0,0.0,0.0,0.0,0.0,0.0,0.0,0.0,0.0,0.0,0.0,0.0,0.0,0.0,0.0,0.0,0.0,0.0,0.0,0.0,0.0,0.0,0.0,0.0,0.0,0.0,0.0,0.0,0.0,0.0,0.0,0.0,0.0,0.0,0.0,0.0,0.0,0.0,0.0,0.0,0.0,0.0,0.0,0.0,0.0,0.0,0.0,0.0,0.0,0.0,0.0,0.0,0.0,0.0,0.0,0.0,0.0,0.0,0.0,0.0,0.0,0.0,0.0,0.0,0.0,0.0,0.0,0.0,0.0,0.0,0.0,0.0,0.0,0.0,0.0,0.0,0.0,0.0,0.0,0.0,0.0,0.0,0.0,0.0,0.0,0.0,0.0,0.0,0.0,0.0,0.0,0.0,0.0,0.0,0.0,0.0,0.0,0.0,0.0,0.0,0.0,0.0,0.0,0.0,0.0,0.0,0.0,0.0,0.0,0.0,0.0,0.0,0.0,0.0,0.0,0.0,0.0,0.0,0.0,0.0,0.0,0.0,0.0,0.0,0.0,0.0,0.0,0.0,0.0,0.0,0.0,0.0,0.0,0.0,0.0,0.0,0.0,0.0,0.0,0.0,0.0,0.0,0.0,0.0,0.0,0.0,0.0,0.0,0.0,0.0,0.0,0.0,0.0,0.0,0.0,0.0,0.0,0.0,0.0,0.0,0.0,0.0,0.0,0.0,0.0,0.0,0.0,0.0,0.0,0.0,0.0,0.0,0.0,0.0,0.0,0.0,0.0,0.0,0.0,0.0,0.0,0.0,0.0,0.0,0.0,0.0,0.0,0.0,0.0,0.0,0.0,0.0,0.0,0.0,0.0,0.0,0.0,0.0,0.0,0.0,0.0,0.0,0.0,0.0,0.0,0.0,0.0,0.0,0.0,0.0,0.0,0.0,0.0,0.0,0.0,0.0,0.0,0.0,0.0,0.0,0.0,0.0,0.0,0.0,0.0,0.0,0.0,0.0,0.0,0.0,0.0,0.0,0.0,0.0,0.0,0.0,0.0,0.0,0.0,0.0,0.0,0.0,0.0,0.0,0.0,0.0,0.0,0.0,0.0,0.0,0.0,0.0,0.0,0.0,0.0,0.0,0.0,0.0,0.0,0.0,0.0,0.0,0.0,0.0,0.0,0.0,0.0,0.0,0.0,0.0,0.0,0.0,0.0,0.0,0.0,0.0,0.0,0.0,0.0,0.0,0.0,0.0,0.0,0.0,0.0,0.0,0.0,0.0,0.0,0.0,0.0,0.0,0.0,0.0,0.0,0.0,0.0,0.0,0.0,0.0,0.0,0.0,0.0,0.0,0.0,0.0,0.0,0.0,0.0,0.0,0.0,0.0,0.0,0.0,0.0,0.0,0.0,0.0,0.0,0.0,0.0,0.0,0.0,0.0,0.0,0.0,0.0,0.0,0.0,0.0,0.0,0.0,0.0,0.0,0.0,0.0,0.0,0.0,0.0,0.0,0.0,0.0,0.0,0.0,0.0,0.0,0.0,0.0,0.0,0.0,0.0,0.0,0.0,0.0,0.0,0.0,0.0,0.0,0.0,0.0,0.0,0.0,0.0,0.0,0.0,0.0,0.0,0.0,0.0,0.0,0.0,0.0,0.0,0.0,0.0,0.0,0.0,0.0,0.0,0.0,0.0,0.0,0.0,0.0,0.0,0.0,0.0,0.0,0.0,0.0,0.0,0.0,0.0,0.0,0.0,0.0,0.0,0.0,0.0,0.0,0.0,0.0,0.0,0.0,0.0,0.0,0.0,0.0,0.0,0.0,0.0,0.0,0.0,0.0,0.0,0.0,0.0,0.0,0.0,0.0,0.0,0.0,0.0,0.0,0.0,0.0,0.0,0.0,0.0,0.0,0.0,0.0,0.0,0.0,0.0,0.0,0.0,0.0,0.0,0.0,0.0,0.0,0.0,0.0,0.0,0.0,0.0,0.0,0.0,0.0,0.0,0.0,0.0,0.0,0.0,0.0,0.0,0.0,0.0,0.0,0.0,0.0,0.0,0.0,0.0,0.0,0.0,0.0,0.0,0.0,0.0,0.0,0.0,0.0,0.0,0.0,0.0,0.0,0.0,0.0,0.0,0.0,0.0,0.0,0.0,0.0,0.0,0.0,0.0,0.0,0.0,0.0,0.0,0.0,0.0,0.0,-5.8128,-5.4521,0.0,0.0,0.0,0.0,0.0,0.0,0.0,0.0,0.0,0.0,0.0,0.0,0.0,0.0,0.0,0.0,0.0,0.0,0.0,0.0,0.0,0.0,0.0,0.0,0.0,0.0,0.0,0.0,0.0,0.0,0.0,0.0,0.0,0.0,0.0,0.0,0.0,-1.9105,-2.0243,-2.191,-2.4004,-2.4015,-2.4182,-2.4448,0.0,0.0,0.0,0.0,0.0,0.0,0.0,0.0,0.0,0.0,0.0,0.0,0.0,0.0,0.0,0.0,0.0,0.0,0.0,0.0,0.0,0.0,0.0,0.0,0.0,0.0,0.0,0.0,0.0,0.0,0.0,0.0,0.0,0.0,0.0,0.0,0.0,0.0,0.0,0.0,0.0,0.0,0.0,0.0,0.0,0.0,0.0,0.0,0.0,0.0,0.0,0.0,0.0,0.0,0.0,0.0,0.0,0.0,0.0,0.0,0.0,0.0,0.0,0.0,0.0,0.0,0.0,0.0,0.0,0.0,-6.4367,-6.1049,0.0,0.0,0.0,0.0,0.0,0.0,0.0,0.0,0.0,0.0,0.0,0.0,0.0,0.0,0.0,0.0,0.0,0.0,0.0,0.0,0.0,0.0,0.0,-0.6799,-0.7484,-0.8456,-0.8842,-0.9332,-1.0137,0.0,0.0,0.0,0.0,0.0,-1.7321,-1.8004,-1.9182,-2.0881,-2.2493,-2.4792,-2.7696,-2.7617,-2.7202,-2.6778,-2.6523,0.0,0.0,0.0,0.0,0.0,0.0,0.0,0.0,0.0,0.0,0.0,0.0,0.0,0.0,0.0,0.0,0.0,0.0,0.0,0.0,0.0,0.0,0.0,0.0,0.0,0.0,0.0,0.0,0.0,0.0,0.0,0.0,0.0,0.0,0.0,0.0,0.0,0.0,0.0,0.0,0.0,0.0,0.0,0.0,0.0,0.0,0.0,0.0,0.0,0.0,0.0,0.0,0.0,0.0,0.0,0.0,0.0,0.0,0.0,0.0,0.0,0.0,0.0,-5.8063,-6.086,-6.4448,-6.8675,-7.1863,-7.4027,-7.1255,-6.8713,-6.6173,-6.2547,0.0,0.0,0.0,0.0,0.0,0.0,0.0,0.0,0.0,0.0,0.0,0.0,0.0,0.0,0.0,0.0,0.0,0.0,0.0,-0.4968,-0.5643,-0.6323,-0.7114,-0.7829,-0.8599,-0.9412,-1.0387,0.0,0.0,0.0,0.0,-1.6508,-1.8696,-1.991,-2.1461,-2.3334,-2.5855,-2.7865,-2.9358,-2.9768,-3.0482,-3.1309,-2.9344,-2.8502,-2.8499,0.0,0.0,0.0,0.0,0.0,0.0,0.0,0.0,0.0,0.0,0.0,0.0,0.0,0.0,0.0,0.0,0.0,0.0,0.0,0.0,0.0,0.0,0.0,0.0,0.0,0.0,0.0,0.0,0.0,0.0,0.0,0.0,0.0,0.0,0.0,0.0,0.0,0.0,0.0,0.0,0.0,-5.3552,-5.5716,0.0,0.0,0.0,0.0,0.0,0.0,0.0,0.0,0.0,0.0,0.0,0.0,0.0,-6.4747,-6.4783,-6.5385,-6.5031,-6.3833,-6.7763,-7.0247,-7.1624,-7.6579,-7.9819,-8.1496,-8.188,0.0,-7.1675,-6.9203,0.0,0.0,0.0,0.0,0.0,0.0,0.0,0.0,0.0,0.0,0.0,0.0,0.0,0.0,0.0,0.0,0.0,0.0,0.0,0.0,0.0,-0.6528,-0.7157,-0.7774,-0.8672,-0.9518,-1.0304,-1.133,0.0,0.0,-1.5342,-1.7018,-1.9569,-2.0795,-2.2897,-2.6085,-2.8705,-3.0654,-3.2037,-3.2716,-3.3676,-3.4874,-3.3336,-3.192,-3.0664,-2.9463,0.0,0.0,0.0,0.0,0.0,0.0,0.0,0.0,0.0,0.0,0.0,0.0,0.0,0.0,0.0,0.0,0.0,0.0,0.0,0.0,0.0,0.0,0.0,0.0,0.0,0.0,0.0,0.0,0.0,0.0,0.0,0.0,0.0,0.0,0.0,0.0,0.0,0.0,0.0,-5.3258,-5.7005,-5.8705,-5.9701,-5.9656,0.0,0.0,0.0,0.0,0.0,0.0,0.0,0.0,0.0,-6.6552,-6.8564,-7.0309,-7.1788,-7.2699,-7.3079,-7.296,-7.5358,-7.7454,-7.9362,-8.253,-8.4937,-8.6659,-8.7619,-8.5931,-8.2112,-7.6813,-7.2891,-6.9808,0.0,0.0,0.0,0.0,-6.3531,-6.4696,0.0,0.0,0.0,0.0,0.0,0.0,0.0,0.0,0.0,0.0,0.0,0.0,-0.6057,-0.6754,-0.7406,-0.7982,-0.8837,-0.9725,-1.0536,-1.157,-1.2898,-1.4562,-1.5774,-1.7642,-2.0386,-2.2412,-2.5216,-2.8932,-3.124,-3.3129,-3.4617,-3.5339,-3.6274,-3.7253,-3.6629,-3.5182,-3.3003,-3.1133,-2.9465,-2.781,0.0,0.0,0.0,0.0,0.0,0.0,0.0,0.0,0.0,0.0,0.0,0.0,0.0,0.0,0.0,0.0,0.0,0.0,0.0,0.0,0.0,0.0,0.0,0.0,0.0,0.0,0.0,0.0,0.0,0.0,0.0,0.0,0.0,0.0,0.0,0.0,0.0,-5.7056,-6.0155,-6.1695,-6.3435,-6.3869,0.0,0.0,0.0,0.0,0.0,0.0,-6.3804,-6.5265,-6.7943,-7.1937,-7.3687,-7.578,-7.825,-7.9165,-8.0197,-8.1266,-8.2413,-8.4095,-8.6275,-8.7995,-8.9529,-9.0914,-9.1796,-9.1986,-9.111,-8.3924,-7.9622,-7.7254,-7.3776,-7.2206,-7.1943,-7.2103,-7.2959,-7.4405,0.0,0.0,0.0,0.0,0.0,0.0,0.0,0.0,0.0,0.0,0.0,-0.4968,-0.6186,-0.6872,-0.7642,-0.8556,-0.9318,-1.0141,-1.1203,-1.1973,-1.3237,-1.5234,-1.675,-1.8711,-2.1261,-2.5853,-2.9346,-3.1694,-3.3461,-3.5067,-3.6512,-3.7246,-3.7684,-3.7946,-3.858,-3.7655,-3.5481,-3.3512,-3.1862,-3.0154,-2.6967,0.0,0.0,0.0,0.0,0.0,0.0,0.0,0.0,0.0,0.0,0.0,0.0,0.0,0.0,0.0,0.0,0.0,0.0,0.0,0.0,0.0,0.0,0.0,0.0,0.0,0.0,0.0,0.0,0.0,0.0,0.0,0.0,0.0,0.0,0.0,0.0,0.0,0.0,-6.5455,-6.7784,0.0,0.0,0.0,0.0,-6.5909,-6.5885,-6.6774,-6.9005,-7.0952,-7.3573,-7.7027,-7.8777,-8.0908,-8.3582,-8.442,-8.5765,-8.7651,-8.9332,-9.0555,-9.1472,-9.3229,-9.4161,-9.4481,-9.5287,-9.5828,-9.5721,-8.9663,-8.5875,-8.3677,-8.1872,-8.0312,-7.9151,-7.9922,-8.0771,-8.1558,0.0,0.0,0.0,0.0,0.0,0.0,0.0,0.0,-0.4383,-0.4862,-0.5164,-0.5727,-0.6749,-0.77,-0.8552,-0.9266,-1.0198,-1.123,-1.2163,-1.3003,-1.4349,-1.6487,-1.7424,-1.9691,-2.3609,-2.7854,-3.065,-3.2074,-3.5068,-3.7082,-3.8148,-3.9745,-4.067,-4.1124,-4.1174,-4.0501,-3.9186,-3.6213,-3.3817,-3.1641,-2.7997,-2.464,0.0,0.0,0.0,0.0,0.0,0.0,0.0,0.0,0.0,0.0,0.0,0.0,0.0,0.0,0.0,0.0,0.0,0.0,0.0,0.0,0.0,0.0,0.0,0.0,0.0,0.0,0.0,0.0,0.0,0.0,0.0,0.0,0.0,0.0,0.0,0.0,0.0,-6.8077,-7.0874,0.0,-7.1194,-7.1189,-7.1296,-7.1101,-7.1331,-7.2708,-7.5426,-7.6927,-7.9311,-8.2937,-8.4202,-8.607,-8.8661,-8.9589,-9.0669,-9.194,-9.3618,-9.4884,-9.5904,-9.6998,-9.7891,-9.8648,-9.9002,-9.9056,-9.8664,-9.6073,-9.335,-9.0578,-8.8536,-8.7751,-8.7749,-8.7565,-8.7991,-8.8735,0.0,0.0,0.0,0.0,0.0,0.0,0.0,-0.4488,-0.4545,-0.5046,-0.5594,-0.6257,-0.7237,-0.8305,-0.9271,-1.0086,-1.1159,-1.226,-1.3484,-1.4084,-1.5427,-1.7543,-1.9011,-2.1732,-2.5808,-2.9201,-3.18,-3.352,-3.6665,-3.8713,-3.9773,-4.1455,-4.2468,-4.2931,-4.2817,-4.2416,-4.169,-3.8904,-3.616,-3.3321,-2.9501,-2.5738,-2.19,0.0,0.0,0.0,0.0,0.0,0.0,0.0,0.0,0.0,0.0,0.0,0.0,0.0,0.0,0.0,0.0,0.0,0.0,0.0,0.0,0.0,0.0,0.0,0.0,0.0,0.0,0.0,0.0,0.0,0.0,0.0,0.0,0.0,0.0,-6.4744,-6.8335,-7.0488,-7.3505,-7.5107,-7.4297,-7.5065,-7.5762,-7.6093,-7.6622,-7.8089,-8.0757,-8.1983,-8.4129,-8.7424,-8.8529,-9.0142,-9.2429,-9.3726,-9.4811,-9.5724,-9.7496,-9.8812,-9.9746,-10.0624,-10.1215,-10.1705,-10.2107,-10.2015,-10.1402,-10.0698,-9.9228,-9.7173,-9.4212,-9.3461,-9.4004,-9.3543,-9.3865,-9.4627,0.0,0.0,0.0,0.0,0.0,0.0,-0.4665,-0.441,-0.4472,-0.5195,-0.5789,-0.6503,-0.755,-0.8717,-0.9904,-1.0919,-1.196,-1.323,-1.491,-1.5262,-1.6391,-1.8596,-2.161,-2.4635,-2.7867,-3.0177,-3.2883,-3.6136,-3.8225,-4.0,-4.152,-4.234,-4.2808,-4.3024,-4.3349,-4.342,-4.3083,-4.1534,-3.8889,-3.5367,-3.1525,-2.7735,-2.3683,0.0,0.0,0.0,0.0,0.0,0.0,0.0,0.0,0.0,0.0,0.0,0.0,0.0,0.0,0.0,0.0,0.0,0.0,0.0,0.0,0.0,0.0,0.0,0.0,0.0,0.0,0.0,0.0,0.0,0.0,0.0,0.0,0.0,-6.4436,-6.7729,-7.0671,-7.2788,-7.5778,-7.7554,-7.7271,-7.8376,-7.9719,-8.0938,-8.1514,-8.2675,-8.4778,-8.5956,-8.7807,-9.0453,-9.1627,-9.3123,-9.4945,-9.6869,-9.8274,-9.9188,-10.111,-10.238,-10.3083,-10.4109,-10.4091,-10.3504,-10.4521,-10.4586,-10.4099,-10.3395,-10.3305,-10.3199,-9.8924,-9.742,-9.7655,-9.7728,-9.8319,-9.9133,0.0,0.0,0.0,0.0,0.0,0.0,-0.4533,-0.4621,-0.48,-0.5295,-0.6198,-0.723,-0.8328,-0.9557,-1.0848,-1.2026,-1.3176,-1.4254,-1.537,-1.6742,-1.8572,-2.0863,-2.3632,-2.6096,-2.814,-3.1023,-3.3753,-3.6294,-3.8732,-4.1037,-4.3102,-4.4358,-4.549,-4.626,-4.6024,-4.5374,-4.4549,-4.3531,-4.134,-3.8152,-3.3181,-2.8423,-2.3699,0.0,0.0,0.0,0.0,0.0,0.0,0.0,0.0,0.0,0.0,0.0,0.0,0.0,0.0,0.0,0.0,0.0,0.0,0.0,0.0,0.0,0.0,0.0,0.0,0.0,0.0,0.0,0.0,0.0,0.0,0.0,-6.1859,-6.4932,-6.6759,-7.0243,-7.365,-7.6547,-7.8936,-8.0721,-8.1744,-8.2354,-8.2988,-8.3871,-8.4099,-8.5114,-8.7235,-8.8309,-9.0114,-9.2842,-9.4518,-9.6328,-9.8269,-10.0062,-10.1475,-10.2494,-10.4416,-10.5396,-10.5714,-10.6605,-10.7023,-10.6988,-10.7396,-10.7318,-10.6719,-10.6017,-10.5589,-10.4985,-10.2117,-10.1097,-10.1282,-10.1313,-10.1788,-10.2514,0.0,0.0,0.0,0.0,0.0,0.0,-0.468,-0.4708,-0.4909,-0.553,-0.6505,-0.753,-0.8529,-0.9967,-1.1279,-1.2551,-1.3635,-1.4878,-1.6267,-1.8265,-2.0217,-2.214,-2.4322,-2.655,-2.8761,-3.1297,-3.407,-3.7068,-3.9161,-4.1509,-4.4116,-4.5217,-4.6423,-4.754,-4.7284,-4.6724,-4.5953,-4.4763,-4.275,-4.0064,-3.5477,-3.0708,-2.5689,-1.9799,-1.5156,-1.1178,-0.722,-0.6729,-0.842,-1.2011,0.0,0.0,0.0,0.0,0.0,0.0,0.0,0.0,0.0,0.0,0.0,0.0,0.0,0.0,0.0,0.0,0.0,0.0,0.0,0.0,0.0,0.0,0.0,0.0,-6.4924,-6.8258,-7.0958,-7.3596,-7.6285,-7.9287,-8.122,-8.2644,-8.3629,-8.3951,-8.4515,-8.5316,-8.5881,-8.7026,-8.9013,-9.0454,-9.2455,-9.5231,-9.6764,-9.8756,-10.1011,-10.2602,-10.3794,-10.4816,-10.667,-10.7592,-10.7668,-10.9098,-10.9595,-10.9524,-11.0096,-10.9825,-10.88,-10.8601,-10.809,-10.7404,0.0,0.0,0.0,0.0,-10.5615,-10.662,0.0,0.0,0.0,0.0,0.0,0.0,-0.4859,-0.4694,-0.4897,-0.5982,-0.6695,-0.7483,-0.8503,-1.0032,-1.151,-1.295,-1.3894,-1.5368,-1.7673,-1.973,-2.1541,-2.2788,-2.4346,-2.6557,-2.9555,-3.1297,-3.412,-3.7923,-3.9424,-4.1686,-4.4659,-4.5244,-4.6299,-4.7558,-4.7509,-4.7387,-4.7154,-4.531,-4.3411,-4.1368,-3.811,-3.3729,-2.8585,-2.2628,-1.8054,-1.446,-1.1538,-1.055,-1.0983,-1.3218,0.0,0.0,0.0,0.0,0.0,0.0,0.0,0.0,0.0,0.0,0.0,0.0,0.0,0.0,0.0,0.0,0.0,0.0,0.0,0.0,0.0,0.0,0.0,0.0,-6.7815,-7.1574,-7.5636,-7.7143,-7.8722,-8.1322,-8.2824,-8.3737,-8.4137,-8.4457,-8.5065,-8.6072,-8.7328,-8.8811,-9.0498,-9.2496,0.0,0.0,0.0,-10.0682,-10.3195,-10.4626,-10.5709,-10.66,-10.8589,-10.9627,-10.9481,-11.1506,-11.1887,-11.1334,-11.2389,-11.1991,-11.0804,-11.0991,-11.0778,-11.0029,-10.761,-10.6818,-10.7106,-10.8007,-10.9416,-11.0788,0.0,0.0,0.0,0.0,0.0,0.0,-0.472,-0.4688,-0.5151,-0.6407,-0.6861,-0.7651,-0.9209,-1.0317,-1.179,-1.3664,-1.4787,-1.6857,-2.0121,-2.1218,-2.2543,-2.4378,-2.6064,-2.7936,-3.0272,-3.2162,-3.4716,-3.809,-3.9344,-4.1557,-4.469,-4.5353,-4.65,-4.8122,-4.6997,-4.6858,-4.7361,-4.5217,-4.365,-4.2267,-3.9852,-3.5377,-2.974,-2.6022,-2.238,-1.9029,-1.7307,-1.7099,-1.7991,-2.0111,-2.2067,-2.4281,-2.7451,-2.895,0.0,0.0,0.0,0.0,0.0,0.0,0.0,0.0,0.0,0.0,0.0,0.0,0.0,0.0,0.0,0.0,0.0,0.0,0.0,-6.6834,-7.0398,-7.3814,-7.6827,-7.9272,-8.1407,-8.2899,-8.3879,-8.4936,-8.6025,-8.6754,-8.7476,-8.8139,-8.9676,-9.1068,-9.2402,-9.4793,-9.6742,-9.8096,-10.1097,-10.3073,-10.4101,-10.6993,-10.8713,-10.9258,-11.1197,0.0,-11.2396,-11.2896,-11.3173,-11.3297,-11.3632,-11.3689,-11.3507,-11.3107,-11.2592,-11.2113,-11.0316,-10.9689,-10.9792,-11.0693,-11.1991,-11.3398,0.0,0.0,0.0,0.0,0.0,0.0,-0.4654,-0.4629,-0.5015,-0.6407,-0.6778,-0.7567,-0.92,-1.0396,-1.1736,-1.3558,-1.5693,-1.7903,-2.0132,-2.1367,-2.2957,-2.4975,-2.6454,-2.8287,-3.0611,-3.2272,-3.4559,-3.7401,-3.8649,-4.0771,-4.3728,-4.4443,-4.5725,-4.7415,-4.6702,-4.6686,-4.7004,-4.5257,-4.3968,-4.299,-4.0933,-3.7858,-3.4159,-3.0213,-2.6699,-2.3746,-2.3202,-2.3127,-2.3618,-2.5769,-2.7898,-2.9984,-3.2304,-3.3754,-3.476,0.0,0.0,0.0,0.0,0.0,0.0,0.0,0.0,0.0,0.0,0.0,0.0,0.0,0.0,-5.931,-6.1084,0.0,-6.7928,-7.0517,-7.3503,-7.6438,-7.8924,-8.1235,-8.279,-8.3446,-8.4681,-8.5992,-8.7156,-8.7738,-8.8353,-8.9209,-9.079,-9.2288,-9.3412,-9.5991,-9.8091,-9.959,-10.2086,-10.4134,-10.5497,-10.7572,-10.937,-11.0683,-11.211,-11.321,-11.39,-11.449,-11.4891,-11.5202,-11.5264,-11.528,-11.5087,-11.4483,-11.4183,-11.4113,-11.3396,-11.2783,-11.2616,-11.3782,-11.4998,-11.6086,0.0,0.0,0.0,0.0,0.0,0.0,-0.4654,-0.4553,-0.4936,-0.6242,-0.6619,-0.7399,-0.8931,-1.0133,-1.1641,-1.3623,-1.6545,-1.8646,-1.9848,-2.1513,-2.3421,-2.5451,-2.6693,-2.854,-3.0951,-3.234,-3.4188,-3.6551,-3.7798,-3.9765,-4.2305,-4.2989,-4.4278,-4.5752,-4.5677,-4.5752,-4.6039,-4.478,-4.4013,-4.3445,-4.1739,-4.0284,-3.8727,-3.4862,-3.1423,-2.8586,-2.8763,-2.8498,-2.8358,-3.0373,-3.2529,-3.4711,-3.6307,-3.8117,-3.9589,-3.9357,-4.0526,0.0,0.0,0.0,0.0,0.0,0.0,0.0,0.0,-5.3751,-5.595,-5.8496,-6.1291,-6.3967,-6.6356,-6.9208,-7.2044,-7.4331,-7.6657,-7.8996,-8.1092,-8.2758,-8.3773,-8.3847,-8.541,-8.6829,-8.763,-8.8173,-8.879,-8.9693,-9.1712,-9.3287,-9.416,-9.6857,-9.9177,-10.0785,-10.2833,-10.4818,-10.6818,-10.81,-10.981,-11.1615,-11.268,-11.3782,-11.4808,-11.5893,-11.6407,-11.6606,-11.6784,-11.671,-11.6378,-11.5898,-11.5716,-11.5799,-11.6103,-11.5617,-11.4999,-11.6618,-11.7677,-11.85,0.0,0.0,0.0,0.0,0.0,0.0,0.0,0.0,-0.5094,-0.6242,-0.6619,-0.7315,-0.8765,-0.9714,-1.1545,-1.4755,-1.7195,-1.9195,-2.0843,-2.2467,-2.4338,-2.6487,-2.783,-2.9502,-3.1504,-3.2918,-3.4497,-3.6302,-3.7287,-3.8644,-4.0479,-4.0949,-4.1799,-4.2844,-4.2273,-4.2839,-4.4325,-4.3286,-4.3011,-4.3197,-4.2523,-4.1542,-4.0414,-3.9944,-3.7182,-3.3512,-3.3073,-3.2591,-3.2431,-3.345,-3.5205,-3.7389,-3.9917,-4.211,-4.3828,-4.4411,-4.5272,-4.5793,-4.4458,-4.5331,-4.7419,-5.0214,-5.2159,-5.4273,0.0,-5.9417,-6.0933,-6.3898,-6.5724,-6.7623,-7.0132,-7.2371,-7.4726,-7.7308,-7.9251,-8.0876,-8.2213,-8.3774,-8.49,-8.5221,-8.6059,-8.6822,-8.7072,-8.8426,-8.9448,-8.9972,-9.2853,-9.4767,-9.5186,-9.8439,-10.0507,-10.0785,-10.3986,-10.6114,-10.6818,-10.9798,-11.1778,-11.2699,-11.4298,-11.5266,-11.5982,-11.6798,-11.6992,-11.6697,-11.702,-11.7612,-11.8499,-11.78,-11.7195,-11.6702,-11.7614,-11.7415,-11.6705,-11.7598,-11.8793,-12.0196,0.0,0.0,0.0,0.0,0.0,0.0,0.0,0.0,-0.4993,-0.581,-0.6322,-0.7177,-0.8435,-1.0549,-1.2734,-1.513,-1.735,-1.9367,-2.1081,-2.2734,-2.4605,-2.6737,-2.8048,-2.9582,-3.1343,-3.2618,-3.3806,-3.511,-3.6018,-3.712,-3.8359,-3.8502,-3.918,-4.0353,-3.9521,-4.0068,-4.145,-4.1492,-4.2077,-4.3044,-4.3237,-4.3313,-4.3164,-4.2758,-4.1419,-3.9679,-3.7844,-3.6887,0.0,-3.6948,-3.8479,-4.0521,-4.1892,-4.3428,-4.4966,-4.6134,-4.7001,-4.7737,-4.8748,-5.0799,-5.2845,-5.4124,-5.6007,-5.8278,-6.1204,-6.2948,-6.4672,-6.7658,-7.0024,-7.2045,-7.3687,-7.6045,-7.8126,-7.9311,-8.0506,-8.1915,-8.3636,-8.4337,-8.5174,-8.6538,-8.6538,-8.7016,-8.8451,-8.9293,-9.0241,-9.1475,-9.3795,-9.5335,-9.5537,-9.8829,-10.0823,-10.0956,-10.4166,-10.6302,-10.6818,-10.9208,-11.1182,-11.2775,-11.3612,-11.4993,-11.6913,-11.7318,-11.7914,-11.8527,-11.871,-11.8896,-11.8917,-11.8692,-11.8208,-11.7686,-11.8091,-11.8593,-11.9106,-11.9402,-11.9902,-12.0624,0.0,0.0,0.0,0.0,0.0,0.0,0.0,0.0,0.0,0.0,-0.6157,-0.72,-0.8678,-1.1204,-1.3368,-1.4918,-1.7084,-1.919,-2.1148,-2.3032,-2.4956,-2.7115,-2.8397,-2.9894,-3.1417,-3.2541,-3.3507,-3.4251,-3.4955,-3.5682,-3.6403,-3.6266,-3.6593,-3.7369,-3.6863,-3.7375,-3.8643,-3.9801,-4.1198,-4.2654,-4.3882,-4.4738,-4.523,-4.4567,-4.4256,-4.3807,-4.1103,-3.9814,-3.9414,-3.916,-4.0294,-4.1873,-4.2508,-4.383,-4.5376,-4.7163,-4.8207,-4.9491,-5.2186,-5.4503,-5.6351,-5.7288,-5.9573,-6.2173,-6.4265,-6.6318,-6.847,-7.1196,-7.3503,-7.5498,-7.6863,-7.9053,-8.0813,-8.1197,-8.2178,-8.3411,-8.4948,-8.5353,-8.5832,-8.7119,-8.6777,-8.711,-8.8819,-8.9381,-9.0298,-9.1973,-9.3924,-9.5277,-9.5735,-9.8581,-10.0507,-10.1088,-10.4218,-10.6067,-10.678,-10.8916,-11.0924,-11.2775,-11.3227,-11.4794,-11.7373,-11.7892,-11.9021,-12.0413,-12.0191,-11.982,-11.9403,-11.9319,-11.8801,-11.8196,-11.831,-11.9013,-11.9995,-12.0205,-12.0504,-12.1197,0.0,0.0,0.0,0.0,0.0,0.0,0.0,0.0,0.0,0.0,-0.6398,-0.7827,-0.9655,-1.1271,-1.2824,-1.4245,-1.6442,-1.8816,-2.1152,-2.3287,-2.5452,-2.7767,-2.9545,-3.0863,-3.1822,-3.3118,-3.3968,-3.4424,-3.436,-3.4583,-3.5037,-3.4582,-3.4138,-3.3711,-3.409,-3.4836,-3.5968,-3.8246,-4.0209,-4.2012,-4.4415,-4.5622,-4.598,-4.5662,-4.5235,-4.4516,-4.2108,-4.0707,-3.9933,-3.9318,-3.9508,-4.0259,-4.1807,-4.3653,-4.5726,-4.7932,-4.978,-5.1598,-5.3966,-5.4972,-5.6117,-5.9287,-6.2676,-6.5688,-6.7578,-7.0129,-7.2689,-7.4905,-7.5826,-7.6995,-7.9521,-8.1026,-8.2201,-8.3337,-8.4911,-8.6045,-8.6241,-8.6943,-8.7193,-8.6582,-8.6697,-8.6821,-8.7078,-8.8127,-8.9292,-9.0434,-9.2839,-9.4681,-9.5854,-9.7627,-9.9402,-10.0975,-10.3776,-10.5799,-10.678,-10.9583,-11.1612,-11.2775,-11.3908,-11.5396,-11.7373,-11.8825,-12.0497,-12.2188,-12.0781,-12.0303,-12.0409,-11.9626,-11.8886,-11.8208,-11.8318,-11.8286,-11.8388,-11.8985,-12.0694,-12.281,0.0,0.0,0.0,0.0,0.0,0.0,0.0,0.0,0.0,0.0,0.0,0.0,0.0,0.0,0.0,0.0,-1.6468,-1.8547,-2.0957,-2.3366,-2.5542,-2.7505,-2.9599,-3.1185,-3.2123,-3.3256,-3.4144,-3.4773,-3.4476,-3.4244,-3.3903,-3.2583,-3.1634,-3.1039,-3.0219,-3.0812,-3.2663,-3.5402,-3.8218,-4.1057,-4.4331,-4.6373,-4.746,-4.7647,-4.6751,-4.5166,0.0,-4.232,-4.0898,-4.0155,-4.0341,-4.0952,-4.2119,-4.2817,-4.3862,-4.6463,-5.0379,-5.4051,-5.5496,-5.7908,-6.0593,-6.3128,-6.5807,-6.8328,-7.0409,-7.2726,-7.487,-7.6511,-7.8109,-7.9413,-7.9929,-8.0982,-8.192,-8.2542,-8.3446,-8.4619,-8.5976,-8.6771,-8.718,-8.7064,-8.6639,-8.6586,-8.7108,-8.8032,-8.8977,-8.9957,-9.243,-9.4049,-9.441,-9.7218,-9.933,-10.0582,-10.3189,-10.4996,-10.6133,-10.84,-11.0265,-11.1976,-11.509,-11.6906,-11.7792,-11.9105,-12.0103,-12.0779,-12.0383,-11.9992,-11.9591,-11.9396,-11.8912,-11.8214,-11.8202,-11.8491,-11.9012,-11.9104,-12.0298,-12.2005,0.0,0.0,0.0,0.0,0.0,0.0,0.0,0.0,0.0,0.0,0.0,0.0,0.0,0.0,0.0,0.0,0.0,-1.8388,-2.0587,-2.3231,-2.5523,-2.7472,-2.9545,-3.1325,-3.2692,-3.3471,-3.4309,-3.527,-3.4658,-3.4061,-3.3455,-3.1566,-3.0045,-2.8788,-2.7665,-2.8103,-2.985,-3.2942,-3.648,-4.0257,-4.3859,-4.6393,-4.8083,-4.7916,-4.691,0.0,-4.4209,-4.2746,-4.1231,-4.0482,-4.057,-4.1004,-4.1874,-4.3048,-4.4781,-4.7434,-5.1645,-5.575,-5.7574,-6.0314,-6.3333,-6.6159,-6.8258,-7.0293,-7.2831,-7.4762,-7.6373,-7.7792,-7.9092,-7.9847,-7.9768,-8.0318,-8.1058,-8.1625,-8.2573,-8.3876,-8.5843,-8.6756,-8.7242,-8.7358,-8.6929,-8.6762,-8.6986,-8.8091,-8.9103,-8.9906,-9.2024,-9.353,-9.3889,-9.6599,-9.8712,-9.984,-10.2372,-10.429,-10.534,-10.7586,-10.9903,-11.2213,-11.5472,-11.7393,-11.8015,-11.9107,-11.979,-12.0021,-12.0197,-11.9909,-11.9221,-11.9297,-11.8898,-11.8193,-11.8193,-11.8512,-11.8895,-11.8774,-11.952,-12.0684,0.0,0.0,0.0,0.0,0.0,0.0,0.0,0.0,0.0,0.0,0.0,0.0,0.0,0.0,0.0,0.0,0.0,0.0,-2.0083,-2.2849,-2.5421,-2.7628,-2.9372,-3.1309,-3.3504,-3.3835,-3.4614,-3.5976,-3.494,-3.416,-3.3557,-3.1467,-2.9187,-2.6758,-2.6369,-2.6541,-2.7394,-3.0927,-3.4983,-3.9365,-4.2923,-4.5706,-4.7589,-4.6813,-4.579,-4.4643,-4.3501,-4.229,-4.121,-4.0413,-4.0342,-4.0696,-4.1442,-4.4496,-4.8316,-5.0574,-5.3504,-5.677,-6.0158,-6.2149,-6.4202,-6.8194,-6.9933,-7.154,-7.4762,-7.6266,-7.7375,-7.8856,-7.8839,-7.8664,-7.8935,-7.9163,-7.9631,-8.0783,-8.2296,-8.4012,-8.5731,-8.6797,-8.7321,-8.7455,-8.7567,-8.7415,-8.6626,-8.8179,-8.9495,-9.0212,-9.177,-9.3105,-9.4104,-9.5876,-9.7475,-9.8854,-10.1686,-10.3601,-10.4313,-10.7187,-11.0297,-11.3315,-11.51,-11.6585,-11.7905,-11.8913,-11.9477,-11.9888,-12.0094,-11.9786,-11.9191,-11.9207,-11.8912,-11.8281,-11.8185,-11.8209,-11.8105,-11.7897,-11.8314,-11.9198,0.0,0.0,0.0,0.0,0.0,0.0,0.0,0.0,0.0,0.0,0.0,0.0,0.0,0.0,0.0,0.0,0.0,0.0,-1.9712,-2.2207,-2.4599,-2.6854,-2.9121,-3.1434,-3.3755,-3.4502,-3.5646,-3.7238,-3.6026,-3.4895,-3.3782,-3.0545,-2.7671,-2.5206,-2.3173,-2.2918,-2.4288,-2.7513,-3.1741,-3.657,-4.0863,-4.4249,-4.6778,-4.7298,-4.6379,-4.4774,-4.4403,-4.3059,-4.1386,-4.1774,-4.2731,-4.3875,-4.5096,-4.7466,-5.0119,-5.2207,-5.5685,-5.9425,-6.1704,-6.4786,-6.7794,-6.9832,-7.1796,-7.3618,-7.5438,-7.6718,-7.7674,-7.8519,-7.8872,-7.8565,-7.7087,-7.8027,-7.8947,-7.8741,-8.1168,-8.3472,-8.4454,-8.6476,-8.7527,-8.6834,-8.7431,-8.784,-8.7652,-8.8677,-8.9763,-9.0646,-9.2052,-9.3013,-9.3443,-9.5574,-9.727,-9.8499,-10.099,-10.2694,-10.3813,-10.6581,-10.9314,-11.1689,-11.2905,-11.4099,-11.5281,-11.5699,-11.6095,-11.6279,-11.6492,-11.6884,-11.7387,-11.7491,-11.7788,-11.8281,-11.8208,-11.819,-11.8105,-11.7897,-11.8415,-11.8981,0.0,0.0,0.0,0.0,0.0,0.0,0.0,0.0,0.0,0.0,0.0,0.0,0.0,0.0,0.0,0.0,0.0,0.0,0.0,-2.1864,-2.4271,-2.6672,-2.8566,-3.1025,-3.4129,-3.4699,-3.5879,-3.7801,-3.6621,-3.5279,-3.3746,-3.0489,-2.7267,-2.4074,-2.1842,-2.1394,-2.2469,-2.5379,-2.956,0.0,0.0,-4.2021,-4.4802,-4.5257,-4.4916,-4.4141,-4.3701,-4.3048,-4.2618,-4.415,-4.518,-4.618,-4.7672,-5.0155,-5.2927,-5.5229,-5.8708,-6.2388,-6.477,-6.744,-7.0113,-7.2014,-7.3404,-7.4616,-7.6027,-7.6934,-7.7395,-7.7229,-7.7254,-7.6787,-7.496,-7.5795,-7.6965,-7.7457,-7.9688,-8.2059,-8.4016,-8.5574,-8.6666,-8.711,-8.7758,-8.8277,-8.8496,-8.9801,-9.0826,-9.1369,-9.2458,-9.3159,-9.3305,-9.5591,-9.7233,-9.7724,-10.0199,-10.2413,-10.4191,-10.5893,-10.7978,-11.0539,-11.14,-11.2478,-11.3777,-11.4387,-11.4778,-11.5015,-11.5194,-11.5697,-11.6306,-11.6689,-11.7218,-11.7812,-11.8091,-11.8179,-11.808,-11.7993,-11.8398,-11.8994,0.0,0.0,0.0,0.0,0.0,0.0,0.0,0.0,0.0,0.0,0.0,0.0,0.0,0.0,0.0,0.0,0.0,0.0,0.0,0.0,-2.4065,-2.6549,-2.7953,-3.0447,-3.4147,-3.4629,-3.5849,-3.7841,-3.6918,-3.5514,-3.3769,-3.0857,-2.7374,-2.3555,-2.1698,-2.1089,-2.1634,-2.4019,-2.8022,-3.3059,-3.6215,-3.9441,-4.2493,0.0,-4.2709,-4.3041,-4.2123,-4.2703,-4.423,-4.6542,-4.7446,-4.7871,-4.997,-5.2886,-5.5991,-5.8734,-6.1966,-6.5277,-6.8065,-7.0047,-7.1835,-7.4147,-7.4785,-7.5308,-7.6591,-7.6997,-7.6677,-7.5662,-7.5016,-7.4249,-7.2837,-7.3379,-7.4598,-7.6399,-7.805,-8.0349,-8.3726,-8.4367,-8.5298,-8.7457,-8.8003,-8.8469,-8.9054,-9.0736,-9.1874,-9.1988,-9.2896,-9.3539,-9.3713,-9.5976,-9.7323,-9.7441,-9.9838,-10.2294,-10.4736,-10.4882,-10.6414,-10.9141,-10.9964,-11.1204,-11.2697,-11.3694,-11.4313,-11.4719,-11.4883,-11.5112,-11.5505,-11.6384,-11.6796,-11.7107,-11.7901,-11.82,-11.8196,-11.8099,-11.8384,-11.8889,0.0,0.0,0.0,0.0,0.0,0.0,0.0,0.0,0.0,0.0,-1.2263,-1.282,0.0,0.0,0.0,0.0,0.0,0.0,0.0,0.0,0.0,-2.5721,-2.7653,-2.9923,-3.2536,-3.446,-3.6158,-3.7742,-3.697,-3.5869,-3.4517,-3.0554,-2.7152,-2.4282,-2.1576,-2.067,-2.128,-2.3004,-2.6403,-3.0885,-3.4203,-3.7426,-4.0341,-4.1673,0.0,0.0,-4.2029,-4.263,-4.3833,-4.6441,-4.8257,-4.9983,-5.3456,-5.6025,-5.8324,-6.148,-6.4588,-6.7409,-6.9056,-7.1588,-7.4039,-7.4971,-7.5843,-7.6773,-7.7413,-7.6712,-7.579,-7.518,-7.4206,-7.2987,-7.1288,-7.2402,-7.3846,-7.4784,-7.6941,-7.9479,-8.2066,-8.3672,-8.4956,-8.5939,-8.6845,-8.7651,-8.8482,-8.9528,-9.0499,-9.1218,-9.2658,-9.4135,-9.5537,-9.662,-9.8025,-10.0086,-10.0912,-10.1924,-10.3094,-10.3211,-10.4376,-10.6591,-10.688,-10.8406,-11.0883,-11.1405,-11.2019,-11.2891,-11.3094,-11.3613,-11.4503,-11.5401,-11.6313,-11.7109,-11.7916,-11.8201,-11.819,-11.8093,-11.8122,-11.8287,0.0,0.0,0.0,0.0,0.0,0.0,0.0,-1.2312,-1.2896,-1.3243,-1.4094,-1.4572,-1.4289,-1.4974,-1.5895,0.0,0.0,0.0,0.0,0.0,0.0,-2.5867,-2.7648,-2.9823,-3.2431,-3.4144,-3.5636,-3.697,0.0,-3.5099,-3.3635,-3.0052,-2.7023,-2.4417,-2.1793,-2.0917,-2.1512,-2.27,-2.5494,-2.9334,-3.2639,-3.5696,-3.8468,-3.9849,0.0,0.0,-4.2034,-4.2834,-4.3936,-4.6523,-4.9037,-5.166,-5.4831,-5.7933,-6.0866,-6.3367,-6.6553,-6.9608,-7.1232,-7.3704,-7.6061,-7.7009,-7.7684,-7.8057,-7.7645,-7.6521,-7.4985,-7.3091,-7.2439,-7.163,-6.9926,-7.1103,-7.2622,-7.3416,-7.4973,-7.7059,-7.9924,-8.1066,-8.246,-8.4805,-8.562,-8.6425,-8.7625,-8.8972,-8.998,-9.0396,-9.2405,-9.3959,-9.4755,-9.6332,-9.7999,-9.972,-10.0337,-10.1292,-10.2792,-10.3018,-10.4023,-10.5985,-10.6583,-10.791,-10.9803,-11.0593,-11.1398,-11.2398,-11.2604,-11.299,-11.3591,-11.4998,-11.5914,-11.6482,-11.7811,-11.8297,-11.8209,-11.8179,-11.8417,-11.8676,0.0,0.0,0.0,0.0,0.0,0.0,0.0,-1.3155,-1.378,-1.464,-1.5799,-1.6302,-1.5568,-1.5945,-1.6578,0.0,0.0,0.0,0.0,0.0,0.0,0.0,0.0,0.0,-3.2332,0.0,0.0,-3.6118,-3.5357,0.0,0.0,0.0,0.0,0.0,-2.2863,-2.2174,-2.2643,-2.3455,-2.556,0.0,0.0,-3.439,-3.6821,0.0,0.0,0.0,0.0,-4.3049,-4.4178,-4.6894,-4.9538,-5.2366,-5.5065,-5.8831,-6.2756,-6.4801,-6.8009,-7.1268,-7.323,-7.5462,-7.7573,-7.8898,-7.9166,-7.887,-7.784,-7.6177,-7.4154,-7.1433,-7.084,-7.034,-6.8783,-6.9842,-7.1248,-7.2276,-7.2963,-7.46,-7.8058,-7.8742,-8.0102,-8.3482,-8.4324,-8.5204,-8.6501,-8.8264,-8.9373,-8.9525,-9.1875,-9.3542,-9.4111,-9.6309,-9.7954,-9.8756,-9.9644,-10.0773,-10.2522,-10.282,-10.3811,-10.5492,-10.6591,-10.7798,-10.93,-11.0201,-11.1312,-11.2398,-11.2604,-11.2815,-11.3015,-11.4621,-11.5506,-11.5915,-11.7381,-11.8115,-11.8187,-11.8218,-11.8613,-11.908,0.0,0.0,0.0,0.0,0.0,0.0,0.0,-1.3713,-1.452,-1.602,-1.661,-1.7135,-1.7493,-1.7565,-1.7688,0.0,0.0,0.0,0.0,0.0,0.0,0.0,0.0,0.0,0.0,0.0,0.0,-3.5416,-3.4722,0.0,0.0,0.0,0.0,0.0,0.0,-2.5009,-2.5557,-2.5864,0.0,0.0,0.0,0.0,0.0,0.0,0.0,0.0,0.0,-4.3105,-4.4687,-4.7439,-4.9464,-5.132,-5.4663,-5.8593,-6.2649,-6.571,-6.8803,-7.1656,-7.3715,-7.5922,-7.8085,-7.9464,-7.9396,-7.8779,-7.8368,-7.5858,-7.3225,-7.1745,-7.0391,-6.9183,-6.8171,-6.8782,-6.9928,-7.1422,-7.1665,-7.3078,-7.7303,-7.8484,-7.9581,-8.1393,-8.2949,-8.424,-8.5052,-8.6644,-8.7933,-8.8653,-9.1003,-9.3429,-9.5741,-9.7522,-9.8561,-9.8794,-9.9708,-10.0391,-10.0833,-10.169,-10.2835,-10.3894,-10.4906,-10.6834,-10.941,-10.9678,-11.0799,-11.2398,-11.2604,-11.2697,-11.2873,-11.401,-11.4901,-11.5805,-11.6714,-11.7612,-11.8297,-11.8304,-11.8307,-11.8379,0.0,0.0,0.0,0.0,0.0,0.0,-1.3847,-1.4541,-1.537,-1.6327,-1.7741,-1.8672,-1.8844,-1.9103,-1.9069,-1.8573,0.0,0.0,0.0,0.0,0.0,0.0,0.0,0.0,0.0,0.0,-3.389,-3.4482,-3.3676,0.0,0.0,0.0,0.0,0.0,0.0,-2.5621,-2.6208,-2.649,0.0,0.0,0.0,0.0,0.0,0.0,0.0,0.0,0.0,0.0,-4.4705,-4.6191,-4.863,-5.129,-5.3388,-5.7172,-6.1388,-6.4393,-6.782,-7.1204,-7.3589,-7.6235,-7.8644,-7.9837,-7.9729,-7.9152,-7.8685,-7.612,-7.3491,-7.2078,-7.0584,-6.9194,-6.833,-6.8024,-6.8292,-6.9391,-6.9092,-7.0018,-7.3667,-7.4402,-7.5856,-7.9429,-8.0828,-8.2228,-8.3953,-8.6114,-8.835,-9.0662,-9.1723,-9.3163,-9.521,-9.702,-9.8034,-9.8098,-9.9542,-10.092,-10.2188,-10.2708,-10.3689,-10.5284,-10.6411,-10.7795,-10.9514,-11.0174,-11.1216,-11.2398,-11.2619,-11.2694,-11.2893,-11.4403,-11.4894,-11.5094,-11.7013,-11.7617,-11.761,-11.8116,-11.7887,-11.7487,0.0,0.0,0.0,0.0,0.0,-1.4297,-1.4798,-1.5468,-1.6252,-1.7044,-1.8765,-1.993,-1.9955,-2.0232,-2.0202,-1.9726,-2.0008,0.0,0.0,0.0,0.0,0.0,0.0,0.0,0.0,0.0,-3.2931,-3.3713,-3.3046,-3.2486,0.0,0.0,-2.912,-2.8487,0.0,0.0,0.0,0.0,0.0,0.0,0.0,0.0,0.0,0.0,0.0,0.0,0.0,0.0,0.0,0.0,0.0,-5.0864,-5.2434,-5.5519,-5.9373,-6.2939,-6.688,-7.0615,-7.3019,-7.5984,-7.869,-7.9865,-7.9781,-7.9258,-7.8751,-7.5997,-7.3176,-7.1986,-7.0285,-6.8809,-6.8155,-6.7564,-6.7346,-6.7856,-6.7407,-6.807,-7.1099,-7.1663,-7.3139,-7.7037,-7.8595,-8.0224,-8.2292,-8.5469,-8.8767,-9.2064,-9.2292,-9.3012,-9.4717,-9.654,-9.7604,-9.7703,-9.9717,-10.1521,-10.2976,-10.3607,-10.4701,-10.6099,-10.7104,-10.8292,-10.9614,-11.0283,-11.1293,-11.253,-11.2594,-11.2711,-11.2912,-11.4117,-11.4488,-11.4599,-11.6398,-11.6904,-11.6718,-11.7282,-11.7101,-11.6578,0.0,0.0,0.0,0.0,0.0,0.0,-1.6097,-1.6468,-1.7184,-1.8522,-1.964,-2.0445,-2.0935,-2.0953,-2.0978,-2.1273,-2.0531,0.0,0.0,0.0,0.0,0.0,0.0,0.0,0.0,0.0,-3.1983,-3.3291,-3.3093,-3.2649,-3.1989,-3.1752,-3.0991,-2.9759,0.0,0.0,0.0,0.0,0.0,0.0,0.0,0.0,-3.8501,0.0,0.0,0.0,0.0,0.0,0.0,0.0,0.0,0.0,0.0,-5.4009,-5.6564,-6.1793,-6.6295,-6.9978,-7.1849,-7.4997,-7.8134,-7.9463,-7.9347,-7.8789,-7.8279,-7.5027,-7.1964,-7.1309,-6.9237,-6.7518,-6.7437,-6.7371,-6.7325,-6.7325,-6.7154,-6.7933,-7.0525,-7.1398,-7.2396,-7.4052,-7.6348,-7.8407,-7.9878,-8.4492,-8.8767,-9.2064,-9.2292,-9.3012,-9.4717,-9.6641,-9.7703,-9.7703,-10.0385,-10.2004,-10.2227,-10.4121,-10.5095,-10.5293,-10.6294,-10.7671,-10.9601,-10.9693,-11.0778,-11.2583,-11.2619,-11.2611,-11.2694,-11.2892,-11.3506,-11.4308,-11.4404,-11.5017,-11.5703,-11.5703,-11.5696,-11.5709,0.0,0.0,0.0,0.0,0.0,0.0,0.0,-1.7011,-1.7445,-1.8041,-1.9069,-2.0061,-2.119,-2.1197,-2.1391,-2.1872,-2.1122,0.0,0.0,0.0,0.0,0.0,0.0,0.0,0.0,0.0,-3.1505,-3.2336,-3.2447,-3.2502,-3.2437,-3.1162,-3.049,-3.036,-2.946,-2.9351,0.0,0.0,0.0,0.0,0.0,-3.7219,-3.897,0.0,0.0,0.0,0.0,0.0,0.0,0.0,0.0,0.0,0.0,0.0,0.0,-5.9023,-6.2755,-6.6679,-6.9424,-7.1632,-7.3598,-7.5437,-7.5427,-7.5097,-7.5774,-7.4063,-7.2119,-7.1551,-6.9828,-6.8259,-6.7658,-6.7038,-6.6784,-6.7277,-6.7263,-6.7884,-6.9862,-7.0643,-7.2071,-7.4805,-7.8637,-8.1901,-8.4144,-8.626,-8.8378,-9.0675,-9.1929,-9.3031,-9.4171,-9.6057,-9.7286,-9.7665,-9.9946,-10.1476,-10.2227,-10.3507,-10.452,-10.5407,-10.6905,-10.8393,-10.9693,-10.9819,-11.0523,-11.1689,-11.1093,-11.0893,-11.0982,-11.1607,-11.2091,-11.2617,-11.3892,-11.45,-11.4816,-11.4802,-11.4413,-11.3899,0.0,0.0,0.0,0.0,0.0,0.0,0.0,-1.789,-1.8227,-1.8464,-1.9368,-2.044,-2.1696,-2.1921,-2.2264,-2.2923,-2.2209,0.0,0.0,0.0,0.0,0.0,0.0,0.0,-2.8015,-2.9522,-3.0758,-3.1648,-3.2529,-3.2936,-3.2866,-3.2218,-3.1737,-3.1356,-3.0585,-3.0486,0.0,0.0,0.0,0.0,-3.6317,-3.7567,-3.9156,0.0,0.0,0.0,0.0,0.0,0.0,0.0,0.0,0.0,0.0,0.0,0.0,0.0,-6.0422,-6.3522,-6.7122,-6.9399,-7.1284,-7.3303,-7.353,-7.3542,-7.4306,-7.2993,-7.1492,-7.1159,-6.9467,-6.7937,-6.7709,-6.6954,-6.6513,-6.6941,-6.6935,-6.7602,-6.9577,-7.0063,-7.1674,-7.5566,-7.9362,-8.2665,-8.5262,-8.6774,-8.8333,-9.0136,-9.1461,-9.2802,-9.4075,-9.5509,-9.6661,-9.7456,-9.9753,-10.1383,-10.2317,-10.3324,-10.4215,-10.501,-10.6508,-10.7795,-10.8888,-10.9293,-10.9993,-11.0807,-11.0301,-11.0099,0.0,-11.079,-11.11,-11.1291,-11.2385,-11.29,-11.2908,-11.299,-11.2615,-11.2187,0.0,0.0,0.0,0.0,0.0,0.0,0.0,-1.894,-1.9436,-1.9531,-2.0378,-2.1338,-2.237,-2.2988,-2.3563,-2.4173,0.0,0.0,0.0,0.0,0.0,0.0,0.0,0.0,-2.7015,-2.8414,-2.9799,-3.1109,-3.2989,-3.3641,-3.3122,-3.4291,-3.3983,-3.247,-3.257,-3.2525,-3.2442,0.0,0.0,0.0,-3.6886,-3.7963,0.0,0.0,0.0,0.0,0.0,0.0,0.0,0.0,0.0,0.0,0.0,0.0,0.0,0.0,0.0,0.0,0.0,-6.7942,-7.0546,-7.2371,-7.3061,-7.3311,-7.3446,-7.1727,0.0,-7.0222,-6.8358,-6.6919,-6.7665,-6.7091,-6.6516,-6.6566,-6.6458,-6.7209,-6.9579,-6.9951,-7.1697,-7.6338,-7.9018,-8.146,-8.3902,-8.6257,-8.8352,-9.0116,-9.0981,-9.2245,-9.4032,-9.5069,-9.604,-9.7053,-9.9593,-10.1402,-10.2404,-10.3406,-10.4093,-10.4287,-10.5177,-10.6223,-10.7197,-10.809,-10.9019,-10.9882,-10.9988,-10.9991,-11.0011,-11.0011,-11.0104,-11.0106,-11.0187,-11.0314,-11.0284,-11.0401,-11.0403,-11.0312,0.0,0.0,0.0,0.0,0.0,0.0,0.0,0.0,0.0,0.0,-2.065,-2.1583,-2.2444,-2.3472,-2.4232,0.0,0.0,0.0,0.0,0.0,0.0,0.0,0.0,0.0,-2.6469,-2.7778,-2.908,-3.0343,-3.1669,-3.2231,-3.2127,-3.1952,-3.1987,-3.2092,-3.1388,-3.1803,-3.3152,-3.3354,0.0,0.0,-3.717,-3.8317,0.0,0.0,0.0,0.0,-4.3498,-4.4213,0.0,0.0,0.0,0.0,0.0,0.0,0.0,0.0,-5.9054,-6.0815,-6.2666,0.0,-6.6304,-6.7676,-6.851,-6.9245,0.0,-6.9809,-6.92,-6.8655,-6.8071,-6.7669,-6.7852,-6.7111,-6.692,-6.8186,-6.8276,-6.8625,-6.98,-7.2572,-7.5549,-7.8497,-8.0997,-8.2988,-8.4364,-8.6088,-8.7578,-8.8806,-9.0222,-9.1565,-9.2718,-9.4254,-9.5598,-9.6556,-9.7896,-9.9283,-10.071,-10.2395,-10.3306,-10.3398,-10.4411,-10.538,-10.6304,-10.6585,-10.7293,-10.8094,-10.8198,-10.7889,-10.7285,-10.7285,-10.7416,-10.7494,-10.8198,-10.8507,-10.85,-10.8597,-10.8184,-10.7508,0.0,0.0,0.0,0.0,0.0,0.0,0.0,0.0,0.0,0.0,0.0,-2.2295,-2.3499,-2.436,0.0,0.0,0.0,0.0,0.0,0.0,0.0,0.0,0.0,-2.4803,-2.6141,-2.734,-2.8543,-2.9777,-3.1167,-3.1983,-3.2176,-3.2214,-3.2325,-3.2508,-3.1979,-3.2406,-3.3673,-3.4055,-3.5154,-3.6726,-3.7611,0.0,0.0,0.0,0.0,0.0,-4.3687,-4.4528,0.0,-4.7553,-4.9133,-5.0488,0.0,0.0,0.0,0.0,-5.8591,-5.9931,-6.1387,-6.2993,-6.4715,-6.661,-6.7432,-6.8136,-6.9535,-6.9184,-6.8483,-6.8105,-6.7657,-6.7364,-6.7353,-6.7217,-6.7436,-6.8326,-6.8696,-6.9421,-7.0876,-7.4641,-7.7754,-7.9363,-8.1713,-8.363,-8.4512,-8.6084,-8.7463,-8.8418,-8.9722,-9.1026,-9.2399,-9.3743,-9.493,-9.5919,-9.7182,-9.8488,-9.9767,-10.0794,-10.158,-10.2078,-10.2976,-10.3988,-10.4919,-10.5388,-10.5921,-10.6388,-10.6508,-10.6312,-10.5919,-10.5897,-10.589,-10.6013,-10.6494,-10.6713,-10.6802,-10.6801,-10.6497,-10.599,0.0,0.0,0.0,0.0,0.0,0.0,0.0,0.0,0.0,0.0,0.0,0.0,0.0,0.0,0.0,0.0,0.0,0.0,0.0,0.0,0.0,0.0,-2.394,-2.474,-2.6093,-2.7024,-2.8144,-2.9461,-3.0875,-3.1873,-3.2366,-3.3162,-3.3368,-3.3132,-3.313,-3.3467,-3.4031,-3.4731,-3.5855,-3.7192,-3.815,0.0,0.0,0.0,0.0,0.0,0.0,0.0,0.0,-4.8311,-4.9887,-5.1157,-5.2353,0.0,0.0,0.0,0.0,0.0,-6.1002,-6.2782,-6.4636,-6.6789,-6.7576,-6.8203,-6.9674,-6.8865,-6.7812,-6.7875,-6.7282,-6.6789,-6.7034,-6.7548,-6.802,-6.8345,-6.9072,-7.0409,-7.2684,-7.6172,-7.8758,-7.9569,-8.1914,-8.3725,-8.4391,-8.6035,-8.7521,-8.8551,-8.9321,-9.0543,-9.2441,-9.3258,-9.41,-9.503,-9.6568,-9.7797,-9.8747,-9.9134,-9.9792,-10.069,-10.1492,-10.2201,-10.3026,-10.3994,-10.4522,-10.46,-10.4694,-10.4806,-10.4783,-10.4712,-10.4609,-10.4506,-10.4684,-10.4822,-10.4822,-10.5006,-10.4897,-10.4819,0.0,0.0,0.0,0.0,0.0,0.0,0.0,0.0,0.0,0.0,0.0,0.0,0.0,0.0,0.0,0.0,0.0,0.0,0.0,0.0,0.0,-2.4981,-2.4383,-2.4956,-2.6702,-2.6554,-2.7506,-2.9653,-2.9573,-3.0168,-3.1353,-3.1831,-3.2326,-3.2711,-3.2942,-3.3505,-3.431,-3.4488,-3.574,-3.7748,-3.8676,0.0,0.0,0.0,0.0,0.0,0.0,0.0,0.0,-4.8053,-5.0075,-5.171,-5.1594,0.0,0.0,0.0,0.0,0.0,-6.1979,-6.3798,-6.5095,-6.4822,-6.5826,-6.6966,-6.7298,-6.7188,-6.6993,-6.7,-6.6883,-6.722,-6.8622,-6.8398,-6.8666,-7.0745,-7.173,-7.3083,-7.5537,-7.6993,-7.8348,-7.9797,-8.2198,-8.3779,-8.3903,-8.5514,-8.7172,-8.8745,-8.8977,-8.9856,-9.1647,-9.2595,-9.3157,-9.3435,-9.4408,-9.5364,-9.6216,-9.8452,-9.9615,-9.9824,-10.008,-10.0182,-10.0313,-10.1284,-10.2109,-10.2888,-10.3002,-10.2997,-10.2913,-10.2295,-10.1581,-10.1111,-10.1807,-10.2099,-10.2195,-10.2906,-10.2789,-10.2086,0.0,0.0,0.0,0.0,0.0,0.0,0.0,0.0,0.0,0.0,0.0,0.0,0.0,0.0,0.0,0.0,0.0,0.0,0.0,0.0,-2.6765,-2.5962,-2.5636,-2.5889,-2.6761,-2.6778,-2.7924,-3.0261,-3.025,-3.0795,-3.1945,-3.2068,-3.2313,-3.2637,-3.2565,-3.3239,-3.4428,-3.4539,-3.5945,-3.8123,0.0,0.0,0.0,0.0,0.0,0.0,0.0,0.0,0.0,0.0,-5.0065,-5.213,-5.2158,0.0,0.0,0.0,0.0,0.0,-6.1039,-6.3058,-6.477,-6.4925,-6.6564,-6.8163,-6.8205,-6.82,-6.8189,-6.8189,-6.8189,-6.8457,-6.9209,-6.9761,-7.0909,-7.3377,-7.4412,-7.5449,-7.6975,-7.8734,-8.0082,-8.0679,-8.3034,-8.4579,-8.4493,-8.6163,-8.7543,-8.8393,-8.9328,-9.0351,-9.1577,-9.2534,-9.2897,-9.2509,-9.3724,-9.4627,-9.504,-9.6242,-9.7561,-9.8957,-9.9032,-9.9289,-9.9755,-10.0196,-10.061,-10.0981,-10.1193,-10.1188,-10.1205,-10.0905,-10.0514,-10.0186,-10.0694,-10.0907,-10.0883,-10.1304,-10.1199,-10.0805,0.0,0.0,0.0,0.0,0.0,0.0,0.0,0.0,0.0,0.0,0.0,0.0,0.0,0.0,0.0,0.0,0.0,0.0,0.0,0.0,-2.721,-2.6731,-2.6789,-2.6954,-2.7011,-2.7232,-2.849,-3.0836,-3.09,-3.1682,-3.3106,-3.2967,-3.2923,-3.2956,-3.2671,-3.3239,-3.4501,-3.4826,-3.6344,-3.8687,0.0,0.0,0.0,0.0,0.0,0.0,0.0,0.0,0.0,0.0,0.0,0.0,0.0,0.0,0.0,-5.6979,-5.7916,-5.8856,-6.0448,-6.2366,-6.4123,-6.5072,-6.7073,-6.8956,-6.9557,-6.955,-6.9499,-6.9928,-7.0001,-6.9996,-7.0024,-7.1386,-7.3219,-7.5493,-7.6505,-7.735,-7.8318,-8.0179,-8.1491,-8.1774,-8.3734,-8.5062,-8.5187,-8.6687,-8.7823,-8.8338,-8.959,-9.0725,-9.1655,-9.2469,-9.2649,-9.2004,-9.3192,-9.3953,-9.4234,-9.421,-9.5297,-9.747,-9.7494,-9.7867,-9.8551,-9.8581,-9.8702,-9.8917,-9.9054,-9.9185,-9.9397,-9.9553,-9.959,-9.9601,-9.9649,-9.9822,-9.9985,-9.9988,-9.9999,-9.9961,0.0,0.0,0.0,0.0,0.0,0.0,0.0,0.0,0.0,0.0,0.0,0.0,0.0,0.0,0.0,0.0,0.0,0.0,0.0,0.0,-2.7722,-2.7334,-2.735,-2.7534,-2.7987,-2.7742,-2.8672,-3.0895,-3.0598,-3.1722,-3.4196,-3.4283,-3.4168,-3.3814,-3.3864,-3.4056,-3.446,-3.5349,-3.7193,-3.9549,-3.9854,0.0,0.0,0.0,0.0,0.0,0.0,0.0,0.0,0.0,0.0,0.0,0.0,0.0,-5.494,-5.675,-5.742,-5.8338,-6.1701,-6.2795,-6.3208,-6.4169,-6.5759,-6.7682,-7.0067,-6.9989,-6.9872,-7.1473,-7.1811,-7.1792,-7.1792,-7.3133,-7.4817,-7.6598,-7.7531,-7.8565,-8.0165,-8.0514,-8.1152,-8.2677,-8.3684,-8.4576,-8.539,-8.6281,-8.7444,-8.9072,-8.9329,-9.0104,-9.1694,-9.1975,-9.206,-9.2022,-9.2138,-9.2565,-9.338,-9.3308,-9.3749,-9.4679,-9.4831,-9.4831,-9.4782,-9.4932,-9.5451,-9.6273,-9.6332,-9.6853,-9.7605,-9.7721,-9.7795,-9.7806,-9.7854,-9.8377,-9.908,-9.908,-9.9082,-9.8984,0.0,0.0,0.0,0.0,0.0,0.0,0.0,0.0,0.0,0.0,0.0,0.0,0.0,0.0,0.0,0.0,0.0,0.0,0.0,-2.792,-2.7997,-2.8042,-2.8185,-2.8248,-2.8094,-2.8618,-2.9902,-3.1818,-3.3062,-3.3917,-3.4385,-3.4109,-3.3707,-3.3196,-3.2831,-3.3335,-3.4614,-3.5006,-3.6996,-3.9932,-4.0006,-4.113,0.0,0.0,0.0,0.0,0.0,0.0,0.0,0.0,-4.9656,-5.1446,-5.1644,-5.3049,-5.4709,-5.5531,-5.6621,-5.7974,-5.9861,-6.1616,-6.313,-6.4018,-6.5594,-6.7441,-6.9411,-7.0467,-7.1521,-7.3273,-7.3618,-7.3764,-7.4278,-7.5319,-7.6457,-7.7556,-7.8442,-7.936,-8.0431,-8.1558,-8.2668,-8.3737,-8.4629,-8.5463,-8.6295,-8.7592,-8.8212,-8.7763,-8.9809,-9.1307,-9.1967,-9.2028,-9.2066,-9.2066,-9.2066,-9.195,-9.1672,-9.2193,-9.23,-9.1993,-9.3671,-9.4496,-9.4535,-9.4583,-9.4823,-9.5183,-9.5263,-9.5473,-9.5802,-9.5927,-9.599,-9.604,-9.6644,-9.7096,-9.7461,-9.7974,-9.8194,-9.8086,0.0,0.0,0.0,0.0,0.0,0.0,0.0,0.0,0.0,0.0,0.0,0.0,0.0,0.0,0.0,0.0,0.0,0.0,-2.8092,-2.8011,-2.8069,-2.8411,-2.8435,-2.8372,-2.8183,-2.9307,-3.0598,-3.2142,-3.4231,-3.4955,-3.4253,-3.359,-3.3242,-3.3205,-3.2807,-3.3519,-3.5076,-3.5507,-3.729,-3.9838,-4.0053,-4.114,0.0,0.0,0.0,0.0,0.0,0.0,0.0,0.0,-4.9214,-5.1214,-5.1628,-5.2702,-5.3994,-5.4895,-5.6102,-5.7456,-5.8904,-6.0672,-6.2382,-6.3545,-6.496,-6.6653,-6.8903,-7.0741,-7.2576,-7.4606,-7.5027,-7.5326,-7.6404,-7.6861,-7.755,-7.8857,-7.9567,-8.0182,-8.0956,-8.2357,-8.3587,-8.4357,-8.5194,-8.603,-8.6845,-8.795,-8.8378,-8.7675,-9.0418,-9.211,-9.211,-9.211,-9.1838,-9.1294,-9.1778,-9.1484,-9.0314,-9.0834,-9.0919,-9.0508,-9.2574,-9.3633,-9.3696,-9.3721,-9.3768,-9.3875,-9.4212,-9.4348,-9.4423,-9.4807,-9.4991,-9.5085,-9.5746,-9.6159,-9.649,-9.7081,-9.7293,-9.7225,0.0,0.0,0.0,0.0,0.0,0.0,0.0,0.0,0.0,0.0,0.0,0.0,0.0,0.0,0.0,0.0,0.0,0.0,-2.8725,-2.8152,-2.7989,-2.8411,-2.7969,-2.7929,-2.8414,-2.9609,-3.0662,-3.1517,-3.3503,-3.4262,-3.3755,-3.2969,-3.3122,-3.4086,-3.4394,-3.4964,-3.5849,-3.7074,-3.8151,-3.9193,-4.0095,-4.1071,-4.2014,0.0,0.0,0.0,0.0,0.0,0.0,0.0,-4.9238,-5.0436,-5.1314,-5.1851,-5.2605,-5.5207,-5.6078,-5.677,-5.9437,-6.0224,-6.0715,-6.2512,-6.3662,-6.5204,-6.8583,-7.0736,-7.2739,-7.5351,-7.5923,-7.6449,-7.8071,-7.7698,-7.798,-8.0576,-8.0874,-8.1087,-8.196,-8.2779,-8.3594,-8.4404,-8.526,-8.6138,-8.6903,-8.7019,-8.77,-8.9351,-9.112,-9.2092,-9.2032,-9.2071,-9.1294,-8.9546,-9.1096,-9.1151,-8.9421,-8.9275,-8.9629,-9.0469,-9.1386,-9.1812,-9.1786,-9.1863,-9.1912,-9.206,-9.3006,-9.3415,-9.3549,-9.4505,-9.4952,-9.5065,-9.5091,-9.5606,-9.6386,-9.6386,-9.6406,-9.6391,0.0,0.0,0.0,0.0,0.0,0.0,0.0,0.0,0.0,0.0,0.0,0.0,0.0,0.0,0.0,0.0,0.0,0.0,-2.897,-2.886,-2.8675,-2.8411,-2.8435,-2.8463,-2.8414,-2.9821,-3.1275,-3.278,-3.3482,-3.3564,-3.2969,-3.3276,-3.3166,-3.2713,-3.3903,-3.4477,-3.4692,-3.615,-3.7468,-3.8608,-3.9474,-4.0773,-4.2221,0.0,0.0,0.0,0.0,0.0,0.0,0.0,0.0,0.0,-5.0527,-5.1795,-5.3108,-5.3917,-5.5149,-5.6511,-5.791,-5.889,-5.9716,-6.0861,-6.3227,-6.5629,-6.7207,-6.9371,-7.1997,-7.5233,-7.6821,-7.781,-7.8323,-7.8702,-7.9197,-7.997,-8.054,-8.0952,-8.1236,-8.2491,-8.3687,-8.4596,-8.5389,-8.6203,-8.7074,-8.7806,-8.8126,-8.7778,-9.0461,-9.1024,-8.8632,-8.9623,-8.9856,-8.8963,-8.9715,-8.9632,-8.8499,-8.9382,-8.954,-8.8958,-9.0029,-9.0985,-9.1786,-9.1243,-9.1331,-9.1983,-9.1762,-9.1995,-9.2615,-9.2976,-9.3197,-9.333,-9.3934,-9.4731,-9.5488,-9.5488,-9.5886,-9.6244,0.0,0.0,0.0,0.0,0.0,0.0,0.0,0.0,0.0,0.0,0.0,0.0,0.0,0.0,0.0,0.0,0.0,0.0,0.0,-2.9449,-2.9112,-2.8861,-2.8622,-2.8491,-2.8662,-2.9683,-3.0757,-3.1858,-3.2408,-3.2468,-3.2071,-3.2359,-3.2659,-3.3066,-3.4158,-3.4836,-3.5111,-3.6179,-3.728,-3.838,-3.9246,-4.069,-4.2356,0.0,0.0,0.0,0.0,0.0,0.0,0.0,0.0,0.0,-5.0144,-5.1296,-5.2434,-5.3202,-5.4491,-5.6032,-5.7599,-5.8802,-5.9935,-6.1517,-6.3494,-6.5585,-6.739,-7.0116,-7.2923,-7.539,-7.6977,-7.8116,-7.878,-7.9366,-7.9945,-8.0641,-8.1148,-8.157,-8.1898,-8.3089,-8.4288,-8.5156,-8.5972,-8.6663,-8.7131,-8.779,-8.7845,-8.7078,-8.8924,-8.9761,-8.9059,-8.9118,-8.902,-8.8688,-8.8939,-8.86,-8.7561,-8.8326,-8.8507,-8.8157,-8.8505,-8.9383,-9.0753,-9.0611,-9.1074,-9.196,-9.1568,-9.1702,-9.2187,-9.2338,-9.2405,-9.2518,-9.3047,-9.3817,-9.4583,-9.4583,-9.4903,-9.5215,0.0,0.0,0.0,0.0,0.0,0.0,0.0,0.0,0.0,0.0,-3.1712,0.0,0.0,0.0,0.0,0.0,0.0,0.0,0.0,0.0,-2.9377,-2.9503,-2.8623,-2.8462,-2.9195,-2.942,-2.9669,-2.9794,-3.0667,-3.1167,-3.1215,-3.0857,-3.2012,-3.4361,-3.5013,-3.5686,-3.6432,-3.6883,-3.7515,-3.8267,-3.9268,-4.0679,-4.2316,-4.3378,0.0,0.0,0.0,0.0,0.0,0.0,0.0,0.0,-5.0122,-5.0602,-5.1162,-5.2884,-5.4103,-5.5447,-5.7869,-5.9309,-6.0681,-6.3226,-6.4236,-6.5507,-6.8786,-7.2084,-7.4718,-7.5585,-7.6469,-7.7609,-7.9287,-7.96,-8.0146,-8.1903,-8.2176,-8.2482,-8.3366,-8.4255,-8.5106,-8.5907,-8.6756,-8.7281,-8.7234,-8.7222,-8.7167,-8.7097,-8.7058,-8.8361,-9.1449,-8.9662,-8.8494,-8.8451,-8.8451,-8.7879,-8.6713,-8.6635,-8.701,-8.777,-8.697,-8.7472,-8.9124,-8.994,-9.0753,-9.1602,-9.186,-9.2031,-9.2109,-9.2245,-9.2327,-9.2405,-9.2479,-9.3018,-9.3778,-9.3724,-9.3732,-9.381,0.0,0.0,0.0,0.0,0.0,0.0,0.0,0.0,0.0,0.0,0.0,0.0,0.0,0.0,0.0,0.0,0.0,0.0,0.0,0.0,-2.9654,-2.8852,-2.9533,-3.017,-3.0663,-3.0408,-3.036,-3.0563,-3.0398,-3.0421,-3.0646,-3.1751,-3.2812,-3.3774,-3.5786,-3.6291,-3.5715,-3.7108,-3.7566,-3.737,-3.8296,-3.98,-4.1461,-4.1773,-4.2872,0.0,0.0,0.0,0.0,0.0,0.0,0.0,-5.0232,-5.1105,-5.1799,-5.2254,-5.36,-5.5048,-5.5668,-5.704,-5.8732,-6.0668,-6.4255,-6.7832,-6.9952,-7.2071,-7.3833,-7.4696,-7.6053,-7.7414,-7.8468,-7.8663,-7.9248,-8.1005,-8.1278,-8.1786,-8.3302,-8.4263,-8.5122,-8.5988,-8.6814,-8.7312,-8.7338,-8.7253,-8.7196,-8.7167,-8.7176,-8.7439,-8.805,-8.7584,-8.7272,-8.7287,-8.7158,-8.697,-8.6713,-8.6623,-8.6687,-8.688,-8.6687,-8.7267,-8.8466,-8.8507,-8.8723,-8.9033,-8.9858,-9.063,-9.127,-9.1349,-9.1782,-9.2405,-9.2479,-9.3018,-9.37,-9.3022,-9.3224,-9.3693,0.0,0.0,0.0,0.0,0.0,0.0,0.0,0.0,0.0,0.0,0.0,0.0,0.0,0.0,0.0,0.0,0.0,0.0,0.0,0.0,-2.9746,-2.8635,-2.9391,-2.9968,-3.0332,-3.0369,-3.0303,-3.0216,-3.0085,-3.0149,-3.0409,-3.093,-3.1979,-3.3528,-3.5256,-3.5722,-3.5397,-3.6681,-3.7322,-3.7525,-3.8154,-3.9735,-4.1691,-4.1915,-4.2939,-4.4258,-4.444,0.0,0.0,0.0,0.0,0.0,0.0,0.0,-5.1527,-5.2034,-5.2908,-5.3987,-5.5302,-5.6651,-5.8429,-6.1432,-6.5471,-6.8964,-6.9874,-7.1753,-7.3549,-7.4369,-7.5579,-7.6867,-7.8155,-7.839,-7.8975,-8.0732,-8.1005,-8.1591,-8.3269,-8.3926,-8.47,-8.5963,-8.6822,-8.7368,-8.7407,-8.7338,-8.7253,-8.7209,-8.7195,-8.741,-8.7836,-8.7312,-8.7137,-8.7436,-8.6955,-8.6687,-8.661,-8.6621,-8.6556,-8.6517,-8.6544,-8.6919,-8.7499,-8.8262,-8.867,-8.8822,-8.9448,-8.9969,-9.0414,-9.0921,-9.1392,-9.1834,-9.2261,-9.2763,-9.3105,-9.2655,-9.2787,-9.3107,0.0,0.0,0.0,0.0,0.0,0.0,0.0,0.0,0.0,0.0,0.0,0.0,0.0,0.0,0.0,0.0,0.0,0.0,0.0,0.0,0.0,-2.8604,-2.8951,-2.9342,-2.9707,-2.9978,-2.9995,-2.9769,-2.9699,-3.0006,-3.058,-3.0036,-3.1113,-3.3558,-3.4514,-3.5154,-3.5545,-3.6292,-3.7076,-3.7933,-3.8135,-3.9644,-4.1782,-4.2105,-4.2976,-4.3975,-4.4243,-4.4621,-4.5256,-4.6996,0.0,0.0,0.0,0.0,-5.0748,-5.161,-5.2097,-5.2896,-5.5141,-5.6835,-5.8905,-6.2974,-6.6499,-6.9042,-6.9333,-7.1206,-7.3119,-7.4095,-7.511,-7.6281,-7.7882,-7.8194,-7.8741,-8.0498,-8.0771,-8.1435,-8.3269,-8.3582,-8.4245,-8.5924,-8.6889,-8.7405,-8.7426,-8.7414,-8.7104,-8.6377,-8.6598,-8.7089,-8.7836,-8.7214,-8.702,-8.7545,-8.6815,-8.6404,-8.6489,-8.6346,-8.6317,-8.6461,-8.6556,-8.661,-8.6675,-8.8195,-8.8887,-8.8956,-8.9158,-8.9424,-8.9735,-9.057,-9.1066,-9.1364,-9.212,-9.2417,-9.249,-9.252,-9.2498,-9.2522,0.0,0.0,0.0,0.0,0.0,0.0,0.0,0.0,0.0,0.0,0.0,0.0,0.0,0.0,0.0,0.0,0.0,0.0,0.0,0.0,0.0,-2.8525,-2.9197,-2.9847,-3.0505,-3.0105,-3.0011,-3.0377,-2.9237,-2.9618,-3.1367,-3.1376,-3.2389,-3.4137,-3.513,-3.6019,-3.677,-3.6953,-3.721,-3.7503,-3.7649,-3.858,-3.9865,-3.9995,-4.1204,-4.2916,-4.3117,-4.4298,-4.5923,-4.7162,-4.7716,0.0,0.0,0.0,-4.9814,-4.9974,-5.1153,-5.2508,-5.2961,-5.5942,-5.956,-6.2382,-6.5127,-6.7559,-6.9059,-7.027,-7.1519,-7.3119,-7.472,-7.6086,-7.7101,-7.7257,-7.7843,-7.96,-7.9873,-8.0732,-8.323,-8.3582,-8.4245,-8.5963,-8.6889,-8.7414,-8.7498,-8.7436,-8.6105,-8.302,-8.4189,-8.4832,-8.431,-8.5096,-8.5504,-8.5513,-8.523,-8.5512,-8.6401,-8.5478,-8.5565,-8.6597,-8.6616,-8.6621,-8.6713,-8.7018,-8.7158,-8.7142,-8.7369,-8.8278,-8.9643,-8.9854,-9.0804,-9.2152,-9.2341,-9.2405,-9.2417,-9.249,-9.251,-9.2498,0.0,0.0,0.0,0.0,0.0,0.0,0.0,0.0,0.0,0.0,0.0,0.0,0.0,0.0,0.0,0.0,0.0,0.0,0.0,0.0,0.0,-2.8137,-2.8658,-2.9152,-2.9548,-2.9539,-2.9782,-3.03,-2.9766,-3.0563,0.0,-3.2848,-3.3667,-3.5009,-3.6387,-3.6996,-3.704,-3.7545,-3.7627,-3.7354,-3.7577,-3.887,-4.0672,-4.0477,-4.165,-4.3373,-4.3588,-4.4299,-4.5315,-4.6417,-4.722,-4.7996,-4.9047,0.0,0.0,0.0,-5.1086,-5.2115,-5.3635,-5.6159,-5.8981,-6.1569,-6.4151,-6.6388,-6.7654,-6.8981,-7.0465,-7.2221,-7.3158,-7.4212,-7.6047,-7.636,-7.6945,-7.8702,-7.8975,-7.9522,-8.1161,-8.1842,-8.2623,-8.3855,-8.4905,-8.6012,-8.7379,-8.6858,-8.5657,-8.377,-8.4278,-8.452,-8.4132,-8.4902,-8.5271,-8.5119,-8.4675,-8.4618,-8.4947,-8.4425,-8.4618,-8.5622,-8.6191,-8.6556,-8.6662,-8.6761,-8.6832,-8.6916,-8.7487,-8.8204,-8.8924,-9.0025,-9.093,-9.1631,-9.2129,-9.2366,-9.2405,-9.2417,-9.249,-9.251,0.0,0.0,0.0,0.0,0.0,0.0,0.0,0.0,0.0,0.0,0.0,0.0,0.0,0.0,0.0,0.0,0.0,0.0,0.0,0.0,0.0,-2.772,-2.7989,-2.8284,-2.8542,-2.892,-2.938,-3.0,-3.0172,0.0,-3.3744,-3.4281,-3.5434,0.0,-3.793,-3.8047,-3.7602,-3.8239,-3.8254,-3.7919,-3.8146,-3.9443,-4.1287,-4.1466,-4.2613,-4.4091,-4.4061,-4.4408,-4.4955,-4.5798,-4.6491,-4.7236,-4.8375,-4.8831,0.0,0.0,0.0,-5.1476,-5.3624,-5.551,-5.7467,-6.0054,-6.2479,-6.4554,-6.5858,-6.7498,-6.9176,-7.0699,-7.1206,-7.1993,-7.4106,-7.5043,-7.6058,-7.7776,-7.8083,-7.8468,-7.9561,-8.0397,-8.127,-8.2198,-8.304,-8.4606,-8.7249,-8.5097,-8.3516,-8.3479,-8.3293,-8.3195,-8.3198,-8.4028,-8.4415,-8.4195,-8.3656,-8.3326,-8.3102,-8.2995,-8.3479,-8.4512,-8.5506,-8.6075,-8.6273,-8.6596,-8.6809,-8.6893,-8.7623,-8.8225,-8.8711,-9.0107,-9.0936,-9.1381,-9.2059,-9.2338,-9.2393,-9.2393,-9.2417,-9.2479,0.0,0.0,0.0,0.0,0.0,0.0,0.0,0.0,0.0,0.0,0.0,0.0,0.0,0.0,-3.0628,-3.0628,-3.0016,-2.923,-2.8218,-2.8207,-2.7965,-2.7416,-2.7437,0.0,-2.8125,-2.8415,-2.8842,-2.9515,-2.987,0.0,-3.4567,-3.554,-3.7819,-4.1041,-3.9721,-3.9175,-3.9153,0.0,-3.9217,-3.9589,-3.9589,-3.9899,-4.0563,0.0,-4.3688,-4.4595,-4.4091,-4.4575,-4.5522,-4.5881,-4.5645,-4.5437,-4.6589,-4.7024,-4.7163,0.0,0.0,0.0,-5.1271,-5.2818,-5.4791,-5.7361,-5.9324,-6.133,-6.3867,-6.5741,-6.7185,-6.8122,-6.8942,-6.985,-7.0803,-7.2994,-7.5223,-7.6902,-7.7156,-7.7765,-7.9476,-8.0224,-8.1027,-8.2187,-8.2339,-8.3734,-8.7186,-8.1474,-7.8168,-7.9754,-7.9344,-7.9169,-7.9531,-8.1232,-8.2023,-8.1683,-8.1412,-8.1263,-8.1253,-8.1239,-8.2047,-8.3641,-8.4503,-8.5024,-8.533,-8.6275,-8.6713,-8.6737,-8.6961,-8.7953,-8.9449,-8.9674,-9.0703,-9.2165,-9.2323,-9.2391,-9.2391,-9.2391,-9.2419,-9.2405,0.0,0.0,0.0,0.0,0.0,0.0,0.0,0.0,0.0,0.0,0.0,0.0,0.0,-3.0205,-3.0294,-3.0294,-2.9691,-2.9174,-2.8971,-2.8158,-2.789,-2.8174,-2.7623,-2.7616,-2.8495,-2.8271,-2.8494,-2.9106,-2.9425,-3.1075,-3.4029,-3.4873,-3.6853,-3.9648,-4.0323,-4.0674,-4.0735,-4.0114,-3.9786,-3.9646,-4.0308,-4.1372,-4.2655,0.0,0.0,0.0,0.0,0.0,0.0,0.0,0.0,0.0,0.0,0.0,-4.7031,-4.7869,-4.8623,-4.9395,-5.0303,-5.1414,-5.2835,-5.4836,-5.707,-5.9104,-6.0627,-6.2735,-6.4609,-6.5468,-6.6795,-6.7893,-6.8215,-7.0803,-7.3312,-7.4451,-7.5113,-7.573,-7.632,-7.757,-7.8557,-7.8965,-8.0964,-8.2363,-8.2495,-8.1265,-8.0033,-7.9101,-7.9166,-7.9286,-7.9298,-8.0961,-8.1824,-8.1633,-8.1049,-8.0761,-8.0907,-8.1061,-8.14,-8.1993,-8.3441,-8.4464,-8.5169,-8.5577,-8.6094,-8.6583,-8.677,-8.7541,-8.8766,-8.9877,-9.0733,-9.145,-9.2009,-9.2293,-9.2347,-9.2377,-9.2391,-9.2405,0.0,0.0,0.0,0.0,0.0,0.0,0.0,0.0,0.0,0.0,0.0,0.0,0.0,0.0,-2.9865,-2.9927,-2.9451,-2.914,-2.9258,-2.8283,-2.7937,-2.8397,-2.769,-2.7659,-2.8337,-2.8021,-2.8057,-2.8606,-2.9013,-3.0537,-3.3176,-3.3849,-3.577,-3.8594,-3.9534,-4.0831,0.0,0.0,0.0,-4.1333,-4.1747,-4.2848,-4.4389,0.0,0.0,0.0,0.0,0.0,0.0,0.0,0.0,0.0,0.0,0.0,0.0,0.0,-4.7911,-4.8322,-4.8996,-4.9835,-5.0907,-5.2694,-5.442,-5.602,-5.7504,-5.9612,-6.1529,-6.2361,-6.3919,-6.5169,-6.5137,-6.748,-6.9989,-7.1757,-7.2734,-7.3514,-7.4201,-7.5482,-7.6532,-7.7146,-7.8176,-7.884,-7.8813,-7.9346,-7.9244,-7.8194,-7.8117,-7.8022,-7.7831,-7.929,-8.0067,-7.9775,-8.0328,-8.0677,-8.0926,-8.1029,-8.11,-8.1124,-8.2571,-8.3749,-8.4657,-8.5043,-8.5678,-8.6472,-8.661,-8.7202,-8.8212,-8.9321,-9.0224,-9.0927,-9.1528,-9.1953,-9.2276,-9.2331,-9.2347,-9.2362,0.0,0.0,0.0,0.0,0.0,0.0,0.0,0.0,0.0,-2.883,0.0,0.0,0.0,0.0,0.0,-2.9645,-2.9359,-2.9049,-2.893,-2.8452,-2.8111,-2.8052,-2.7682,-2.7559,-2.7668,-2.7483,-2.761,-2.8076,-2.8606,-3.0003,-3.2158,-3.2719,-3.4878,-3.8343,-3.7521,-3.9364,-4.3081,0.0,-4.3017,-4.4671,0.0,-4.4181,-4.5518,0.0,0.0,0.0,-4.9375,-4.9381,0.0,-4.9332,0.0,0.0,0.0,0.0,0.0,0.0,0.0,0.0,0.0,0.0,0.0,-5.0855,-5.1336,-5.2034,-5.4576,-5.6489,-5.7984,-5.8788,-6.0348,-6.1555,-6.1562,-6.2996,-6.529,-6.8711,-7.0039,-7.1328,-7.3281,-7.4058,-7.506,-7.68,-7.4056,-7.3303,-7.656,-7.5389,-7.5092,-7.6738,-7.5781,-7.5043,-7.4907,-7.604,-7.6443,-7.5994,-7.9006,-8.0778,-8.1085,-8.1036,-8.1029,-8.1029,-8.1924,-8.2794,-8.3641,-8.4588,-8.5497,-8.6345,-8.6384,-8.6925,-8.7836,-8.8057,-8.9172,-9.075,-9.0888,-9.1432,-9.2226,-9.2187,-9.2187,-9.2226,0.0,0.0,0.0,0.0,0.0,0.0,-2.6253,-2.6837,-2.739,0.0,0.0,0.0,0.0,0.0,-3.0199,-3.0671,-3.05,-3.0125,-2.9582,-2.8778,-2.844,-2.8647,-2.7626,-2.7199,-2.7694,-2.719,-2.7233,-2.776,-2.8125,-2.9138,-3.0782,-3.1426,-3.3084,-3.5396,-3.5574,-3.7005,-3.9273,-3.9651,0.0,-4.3672,-4.2941,-4.4247,0.0,0.0,0.0,0.0,0.0,-5.0041,-4.9786,0.0,-4.9706,-4.8183,0.0,0.0,0.0,0.0,0.0,0.0,-4.6346,0.0,0.0,0.0,0.0,0.0,-5.1367,-5.2889,-5.4372,-5.5234,-5.6795,-5.8194,-5.8823,-6.0346,-6.1987,-6.359,-6.6835,-6.9375,-6.9918,-7.0499,-7.1194,-7.211,-7.2099,-7.2047,-7.2119,-7.2383,-7.2958,-7.4014,-7.3013,-7.3117,-7.4808,-7.5915,-7.6216,-7.5679,-7.6492,-7.8147,-8.0639,-7.945,-7.8947,-7.9095,-8.0548,-8.1354,-8.1656,-8.2567,-8.3791,-8.5209,-8.5305,-8.5891,-8.6761,-8.8261,-8.9139,-8.9794,-9.1168,-9.1877,-9.2112,-9.2113,-9.2151,-9.2187,0.0,0.0,0.0,0.0,0.0,-2.4779,-2.5877,-2.6382,-2.6909,0.0,0.0,0.0,0.0,0.0,-3.0909,-3.1104,-3.0942,-3.063,-3.0108,-2.933,-2.9026,-2.927,-2.7992,-2.7541,-2.7989,-2.7229,-2.6909,-2.7121,-2.7838,-2.8525,-2.9264,-3.0222,-3.1517,-3.3225,-3.3558,0.0,0.0,0.0,0.0,0.0,-4.224,0.0,0.0,-4.8482,-4.9669,0.0,0.0,0.0,-5.1525,-5.2565,-5.1707,0.0,0.0,0.0,0.0,0.0,0.0,0.0,0.0,0.0,0.0,0.0,0.0,0.0,-4.9414,-5.0389,-5.1364,-5.2183,-5.3455,-5.4572,-5.5098,-5.677,-5.841,-5.9397,-6.1826,-6.4334,-6.6482,-6.7255,-6.7629,-6.776,-6.8964,-6.9536,-6.8804,-6.9294,-6.9772,-7.0017,-7.0205,-7.1145,-7.3041,-7.4021,-7.4144,-7.3418,-7.4719,-7.6369,-7.84,-7.7861,-7.8126,-7.9083,-7.9876,-8.0639,-8.1294,-8.1862,-8.3082,-8.4656,-8.4796,-8.5291,-8.6209,-8.8128,-8.8973,-8.9267,-9.0727,-9.1602,-9.196,-9.2028,-9.2032,-9.2073,0.0,0.0,-2.0817,-2.1665,-2.3208,-2.4792,-2.6441,-2.6432,-2.6691,0.0,-2.7851,-2.8076,0.0,0.0,0.0,0.0,-3.1002,-3.07,-3.0367,-2.9834,-2.956,-2.9662,-2.8615,-2.811,-2.8225,-2.7353,-2.6769,-2.6476,-2.7588,-2.809,-2.8009,-2.917,-3.0359,-3.1598,-3.1632,0.0,0.0,0.0,0.0,-4.0334,-4.1456,-4.2939,0.0,0.0,-4.9839,-5.0693,-5.2324,-5.317,-5.3649,-5.4814,-5.4167,0.0,0.0,0.0,0.0,0.0,-4.6915,0.0,0.0,0.0,0.0,0.0,-4.6943,0.0,-4.8163,-4.8549,-4.8766,-4.9384,-5.0147,-5.0806,-5.1137,-5.2741,-5.4381,-5.5552,-5.5986,-5.7952,-6.3008,-6.4089,-6.4292,-6.4106,-6.551,-6.6471,-6.64,-6.6201,-6.6036,-6.5946,-6.7677,-6.9231,-7.0448,-7.1214,-7.1254,-7.04,-7.3219,-7.4938,-7.5398,-7.6384,-7.7871,-7.9782,-7.9542,-8.019,-8.1609,-8.1796,-8.2828,-8.4435,-8.4435,-8.4972,-8.5931,-8.7683,-8.865,-8.9059,-8.9996,-9.097,-9.1759,-9.1721,-9.1785,-9.1888,0.0,0.0,-1.9871,-2.1138,-2.1838,-2.3001,-2.5462,-2.5397,-2.5899,-2.8217,-2.8879,-2.9678,0.0,0.0,0.0,0.0,-3.1331,-3.076,-2.9462,-2.9232,-2.9053,-2.8647,-2.8484,-2.8015,-2.7315,-2.7417,-2.736,-2.7026,-2.77,-2.8192,-2.8592,-2.9225,-2.9758,-3.0239,-3.0582,-3.1075,-3.1631,0.0,0.0,-3.5758,-3.9252,-4.2864,-4.6504,-4.9199,-5.1293,-5.2893,-5.3416,-5.4282,-5.5147,-5.5081,-5.398,-5.2344,0.0,0.0,0.0,-4.7745,0.0,0.0,0.0,0.0,0.0,0.0,-4.7768,0.0,-4.6133,-4.6247,-4.6594,-4.6101,-4.6084,-4.6972,-4.9557,-4.9406,-4.9215,-5.0152,-5.2088,-5.5034,-5.9492,-5.9838,-6.0526,-6.2948,-6.4092,-6.4675,-6.4626,-6.312,-6.3317,-6.603,-6.7132,-6.8152,-6.9212,-7.0139,-7.0548,-7.0258,-7.0718,-7.224,-7.4979,-7.5322,-7.6122,-7.7418,-7.8485,-7.9248,-7.9667,-8.0392,-8.1728,-8.3483,-8.3483,-8.4363,-8.5892,-8.6926,-8.7875,-8.8771,-8.9856,-9.0759,-9.1504,-9.0847,-9.1124,-9.1812,0.0,-1.7876,-1.873,-2.0045,-2.0779,-2.1947,-2.422,-2.4807,-2.5801,-2.8127,0.0,0.0,0.0,0.0,0.0,0.0,0.0,-3.0926,-3.0024,-2.9417,-2.9073,-2.9016,-2.8279,-2.8155,-2.8742,-2.7535,-2.6949,-2.7181,-2.764,-2.7954,-2.8093,-2.8902,-2.9662,-3.0222,-3.0283,-3.0672,-3.1295,-3.1692,-3.284,-3.4719,-3.9188,0.0,-4.6056,-4.9683,-5.186,-5.3207,-5.5036,-5.6154,-5.6646,-5.5775,-5.4896,0.0,-5.2675,-5.1731,-5.0858,0.0,-4.9261,-4.9009,0.0,0.0,0.0,-4.7434,-4.7369,0.0,0.0,-4.5898,-4.5621,-4.5646,-4.5156,-4.5382,-4.7588,-4.7381,-4.6709,-4.6335,-4.7374,-4.9453,-5.3003,-5.5765,-5.8163,-6.0184,-6.1361,-6.2211,-6.2731,-6.1788,-6.2471,-6.5843,-6.6281,-6.6566,-6.6949,-6.865,-6.9731,-7.0042,-7.0308,-7.137,-7.3418,-7.3989,-7.5013,-7.6411,-7.7599,-7.844,-7.8897,-7.9932,-8.1346,-8.295,-8.2989,-8.3983,-8.5588,-8.6508,-8.7159,-8.7695,-8.8867,-8.9888,-9.0576,-9.0249,-9.0458,-9.0934,0.0,0.0,-1.7624,-1.8644,-1.9788,-2.1165,-2.2917,-2.4093,-2.5644,0.0,0.0,0.0,0.0,0.0,0.0,0.0,0.0,-3.1154,0.0,-2.9914,-2.9315,-2.9457,-2.8296,-2.8292,-2.9753,-2.7626,-2.6676,-2.6945,-2.7539,-2.7716,-2.755,-2.8576,-2.9624,-3.0633,-3.0607,-3.0947,-3.1581,-3.2617,0.0,-3.6165,0.0,-4.2572,-4.4334,-4.8994,-5.1311,-5.2618,-5.6212,-5.77,-5.773,-5.6485,-5.5834,-5.5401,-5.4016,-5.3163,0.0,0.0,0.0,0.0,0.0,0.0,0.0,0.0,0.0,-4.6852,0.0,0.0,0.0,-4.5226,-4.4504,-4.4064,-4.4831,-4.4965,-4.4597,-4.3386,-4.3476,-4.4487,-4.6729,-5.1508,-5.5255,-5.6619,-5.7946,-5.9204,-6.0336,-6.0479,-6.1665,-6.4627,-6.4556,-6.4572,-6.5019,-6.7157,-6.8716,-6.9434,-7.0151,-7.0901,-7.1643,-7.2637,-7.3959,-7.5802,-7.6857,-7.7817,-7.8647,-7.9774,-8.1073,-8.2479,-8.2713,-8.3666,-8.5029,-8.5956,-8.6341,-8.6459,-8.7657,-8.8804,-8.9685,-8.9517,-8.9662,-8.9998,-1.494,-1.5703,0.0,-1.735,-1.8625,-2.0159,-2.1899,-2.297,-2.4517,0.0,0.0,0.0,0.0,0.0,0.0,0.0,0.0,0.0,-3.0733,0.0,-2.9701,-2.8995,-2.8821,-2.8188,-2.6996,-2.7623,-2.7481,-2.6578,-2.7255,-2.778,-2.8112,-2.8654,-2.9485,-3.0464,-3.1831,-3.1581,-3.0351,-3.3606,-3.7021,0.0,-4.1766,-4.1775,0.0,-4.5747,-4.8829,-5.1431,-5.5726,-5.7437,-5.7521,-5.6795,-5.5691,-5.4391,-5.3008,-5.2567,-5.2232,-5.0118,0.0,0.0,0.0,0.0,0.0,0.0,-4.8657,-4.8405,-4.4918,0.0,-4.3354,-4.1986,0.0,-4.1225,-4.0333,0.0,0.0,-4.1287,-4.2644,-4.3708,-4.4051,-4.6551,-4.9528,-5.2709,-5.428,-5.55,-5.6527,-5.7572,-5.8987,-6.0953,-6.076,-6.1898,-6.5008,-6.6333,-6.7196,-6.7752,-6.8725,-6.966,-7.0561,-7.1426,-7.2792,-7.4613,-7.6165,-7.747,-7.8647,-7.9486,-8.0486,-8.1603,-8.2365,-8.324,-8.4191,-8.4991,-8.5333,-8.5452,-8.6541,-8.8039,-8.9343,-8.7849,-8.8382,-8.9821,-1.3447,-1.4401,0.0,0.0,-1.7166,-1.8863,-2.108,-2.3208,-2.5179,0.0,0.0,0.0,0.0,0.0,0.0,0.0,0.0,-3.2263,0.0,0.0,0.0,-2.9469,-2.8675,-2.8365,-2.8719,-2.8148,-2.7769,-2.7758,-2.7836,-2.7897,-2.7989,-2.8494,-2.9421,-3.07,-3.2071,-3.2971,-3.3597,-3.4901,-3.6808,0.0,0.0,-3.9981,-4.0211,-4.5764,-4.987,-5.3046,-5.5135,-5.6625,-5.7521,-5.6905,-5.564,-5.4326,-5.4354,-5.3071,0.0,-5.1748,0.0,0.0,0.0,0.0,0.0,-4.8084,-4.7867,-4.7676,-4.5007,-4.3626,-4.2831,-4.265,0.0,0.0,0.0,0.0,0.0,0.0,-4.2173,-4.2773,-4.2135,-4.3656,-4.5995,-4.9015,-4.9769,-5.125,-5.4194,-5.4078,-5.4191,-5.5145,-5.6756,-5.88,-6.1318,-6.3716,-6.5315,-6.602,-6.7404,-6.8788,-7.018,-7.1087,-7.2099,-7.3344,-7.5136,-7.6526,-7.7455,-7.8511,-7.9696,-8.1028,-8.1452,-8.214,-8.3013,-8.3809,-8.4195,-8.4398,-8.5323,-8.6561,-8.7683,-8.708,-8.7389,-8.8152,-1.1612,0.0,0.0,0.0,-1.5972,-1.7943,-2.0564,-2.2892,0.0,0.0,0.0,0.0,-3.0826,-3.1733,0.0,0.0,-3.3647,-3.3207,0.0,0.0,-3.0674,0.0,0.0,0.0,-3.0201,-2.865,-2.7928,-2.8082,-2.81,-2.8066,-2.788,-2.8431,-2.9565,-3.1092,-3.2015,-3.3645,-3.5646,0.0,-3.6593,-3.7831,-3.8997,-4.0285,-4.1986,-4.6639,-5.0708,-5.3949,-5.4819,-5.5982,-5.7134,-5.6739,-5.5587,-5.4305,-5.4883,-5.3235,-5.1327,0.0,0.0,0.0,-4.9055,-5.0213,-5.099,-4.7587,-4.6964,-4.6689,-4.4664,-4.3227,-4.2515,-4.3183,-4.2471,0.0,0.0,0.0,0.0,0.0,0.0,-4.1989,-4.0904,-4.1801,-4.3366,-4.5388,-4.621,-4.8022,-5.1505,-5.0719,-5.0113,-5.0514,-5.32,-5.5843,-5.8145,-6.0772,-6.2843,-6.4216,-6.6202,-6.7895,-6.9171,-7.0225,-7.1242,-7.2149,-7.4212,-7.5555,-7.6262,-7.7371,-7.867,-7.9981,-8.0348,-8.0998,-8.1868,-8.2888,-8.3389,-8.3596,-8.4467,-8.5288,-8.6045,-8.6265,-8.6581,-8.6892,-0.9497,-1.1278,0.0,0.0,0.0,-1.7658,-2.0487,0.0,0.0,0.0,0.0,0.0,0.0,0.0,0.0,0.0,0.0,-3.3995,-3.4197,0.0,-3.1775,0.0,0.0,-3.0542,0.0,-2.9149,-2.8051,-2.6663,-2.7655,-2.8163,-2.8119,-2.8643,-2.9889,-3.1758,-3.1821,-3.2852,-3.4658,-3.5994,-3.7339,-3.8768,-4.0837,-4.4129,-4.7805,-4.7943,-5.0076,-5.3151,-5.4912,-5.5794,-5.6079,-5.6188,-5.5322,-5.4078,-5.3402,-5.2684,-5.1959,-5.1415,-5.1306,-5.1118,-5.0508,-5.0585,-5.0128,-4.7226,-4.6609,-4.5973,-4.3052,-4.2244,-4.2131,-4.2298,-4.2864,-4.3342,-4.3402,0.0,0.0,0.0,0.0,0.0,0.0,-4.0919,-4.1418,-4.1832,-4.4298,-4.6463,-4.7859,-4.7694,-4.7755,-4.8344,-5.0365,-5.323,-5.7042,-5.7867,-5.9457,-6.2325,-6.5175,-6.669,-6.6773,-6.8513,-6.9887,-7.0958,-7.3461,-7.4858,-7.5293,-7.6215,-7.7222,-7.8267,-7.9152,-7.9991,-8.0858,-8.2519,-8.3198,-8.3273,-8.4141,-8.4616,-8.4798,-8.5127,-8.5921,-8.6698,0.0,0.0,0.0,0.0,0.0,0.0,0.0,-2.0407,0.0,0.0,0.0,0.0,0.0,-3.1938,-3.3467,0.0,0.0,-3.6062,-3.6058,-3.4675,0.0,0.0,0.0,-3.182,0.0,-3.0774,-2.9675,-2.8479,-2.8822,-2.8885,-2.8744,-2.8832,-2.9674,-3.1185,-3.1598,-3.2899,0.0,0.0,0.0,-3.8491,-4.1064,-4.4454,-4.8189,-4.8853,-5.0574,-5.282,-5.408,-5.4733,-5.5144,-5.5812,-5.4771,-5.3198,-5.3712,-5.2595,-5.125,-5.1664,-5.1525,-5.1195,-5.0971,-5.1146,-5.0735,-4.8283,-4.7076,-4.5707,-4.268,-4.2369,-4.2509,-4.1565,-4.2742,-4.3775,-4.3373,0.0,0.0,0.0,0.0,0.0,0.0,-3.8757,-3.8867,-3.9666,-4.198,-4.3775,-4.4485,-4.537,-4.6421,-4.7565,-4.7371,-4.9163,-5.3806,-5.5703,-5.7674,-5.9925,-6.2391,-6.4302,-6.5543,-6.7353,-6.8726,-6.9695,-7.1722,-7.3119,-7.4075,-7.496,-7.6269,-7.7717,-7.8029,-7.8691,-7.9752,-8.0843,-8.1393,-8.1613,-8.2576,-8.3002,-8.3209,-8.4582,-8.5071,-8.5051,-1.033,0.0,0.0,0.0,0.0,0.0,0.0,0.0,0.0,0.0,-2.5283,0.0,-3.0034,0.0,-3.3445,0.0,-3.6311,-3.6703,-3.6549,-3.5873,0.0,-3.5927,-3.4353,0.0,0.0,0.0,-3.1474,-3.0071,-3.0154,-3.0012,-2.9606,-2.9217,-2.9711,-3.0897,-3.1148,-3.2544,-3.475,-3.5185,-3.6384,-3.8295,-4.1512,-4.4732,-4.7769,-4.9081,-5.0594,-5.2201,-5.321,-5.3754,-5.4187,-5.5243,-5.4411,-5.3053,-5.3872,-5.2907,-5.1642,-5.2234,-5.1956,-5.1451,-5.1193,-5.1083,-5.0511,-4.8348,-4.7186,-4.5894,-4.3184,-4.3211,-4.3535,-4.2692,-4.3395,-4.4196,-4.4229,0.0,0.0,0.0,0.0,0.0,0.0,-3.761,-3.7424,-3.8251,-4.0095,-4.1579,-4.2203,-4.312,-4.4285,-4.5676,-4.5,-4.6266,-5.0218,-5.2676,-5.4973,-5.7208,-5.9475,-6.1661,-6.3639,-6.5642,-6.7212,-6.8421,-6.9962,-7.1246,-7.231,-7.3335,-7.4606,-7.6051,-7.6364,-7.7303,-7.8591,-7.9429,-8.0067,-8.0591,-8.1651,-8.2085,-8.2284,-8.3626,-8.4158,-8.4212,-1.0539,-1.0625,0.0,0.0,-1.3993,0.0,0.0,0.0,-2.1448,0.0,-2.4802,-2.6847,-2.9207,-3.0761,-3.2461,-3.4408,-3.5483,-3.6045,-3.6045,-3.6437,0.0,0.0,-3.6062,-3.5547,-3.4977,0.0,0.0,-3.14,-3.1594,-3.134,-3.0626,-2.9776,-2.9948,-3.1029,-3.0454,-3.1774,-3.4329,-3.4996,-3.6424,-3.8533,-4.2327,-4.5027,-4.7002,-4.8568,-5.0047,-5.1386,-5.2462,-5.2952,-5.3175,-5.4399,-5.4255,-5.3566,-5.3845,-5.3514,-5.298,-5.298,-5.2559,-5.1919,-5.1224,-5.0527,-4.9488,-4.7529,-4.6957,-4.6361,-4.4534,-4.4648,-4.5218,-4.5361,-4.4806,-4.4666,-4.5902,-4.4205,0.0,0.0,0.0,0.0,0.0,-3.7362,-3.7071,-3.7351,-3.8579,-3.9834,-4.0861,-4.0955,-4.1471,-4.2737,-4.3357,-4.4526,-4.6533,-4.8916,-5.1437,-5.4161,-5.6588,-5.8979,-6.1149,-6.3362,-6.533,-6.7064,-6.822,-6.9284,-7.0182,-7.1299,-7.2362,-7.3372,-7.4309,-7.5767,-7.7438,-7.8377,-7.9252,-8.009,-8.1207,-8.1743,-8.1925,-8.2292,-8.325,-8.4249,-1.0964,-1.171,-1.2505,0.0,-1.4496,-1.5952,-1.722,0.0,0.0,0.0,-2.4447,-2.6585,-2.8697,-3.0927,-3.2754,-3.4022,-3.5693,0.0,0.0,0.0,0.0,-3.8787,-3.7891,-3.7318,-3.7346,-3.5499,-3.4353,-3.3907,-3.241,-3.1667,-3.1553,-3.0485,-2.9963,-2.9984,-3.0585,-3.147,-3.2784,-3.5184,-3.852,-4.219,-4.2893,-4.463,-4.6864,-4.728,-4.8539,-5.033,-5.2024,-5.2287,-5.2085,-5.3175,-5.3073,-5.2534,-5.277,-5.2808,-5.2725,-5.2806,-5.2309,-5.1694,-5.1517,-5.0501,-4.9448,-4.9085,-4.7768,-4.6293,-4.5391,-4.5833,-4.615,-4.5156,-4.6038,-4.6581,-4.5281,-4.4357,-4.3127,0.0,0.0,0.0,0.0,-3.6082,-3.6068,-3.6047,-3.6637,-3.7502,-3.8839,-4.051,-4.1317,-4.0896,-4.1211,-4.2468,-4.4754,-4.676,-4.9159,-5.1952,-5.4665,-5.7352,-5.9858,-6.1422,-6.3156,-6.5125,-6.6619,-6.7648,-6.8257,-6.9853,-7.1138,-7.222,-7.3141,-7.4316,-7.5567,-7.6504,-7.7428,-7.8366,-7.8972,-7.9713,-8.0586,-8.1364,-8.2453,-8.3368,-1.1848,-1.2802,0.0,-1.3923,-1.5182,-1.6484,-1.7334,-1.8911,0.0,-2.1961,-2.4145,0.0,-2.7854,-3.002,-3.2002,-3.3444,-3.5047,0.0,-3.7034,0.0,0.0,-3.8999,-3.8819,-3.8635,-3.8587,-3.7146,0.0,-3.5395,-3.3564,-3.2302,-3.1511,-3.0133,-2.9274,-2.8979,-2.9889,-3.0795,-3.1903,-3.5646,-3.9059,-4.1971,-4.2672,-4.4181,0.0,-4.6389,-4.7523,-4.9116,-5.0664,-5.1317,-5.1541,-5.1865,-5.1979,-5.1982,-5.1849,-5.1891,-5.2064,-5.2463,-5.2126,-5.1602,-5.1515,-5.069,-4.9793,-4.9588,-4.8384,-4.708,-4.6589,-4.6906,-4.7042,-4.6299,-4.6494,-4.6613,-4.5941,-4.4184,-4.1983,0.0,0.0,0.0,0.0,-3.525,-3.5063,-3.5078,-3.5495,-3.6006,-3.655,-3.844,-3.9577,-3.9166,-3.972,-4.0761,-4.2352,-4.4923,-4.7349,-4.9479,-5.2805,-5.5479,-5.7429,-5.9159,-6.0961,-6.2961,-6.408,-6.5162,-6.6226,-6.8092,-6.932,-7.0015,-7.141,-7.2807,-7.4168,-7.4872,-7.5882,-7.7067,-7.7551,-7.8441,-7.9578,-8.0157,-8.1308,-8.2488,-1.3039,-1.3867,0.0,0.0,0.0,-1.7307,-1.8062,-1.9565,-2.0913,-2.1768,-2.3786,-2.5651,-2.6907,-2.8688,-3.0714,-3.2877,-3.3909,-3.4863,-3.5703,-3.7148,-3.8075,-3.8162,-3.9196,-3.9628,-3.9308,-3.9005,-3.799,-3.6228,-3.4754,-3.3054,-3.114,-2.9492,-2.8446,-2.8071,-2.8961,-3.0149,-3.1851,-3.6092,-3.8689,-4.0079,-4.2102,-4.3693,-4.4872,-4.5754,-4.6852,-4.7989,-4.892,-5.0207,-5.1347,-5.0681,-5.0959,-5.1571,-5.1036,-5.0901,-5.1194,-5.204,-5.1874,-5.137,-5.1391,-5.0889,-5.0174,-4.9533,-4.8886,-4.8271,-4.7826,-4.7742,-4.7809,-4.7947,-4.6722,-4.5992,-4.698,-4.3934,-4.0445,0.0,0.0,-3.6517,-3.5958,-3.5036,-3.4484,-3.4682,-3.5233,0.0,-3.4655,-3.6137,-3.728,-3.753,-3.8309,-3.9157,-3.9994,-4.3095,-4.5623,-4.7249,-5.094,-5.3452,-5.4814,-5.6867,-5.8958,-6.0938,-6.1466,-6.2599,-6.4287,-6.6372,-6.7341,-6.763,-6.9516,-7.1279,-7.2822,-7.3367,-7.4611,-7.6206,-7.6798,-7.7647,-7.8666,-7.8904,-8.0009,-8.1413,-1.384,0.0,0.0,0.0,-1.6397,-1.7681,-1.8769,-1.9885,-2.0739,-2.1513,-2.3184,-2.505,-2.6866,-2.8387,-3.0108,-3.2074,-3.3333,-3.4448,-3.5305,-3.691,-3.8048,-3.8683,-3.9719,-4.0343,-4.0462,-3.9395,-3.8412,-3.7569,-3.5532,-3.3407,-3.1406,-2.9943,-2.8655,-2.7668,-2.8547,-3.0576,-3.3508,-3.5901,-3.8328,-4.0541,-4.1531,-4.3069,-4.4831,-4.4822,-4.6041,-4.7755,-4.7948,-4.9377,-5.1087,-5.0429,-5.0267,-5.0424,-5.0382,-5.0079,-4.9972,-5.167,-5.1246,-5.0371,-5.1104,-5.075,-4.9996,-4.9325,-4.9076,-4.8794,-4.8307,-4.8199,-4.8237,-4.8384,-4.8053,-4.7352,-4.6213,-4.3864,-4.1372,-3.913,-3.8209,-3.7929,-3.8538,-3.6776,-3.5649,-3.625,-3.6505,-3.6075,-3.4551,-3.6194,-3.6863,-3.5644,-3.631,-3.744,-3.9125,-4.0547,-4.2977,-4.6744,-4.8697,-5.1247,-5.4333,-5.5418,-5.7341,-5.9953,-6.0831,-6.1911,-6.3321,-6.5218,-6.6226,-6.6589,-6.8615,-6.9813,-7.0437,-7.2149,-7.3934,-7.5802,-7.679,-7.7392,-7.7754,-7.8139,-7.8582,-7.9105,-1.52,0.0,0.0,0.0,-1.702,-1.8042,-1.9364,-2.025,-2.1021,-2.1558,-2.2698,-2.4215,-2.6101,-2.7172,-2.8811,-3.1199,-3.2533,-3.3683,-3.4744,-3.5956,-3.7203,-3.8542,-3.9302,-4.0037,-4.0688,-3.9956,-3.8855,-3.7428,-3.5826,-3.3649,-3.0965,-3.004,-2.8968,-2.7937,-2.9223,-3.1358,-3.4059,-3.5519,-3.7438,-3.9588,-4.0611,-4.2299,-4.4169,-4.4474,-4.549,-4.6803,-4.6914,-4.8023,-4.945,-4.924,-4.929,-4.9442,-4.9457,-4.9124,-4.9151,-5.1249,-5.0664,-4.9622,-5.1375,-5.1031,-5.0148,-4.9755,-4.9725,-4.9482,-4.8404,-4.848,-4.8663,-4.8339,-4.8068,-4.7357,-4.54,-4.3565,-4.1789,-4.0054,-3.8792,-3.8186,-3.8592,-3.7391,-3.6582,-3.6813,-3.7001,-3.6484,-3.4744,-3.5635,-3.5776,-3.4496,-3.5292,-3.6373,-3.7732,-3.9648,-4.1882,-4.4429,-4.7195,-4.9932,-5.2677,-5.3879,-5.5809,-5.8305,-5.9325,-6.0389,-6.1595,-6.3655,-6.4931,-6.5586,-6.7274,-6.8615,-6.9619,-7.1242,-7.2904,-7.4476,-7.4978,-7.5649,-7.6388,-7.7108,-7.7509,-7.7834,-1.6548,-1.6563,0.0,-1.7293,-1.7712,-1.837,-1.9805,-2.0607,-2.1312,-2.193,-2.2514,-2.3652,-2.5588,-2.6365,-2.7833,-3.0589,-3.1801,-3.2922,-3.4045,-3.5011,-3.6311,-3.7962,-3.8776,-3.9589,-4.0491,-4.0407,-3.9385,-3.7253,-3.6269,-3.4059,-3.0777,-3.008,-2.9245,-2.8397,-3.0119,-3.1946,-3.3803,-3.5142,-3.6781,-3.8566,-3.9845,-4.1683,-4.3614,-4.4164,-4.498,-4.5864,-4.6088,-4.6797,-4.7588,-4.7769,-4.812,-4.8448,-4.8553,-4.8204,-4.8247,-5.0645,-5.0032,-4.9055,-5.1333,-5.1085,-5.0214,-5.0359,-5.0373,-4.9986,-4.8753,-4.8826,-4.893,-4.8311,-4.7959,-4.7032,-4.4752,-4.3792,-4.2736,-4.0895,-3.9562,-3.8767,-3.8811,-3.8074,-3.7499,-3.7557,-3.7511,-3.6851,-3.5368,-3.5006,-3.4578,-3.3832,-3.4409,-3.535,-3.6567,-3.88,-4.0723,-4.2045,-4.5503,-4.8286,-5.0265,-5.2111,-5.4279,-5.6589,-5.7482,-5.873,-6.0275,-6.2204,-6.3693,-6.4858,-6.6316,-6.7912,-6.9582,-7.0656,-7.1862,-7.3005,-7.3095,-7.3757,-7.4752,-7.5618,-7.6169,-7.66,-1.7441,0.0,-1.8144,-1.8064,-1.8347,-1.9039,-2.0327,-2.0726,-2.1363,-2.2553,-2.295,-2.3914,-2.6001,-2.6911,-2.8186,-3.0359,-3.1472,-3.2463,-3.3376,-3.4777,-3.5965,-3.6768,-3.8504,-3.9564,-3.9873,-4.0801,-4.0203,-3.806,-3.712,-3.4996,-3.1659,-3.0277,-2.9366,-2.8907,-3.0681,-3.1849,-3.2709,-3.4945,-3.6983,-3.8882,-3.9886,-4.1564,-4.3416,-4.3628,-4.4566,-4.5727,-4.5784,-4.6067,-4.6433,-4.6488,-4.6792,-4.73,-4.8103,-4.7452,-4.6914,-4.9493,-4.9315,-4.8626,-5.0367,-5.0386,-5.0101,-5.0859,-5.0588,-5.0105,-5.001,-4.9458,-4.8901,-4.8829,-4.8398,-4.7226,-4.4459,-4.539,-4.539,-4.1698,-4.1009,-4.091,-4.0978,-3.9566,-3.8851,-3.9595,-3.846,-3.7317,-3.663,-3.4927,-3.3771,-3.3633,-3.3234,-3.3945,-3.6195,-3.6526,-3.8074,-4.1162,-4.317,-4.5206,-4.7358,-5.0045,-5.2632,-5.5157,-5.5764,-5.7517,-6.0167,-6.1515,-6.313,-6.4858,-6.6316,-6.8111,-7.0032,-7.0384,-7.1087,-7.2052,-7.2429,-7.2662,-7.2813,-7.3347,-7.4075,-7.4773,-1.8824,-1.878,-1.8851,-1.9021,-1.9245,-1.9779,-2.0764,-2.14,-2.2101,-2.324,-2.3406,-2.4002,-2.5675,-2.6368,-2.7456,-2.93,-3.0396,-3.1515,-3.2626,-3.3752,-3.5027,-3.6329,-3.7923,-3.8978,-3.962,-4.0463,-4.0039,-3.8224,-3.7451,-3.5752,-3.3015,-3.2065,-3.1375,-3.1064,-3.1865,-3.2765,-3.3878,-3.5217,-3.7002,-3.8937,-3.9597,-4.0958,-4.268,-4.3113,-4.3938,-4.487,-4.5261,-4.5765,-4.621,-4.6056,-4.6055,-4.6395,-4.7664,-4.7177,-4.6709,-4.9132,-4.8997,-4.8295,-4.9508,-4.9816,-4.9748,-4.9649,-5.0173,-5.0435,-4.9502,-4.9703,-4.9938,-4.9469,-4.9041,-4.8293,-4.6935,-4.6587,-4.6014,-4.4598,-4.358,-4.286,-4.2334,-4.1491,-4.0783,-4.0425,-3.9162,-3.8018,-3.7225,-3.5339,-3.4408,-3.4692,-3.3477,-3.3325,-3.4721,-3.5937,-3.7301,-3.8697,-4.22,-4.4691,-4.6019,-4.9001,-5.1548,-5.3679,-5.4954,-5.6387,-5.7953,-6.0195,-6.2675,-6.5264,-6.6519,-6.7911,-6.9369,-6.9603,-7.0009,-7.0592,-7.1369,-7.175,-7.1974,-7.2882,-7.3453,-7.3841,-2.0492,-2.0167,-1.9975,-2.019,-2.0245,-2.0641,-2.1473,-2.2032,-2.2808,-2.378,-2.3927,-2.4308,-2.5485,-2.6195,-2.7101,-2.8448,-2.9714,-3.0817,-3.1905,-3.2885,-3.4146,-3.5626,-3.7098,-3.82,-3.8978,-4.0097,-3.9954,-3.8587,-3.804,-3.6796,-3.4864,-3.3858,-3.3186,-3.2867,-3.3171,-3.376,-3.4628,-3.5499,-3.6949,-3.8769,-3.9274,-4.0446,-4.1916,-4.2522,-4.3222,-4.3899,-4.4622,-4.5263,-4.5845,-4.5866,-4.5716,-4.5746,-4.7119,-4.6969,-4.6704,-4.861,-4.8659,-4.8204,-4.9181,-4.9412,-4.9471,-4.9493,-5.0232,-5.071,-4.9765,-5.0174,-5.0474,-4.9639,-4.935,-4.9109,-4.8504,-4.7499,-4.6601,-4.6085,-4.5185,-4.4106,-4.3065,-4.2721,-4.2225,-4.1255,-3.9742,-3.8485,-3.793,-3.6136,-3.5308,-3.5892,-3.4483,-3.3952,-3.484,-3.5863,-3.6862,-3.7795,-4.1606,-4.42,-4.5209,-4.8089,-5.0498,-5.2448,-5.4206,-5.5601,-5.6787,-5.9763,-6.247,-6.4856,-6.6137,-6.729,-6.8174,-6.8447,-6.8659,-6.8975,-7.0043,-7.0533,-7.0826,-7.204,-7.2716,-7.3014,-2.2411,-2.2083,-2.1836,-2.1588,-2.1339,-2.1473,-2.2318,-2.2735,-2.3253,-2.4059,-2.4615,-2.5041,-2.5464,-2.6554,-2.7606,-2.83,-2.9582,-3.0563,-3.1083,-3.2408,-3.3509,-3.418,-3.6008,-3.7207,-3.7585,-3.9499,-4.0139,-3.9453,-3.9089,-3.8341,-3.7186,-3.5369,-3.4185,-3.3703,-3.4376,-3.4515,-3.4278,-3.5783,-3.7007,-3.8074,-3.9093,-4.0204,-4.139,-4.1852,-4.2364,-4.2932,-4.3869,-4.4504,-4.5063,-4.5885,-4.5798,-4.5452,-4.6344,-4.6581,-4.6685,-4.7803,-4.8207,-4.8487,-4.9469,-4.9325,-4.9316,-5.1028,-5.0966,-5.0709,-5.1494,-5.093,-5.0033,-4.9103,-4.9309,-4.9363,-4.8293,-4.8196,-4.7563,-4.525,-4.5098,-4.4756,-4.3129,-4.2994,-4.2869,-4.2322,-4.0084,-3.866,-3.8842,-3.7215,-3.6457,-3.7,-3.6235,-3.6228,-3.7309,-3.6115,-3.6652,-3.926,-4.1372,-4.3154,-4.4756,-4.7176,-4.948,-5.1754,-5.3237,-5.5132,-5.7427,-6.081,-6.2618,-6.3124,-6.499,-6.6063,-6.6462,-6.6762,-6.7005,-6.7239,-6.8484,-6.8998,-6.9175,-7.031,-7.1391,-7.2225,-2.4114,-2.3763,-2.353,-2.2828,-2.2859,-2.3018,-2.3008,-2.3168,-2.3665,-2.4573,-2.4893,-2.521,-2.5924,-2.6601,-2.7273,-2.7906,-2.902,-3.0089,-3.0863,-3.1782,-3.2883,-3.4153,-3.5574,-3.6766,-3.7557,-3.8883,-3.951,-3.9217,-3.8659,-3.8076,-3.7426,-3.6251,-3.5933,-3.638,-3.5769,-3.5465,-3.5422,-3.6035,-3.6674,-3.7357,-3.8849,-3.9872,-4.0615,-4.1028,-4.1876,-4.278,-4.3331,-4.4075,-4.4851,-4.4808,-4.4826,-4.477,-4.4889,-4.5512,-4.6426,-4.7513,-4.8266,-4.8777,-4.8767,-4.8978,-4.9293,-4.9414,-4.978,-5.0165,-5.0413,-5.0645,-5.0769,-5.047,-5.0258,-5.0035,-4.9625,-4.9135,-4.8416,-4.7354,-4.6848,-4.6053,-4.4564,-4.4032,-4.3397,-4.2236,-4.089,-3.9982,-3.9535,-3.8953,-3.8495,-3.8535,-3.7494,-3.6892,-3.6996,-3.6691,-3.7184,-3.8661,-4.148,-4.3421,-4.4458,-4.6716,-4.8527,-4.967,-5.1226,-5.3789,-5.7188,-5.8983,-6.0879,-6.2805,-6.3807,-6.5113,-6.6425,-6.6886,-6.7086,-6.7241,-6.7835,-6.8464,-6.906,-6.9643,-7.0525,-7.1416,-2.6518,-2.5994,-2.5487,-2.4618,-2.4426,-2.432,-2.4115,-2.4176,-2.4596,-2.5274,-2.5462,-2.5797,-2.6505,-2.7021,-2.7534,-2.7914,-2.8949,-2.9802,-3.0544,-3.1397,-3.2383,-3.354,-3.5029,-3.6184,-3.6888,-3.8394,-3.9204,-3.916,-3.9057,-3.8839,-3.843,-3.7871,-3.7699,-3.7849,-3.7157,-3.6526,-3.5976,-3.657,-3.695,-3.7323,-3.8979,-3.9877,-4.0345,-4.1115,-4.1945,-4.2736,-4.3178,-4.3962,-4.4844,-4.4854,-4.4722,-4.4584,-4.4616,-4.5261,-4.6143,-4.717,-4.8254,-4.9148,-4.8945,-4.9208,-4.9472,-4.9237,-4.959,-5.0029,-5.0082,-5.0468,-5.0764,-5.0764,-5.0397,-5.0126,-5.0263,-4.9699,-4.9241,-4.8993,-4.8197,-4.729,-4.618,-4.5326,-4.4174,-4.2444,-4.1791,-4.1074,-3.9877,-4.0379,-4.0735,-4.0573,-3.9584,-3.9061,-3.9179,-3.8144,-3.8194,-3.9511,-4.2181,-4.4039,-4.5058,-4.6711,-4.8002,-4.9083,-5.1089,-5.3672,-5.6704,-5.7634,-5.9219,-6.1213,-6.2077,-6.3416,-6.4955,-6.5376,-6.5803,-6.6258,-6.6961,-6.755,-6.8145,-6.8761,-6.9487,-7.0067,-2.9447,-2.8588,-2.7781,-2.686,-2.6147,-2.5695,-2.5695,-2.5611,-2.5779,-2.6279,-2.6528,-2.6857,-2.7267,-2.7914,-2.8339,-2.8339,-2.9312,-2.9934,-3.0037,-3.1164,-3.204,-3.2551,-3.4339,-3.5509,-3.585,-3.7978,-3.915,-3.9208,-3.9981,-4.0136,-3.9889,-3.9829,-3.9299,-3.8371,-3.8439,-3.7704,-3.6357,-3.7252,-3.7565,-3.7682,-3.9194,-3.9995,-4.0427,-4.1684,-4.2444,-4.2829,-4.3185,-4.4015,-4.4935,-4.5524,-4.5174,-4.4625,-4.5175,-4.5494,-4.5906,-4.6693,-4.8133,-4.953,-4.9767,-4.9767,-4.9825,-5.0228,-5.0228,-5.0263,-5.0411,-5.0389,-5.0275,-5.0275,-5.0021,-4.9932,-5.0277,-5.0038,-4.9955,-5.0191,-4.9286,-4.8344,-4.7819,-4.667,-4.5101,-4.2932,-4.2802,-4.2136,-4.0199,-4.1853,-4.2917,-4.2799,-4.2368,-4.2368,-4.2981,-4.0465,-3.9772,-4.1505,-4.3291,-4.489,-4.6301,-4.6892,-4.8,-4.9653,-5.2269,-5.4394,-5.6126,-5.6831,-5.7782,-5.8872,-6.0026,-6.1254,-6.2476,-6.285,-6.3613,-6.4709,-6.5863,-6.6374,-6.6618,-6.7706,-6.8279,-6.8525,-3.0626,-3.0761,-3.0372,-2.8386,-2.7964,-2.7741,-2.729,-2.7035,-2.7012,-2.7568,-2.8032,-2.8378,-2.8395,-2.887,-2.9341,-2.9806,-3.0139,-3.0368,-3.0748,-3.1356,-3.1995,-3.2874,-3.3669,-3.4771,-3.6429,-3.7387,-3.8458,-3.9546,-3.9496,-3.965,-3.9977,-3.9451,-3.9589,-4.0165,-3.9668,-3.9008,-3.8326,-3.7931,-3.7506,-3.7258,-3.8219,-3.8806,-3.9237,-4.092,-4.194,-4.2487,-4.2643,-4.3096,-4.3514,-4.3463,-4.3416,-4.3457,-4.3361,-4.439,-4.5752,-4.6274,-4.7713,-4.9168,-4.935,-4.953,-4.9708,-4.9708,-4.9825,-5.0195,-5.1071,-5.1153,-5.098,-5.0897,-5.1047,-5.1076,-5.0515,-5.0447,-5.0426,-5.0392,-4.9645,-4.8757,-4.7813,-4.7012,-4.5793,-4.3611,-4.4159,-4.4092,-4.2731,-4.4518,-4.5237,-4.4107,-4.4363,-4.3924,-4.2376,-4.2462,-4.259,-4.2833,-4.3758,-4.4849,-4.6152,-4.6684,-4.8031,-5.0087,-5.1768,-5.3707,-5.5844,-5.6546,-5.7557,-5.8724,-5.9355,-6.07,-6.2389,-6.2766,-6.3535,-6.452,-6.5006,-6.5745,-6.6483,-6.6965,-6.7714,-6.8525,-3.2574,-3.2531,-3.2154,-3.0968,-3.0261,-2.9707,-2.902,-2.8843,-2.8802,-2.8924,-2.9234,-2.944,-2.9496,-2.9858,-3.0266,-3.0722,-3.0797,-3.0973,-3.1347,-3.1716,-3.2291,-3.2955,-3.3668,-3.4651,-3.5942,-3.7142,-3.84,-3.9595,-3.9235,-3.9361,-3.988,-3.9566,-3.9912,-4.0635,-4.004,-3.9682,-3.9498,-3.875,-3.8258,-3.8033,-3.8631,-3.908,-3.9594,-4.0985,-4.2013,-4.2819,-4.2829,-4.3217,-4.3707,-4.3245,-4.3242,-4.3349,-4.3106,-4.4042,-4.5308,-4.5719,-4.7187,-4.8798,-4.8923,-4.9107,-4.929,-4.9471,-4.9923,-5.0538,-5.1153,-5.1474,-5.1597,-5.1511,-5.1638,-5.1663,-5.1342,-5.1389,-5.1329,-5.0993,-4.9849,-4.8674,-4.7502,-4.655,-4.5372,-4.3552,-4.4723,-4.5156,-4.4065,-4.5859,-4.6741,-4.59,-4.5928,-4.5492,-4.4569,-4.4267,-4.3849,-4.3182,-4.4161,-4.505,-4.5968,-4.7077,-4.8491,-5.0226,-5.16,-5.3359,-5.5378,-5.609,-5.6939,-5.7789,-5.8288,-5.9458,-6.1093,-6.1768,-6.2773,-6.3839,-6.4519,-6.5224,-6.5775,-6.607,-6.6605,-6.7256,-3.4397,-3.381,-3.3411,-3.3556,-3.2649,-3.1621,-3.1023,-3.0922,-3.0826,-3.0496,-3.042,-3.047,-3.0545,-3.0921,-3.122,-3.1442,-3.1542,-3.169,-3.1909,-3.2345,-3.2704,-3.3058,-3.3988,-3.4682,-3.5218,-3.7198,-3.859,-3.9437,-3.9054,-3.9094,-3.9622,-3.987,-4.0112,-4.0469,-4.0273,-4.0258,-4.0196,-3.9601,-3.9252,-3.9145,-3.9431,-3.9748,-4.0178,-4.1312,-4.2308,-4.309,-4.3289,-4.3853,-4.4463,-4.3921,-4.3763,-4.3737,-4.368,-4.4202,-4.5015,-4.531,-4.6779,-4.842,-4.8576,-4.8673,-4.8928,-4.9487,-5.0275,-5.0944,-5.133,-5.1821,-5.2207,-5.2145,-5.2186,-5.2238,-5.2363,-5.2401,-5.2236,-5.1662,-5.0187,-4.8655,-4.729,-4.6191,-4.5024,-4.3858,-4.5129,-4.5911,-4.5263,-4.6824,-4.7854,-4.7935,-4.7384,-4.7106,-4.7375,-4.592,-4.4655,-4.3594,-4.4613,-4.5489,-4.6022,-4.7696,-4.9148,-5.0355,-5.1623,-5.3204,-5.4896,-5.5658,-5.6257,-5.6724,-5.7188,-5.8165,-5.9567,-6.0648,-6.1773,-6.3043,-6.4181,-6.4779,-6.4989,-6.529,-6.5532,-6.5717,-3.4397,-3.4314,-3.423,-3.423,-3.4297,-3.4149,-3.3701,-3.3067,-3.2618,-3.2417,-3.2461,-3.2273,-3.1669,-3.2055,-3.2417,-3.2489,-3.2775,-3.2846,-3.2561,-3.2917,-3.3269,-3.3536,-3.3939,-3.464,-3.5742,-3.7503,-3.8697,-3.9216,-3.8811,-3.8772,-3.9221,-3.9515,-3.9805,-4.0212,-4.1369,-4.1363,-4.055,-4.0483,-3.9994,-3.9276,-3.9414,-3.9018,-3.8533,-4.1008,-4.2108,-4.2432,-4.3469,-4.4051,-4.4297,-4.4091,-4.4131,-4.4291,-4.415,-4.4812,-4.5729,-4.5929,-4.6782,-4.7737,-4.8163,-4.8483,-4.9029,-4.9949,-5.0434,-5.1028,-5.2454,-5.308,-5.3307,-5.2997,-5.3576,-5.3759,-5.2762,-5.2907,-5.291,-5.1899,-5.1223,-5.0212,-4.8344,-4.7804,-4.7252,-4.6548,-4.7119,-4.7649,-4.7965,-4.8573,-4.9103,-4.9264,-4.9023,-4.8612,-4.7973,-4.7596,-4.7022,-4.6063,-4.5508,-4.5856,-4.7157,-4.812,-4.9408,-5.0872,-5.1833,-5.2997,-5.4397,-5.5402,-5.609,-5.642,-5.6984,-5.7959,-5.9197,-6.0379,-6.1552,-6.2715,-6.3906,-6.4521,-6.4779,-6.5128,-6.5345,-6.5569,-3.4481,-3.4397,-3.4564,-3.5059,-3.5223,-3.5278,-3.5062,-3.5031,-3.4726,-3.3998,-3.4112,-3.3938,-3.3183,-3.3533,-3.3635,-3.3255,-3.3646,-3.3854,-3.3618,-3.3687,-3.3854,-3.4157,-3.4361,-3.5096,-3.655,-3.7272,-3.806,-3.8904,-3.8631,-3.8631,-3.8943,-3.9313,-3.9787,-4.0458,-4.0724,-4.0922,-4.1009,-4.0561,-4.0,-3.9497,-3.9751,-3.9455,-3.9076,-4.0756,-4.1595,-4.1926,-4.2773,-4.3121,-4.324,-4.3459,-4.3725,-4.3874,-4.4077,-4.487,-4.5688,-4.5891,-4.6747,-4.7671,-4.8001,-4.8356,-4.8774,-4.9424,-5.0413,-5.1446,-5.2317,-5.3391,-5.4164,-5.4039,-5.435,-5.4488,-5.3729,-5.3676,-5.3413,-5.2269,-5.1061,-4.9758,-4.8228,-4.7756,-4.741,-4.7027,-4.8166,-4.9117,-4.9209,-5.0229,-5.0628,-5.02,-5.0438,-5.0153,-4.9221,-4.8607,-4.8105,-4.7715,-4.698,-4.6981,-4.7818,-4.8891,-4.9888,-5.0862,-5.2029,-5.3144,-5.4076,-5.4896,-5.5555,-5.6014,-5.6582,-5.7319,-5.8288,-5.9916,-6.1069,-6.1949,-6.343,-6.4247,-6.4558,-6.4924,-6.5226,-6.5494,-3.4812,-3.4729,-3.4895,-3.5548,-3.5871,-3.6031,-3.6031,-3.6377,-3.6381,-3.5442,-3.5526,-3.5362,-3.4569,-3.4838,-3.4749,-3.3939,-3.4264,-3.4534,-3.4631,-3.4467,-3.4534,-3.4831,-3.4817,-3.5519,-3.7088,-3.6908,-3.7392,-3.8631,-3.8553,-3.8655,-3.8931,-3.9255,-3.9821,-4.0567,-4.027,-4.0481,-4.1078,-4.0481,-4.0018,-3.971,-3.9818,-3.9862,-3.9978,-4.0578,-4.1207,-4.1741,-4.2218,-4.2498,-4.2674,-4.323,-4.3647,-4.3889,-4.4426,-4.5186,-4.5878,-4.5982,-4.6778,-4.7638,-4.7803,-4.8163,-4.858,-4.9034,-5.0385,-5.1583,-5.1878,-5.3287,-5.4599,-5.4503,-5.4703,-5.478,-5.4557,-5.4239,-5.3676,-5.2569,-5.1125,-4.9725,-4.8597,-4.8097,-4.7858,-4.7883,-4.9278,-5.0204,-5.0219,-5.1459,-5.1759,-5.0775,-5.1353,-5.1339,-5.0324,-4.9472,-4.9032,-4.9032,-4.8369,-4.8219,-4.8627,-4.9779,-5.0619,-5.1125,-5.2324,-5.3315,-5.398,-5.4523,-5.5079,-5.5648,-5.6146,-5.674,-5.7434,-5.9445,-6.0619,-6.1292,-6.3066,-6.4042,-6.4445,-6.4955,-6.529,-6.5465,-3.5629,-3.5629,-3.5629,-3.571,-3.635,-3.69,-3.69,-3.69,-3.6908,-3.6636,-3.6921,-3.6678,-3.5433,-3.5634,-3.5507,-3.4689,-3.4735,-3.5001,-3.5359,-3.5424,-3.5294,-3.5162,-3.5082,-3.5584,-3.6907,-3.6609,-3.7106,-3.8416,-3.8688,-3.8931,-3.9255,-3.952,-3.9763,-4.0019,-4.0883,-4.0951,-4.0391,-4.0778,-4.0621,-4.0071,-3.9451,-3.9563,-4.0185,-4.0566,-4.114,-4.1891,-4.254,-4.2972,-4.3451,-4.4291,-4.4725,-4.5031,-4.6089,-4.6454,-4.6588,-4.6726,-4.6997,-4.7235,-4.747,-4.7968,-4.8651,-4.9419,-5.0164,-5.0837,-5.1555,-5.2873,-5.3887,-5.3766,-5.4383,-5.4869,-5.4557,-5.4303,-5.3806,-5.2634,-5.23,-5.173,-5.046,-5.0157,-5.0253,-5.0879,-5.0654,-5.0692,-5.1492,-5.1977,-5.1879,-5.1092,-5.1706,-5.1649,-5.0557,-5.0384,-5.0352,-5.0352,-4.9406,-4.9178,-4.996,-5.0746,-5.1443,-5.217,-5.2836,-5.3349,-5.3783,-5.4586,-5.5079,-5.5259,-5.5865,-5.6402,-5.7025,-5.9147,-6.0346,-6.1032,-6.2925,-6.3915,-6.4521,-6.5465,-6.5663,-6.5569,-3.579,-3.571,-3.5871,-3.6429,-3.7211,-3.7672,-3.7366,-3.7596,-3.7738,-3.7659,-3.8002,-3.7797,-3.6546,-3.6704,-3.6395,-3.5258,-3.5198,-3.5329,-3.5589,-3.5653,-3.5718,-3.5816,-3.5919,-3.6322,-3.7207,-3.725,-3.7744,-3.852,-3.8931,-3.9202,-3.9448,-3.9677,-3.9884,-4.0037,-4.0544,-4.056,-4.0322,-4.0594,-4.0408,-3.9974,-4.0062,-3.9682,-3.9237,-4.0547,-4.1306,-4.168,-4.1951,-4.2244,-4.2604,-4.3949,-4.4537,-4.4898,-4.6228,-4.6652,-4.6791,-4.6892,-4.703,-4.7235,-4.747,-4.7869,-4.8327,-4.8788,-4.97,-5.0577,-5.094,-5.2398,-5.3662,-5.3602,-5.4287,-5.4842,-5.4717,-5.4431,-5.4008,-5.3474,-5.2804,-5.22,-5.1564,-5.1295,-5.1293,-5.156,-5.1715,-5.1867,-5.2203,-5.2679,-5.2589,-5.1688,-5.231,-5.2333,-5.135,-5.1285,-5.1252,-5.1252,-5.0992,-5.0936,-5.1116,-5.1451,-5.202,-5.2694,-5.3008,-5.345,-5.3915,-5.4431,-5.4869,-5.5259,-5.5729,-5.6292,-5.6973,-5.903,-6.0201,-6.0987,-6.288,-6.3915,-6.4483,-6.5314,-6.569,-6.5856,-3.6191,-3.6031,-3.6218,-3.7056,-3.7749,-3.8052,-3.7701,-3.8052,-3.8277,-3.8277,-3.8723,-3.8602,-3.7685,-3.7773,-3.7368,-3.6045,-3.5954,-3.5959,-3.5846,-3.5943,-3.607,-3.6289,-3.6292,-3.6628,-3.7476,-3.7604,-3.8004,-3.8711,-3.9202,-3.952,-3.9677,-3.9884,-4.0037,-4.0238,-4.0337,-4.0387,-4.0436,-4.0534,-4.0353,-4.0037,-4.0318,-3.9939,-3.9275,-4.0577,-4.1394,-4.1753,-4.1885,-4.2013,-4.2366,-4.3909,-4.4591,-4.5014,-4.6439,-4.6961,-4.7066,-4.6838,-4.6841,-4.6976,-4.7176,-4.7375,-4.7703,-4.8353,-4.9266,-5.0011,-5.0195,-5.158,-5.2883,-5.3186,-5.3879,-5.4503,-5.4745,-5.4494,-5.4239,-5.411,-5.344,-5.2838,-5.2605,-5.2404,-5.2269,-5.2371,-5.2533,-5.2694,-5.28,-5.3257,-5.3175,-5.223,-5.293,-5.293,-5.1789,-5.1546,-5.1514,-5.1729,-5.1872,-5.2113,-5.2416,-5.2378,-5.2661,-5.3247,-5.3517,-5.3849,-5.4303,-5.462,-5.4957,-5.5437,-5.5844,-5.6347,-5.7041,-5.8842,-6.0078,-6.104,-6.2606,-6.3705,-6.452,-6.48,-6.5356,-6.599,-3.6978,-3.6772,-3.6772,-3.7471,-3.7901,-3.8127,-3.7853,-3.8231,-3.8604,-3.853,-3.9046,-3.9242,-3.8762,-3.891,-3.85,-3.7162,-3.6975,-3.6736,-3.6257,-3.6414,-3.6507,-3.6507,-3.6012,-3.6341,-3.7685,-3.7327,-3.7741,-3.904,-3.9468,-3.9833,-4.0087,-4.0087,-4.0238,-4.0485,-4.0485,-4.0583,-4.0714,-4.0714,-4.0631,-4.0485,-4.0037,-4.0217,-4.0729,-4.0852,-4.1377,-4.207,-4.245,-4.2743,-4.3127,-4.4528,-4.5146,-4.5537,-4.7011,-4.747,-4.7339,-4.6618,-4.6389,-4.6454,-4.6552,-4.6617,-4.6911,-4.8155,-4.8736,-4.908,-4.9411,-5.0351,-5.1346,-5.232,-5.3082,-5.3844,-5.4641,-5.4655,-5.4431,-5.4205,-5.4076,-5.3915,-5.3683,-5.345,-5.3247,-5.3518,-5.3144,-5.2972,-5.3179,-5.3643,-5.3636,-5.269,-5.3465,-5.3302,-5.1591,-5.1144,-5.1214,-5.1798,-5.1798,-5.2472,-5.398,-5.3416,-5.3382,-5.398,-5.4367,-5.4683,-5.4992,-5.5139,-5.5496,-5.5901,-5.6201,-5.6635,-5.7311,-5.8578,-5.9845,-6.11,-6.1969,-6.3274,-6.459,-6.4114,-6.4665,-6.5832,-3.6978,-3.6929,-3.7007,-3.7548,-3.7901,-3.8202,-3.8381,-3.8679,-3.887,-3.887,-3.9337,-3.9455,-3.8931,-3.9047,-3.8672,-3.7487,-3.7235,-3.6929,-3.6475,-3.6476,-3.6662,-3.7118,-3.687,-3.7109,-3.7801,-3.8036,-3.8427,-3.904,-3.9573,-3.9935,-4.0138,-4.0288,-4.0436,-4.0485,-4.0485,-4.0583,-4.0714,-4.0714,-4.0748,-4.0734,-4.047,-4.0324,-4.0306,-4.0513,-4.1243,-4.2113,-4.2163,-4.2626,-4.3399,-4.4352,-4.5135,-4.592,-4.7407,-4.7869,-4.7836,-4.7605,-4.7408,-4.7309,-4.7539,-4.7441,-4.7572,-4.8289,-4.8673,-4.8923,-4.9229,-5.0146,-5.1202,-5.2106,-5.2987,-5.3671,-5.3914,-5.3887,-5.3591,-5.2791,-5.2598,-5.2706,-5.3028,-5.2966,-5.3105,-5.3583,-5.3382,-5.3315,-5.3416,-5.3345,-5.3138,-5.3075,-5.3174,-5.2803,-5.1764,-5.2198,-5.2369,-5.2201,-5.2907,-5.3676,-5.4367,-5.4011,-5.4141,-5.4683,-5.5018,-5.5284,-5.5636,-5.5978,-5.6276,-5.6599,-5.6861,-5.7266,-5.781,-5.8906,-5.9826,-6.0505,-6.1576,-6.252,-6.3199,-6.3197,-6.3617,-6.4216,-3.6978,-3.6978,-3.7134,-3.7548,-3.7777,-3.8127,-3.853,-3.8723,-3.8943,-3.909,-3.9553,-3.9688,-3.9464,-3.9581,-3.9235,-3.8015,-3.7272,-3.6781,-3.6382,-3.6785,-3.7126,-3.7298,-3.7894,-3.8324,-3.8541,-3.8561,-3.8952,-3.9632,-3.9673,-3.9901,-4.0188,-4.0455,-4.0554,-4.0583,-4.0583,-4.0631,-4.0776,-4.0776,-4.0844,-4.0879,-4.0666,-4.0436,-4.034,-4.0975,-4.1565,-4.2066,-4.2609,-4.3112,-4.3734,-4.4821,-4.5877,-4.6999,-4.7897,-4.7996,-4.7764,-4.7764,-4.7268,-4.6872,-4.7597,-4.7403,-4.7303,-4.8349,-4.8547,-4.8576,-4.9046,-4.9664,-5.0454,-5.1477,-5.2149,-5.2624,-5.2961,-5.303,-5.2796,-5.2165,-5.2035,-5.2248,-5.2843,-5.2819,-5.3028,-5.3747,-5.3717,-5.3651,-5.3618,-5.345,-5.3382,-5.3382,-5.311,-5.2637,-5.2034,-5.2505,-5.2674,-5.253,-5.3232,-5.3994,-5.4807,-5.4834,-5.5018,-5.5294,-5.5578,-5.5978,-5.6311,-5.6652,-5.7015,-5.7315,-5.7617,-5.7941,-5.8369,-5.9144,-5.9881,-6.0529,-6.1012,-6.1809,-6.2658,-6.2547,-6.2949,-6.357,-3.7056,-3.7056,-3.7134,-3.7548,-3.7625,-3.7853,-3.8427,-3.8649,-3.887,-3.909,-3.9625,-4.0011,-4.0011,-4.0261,-3.9948,-3.8723,-3.7369,-3.6475,-3.6258,-3.7187,-3.7592,-3.7364,-3.8898,-3.971,-3.9729,-3.9153,-3.9456,-4.07,-4.006,-3.9951,-4.039,-4.0694,-4.0808,-4.0714,-4.0783,-4.0844,-4.0871,-4.0871,-4.0871,-4.0871,-4.0831,-4.0734,-4.0724,-4.1884,-4.2227,-4.2189,-4.3356,-4.3831,-4.4097,-4.5557,-4.7049,-4.8279,-4.8413,-4.7977,-4.7474,-4.7541,-4.6602,-4.5865,-4.7206,-4.6915,-4.6653,-4.8371,-4.8517,-4.8356,-4.8861,-4.9018,-4.9406,-5.0583,-5.0875,-5.1142,-5.1916,-5.2114,-5.208,-5.2046,-5.189,-5.2138,-5.2929,-5.2843,-5.3024,-5.3943,-5.398,-5.3915,-5.3717,-5.3849,-5.3915,-5.3717,-5.3247,-5.2774,-5.2334,-5.2269,-5.2435,-5.2887,-5.3112,-5.3894,-5.5199,-5.5671,-5.5879,-5.5764,-5.6237,-5.6635,-5.7087,-5.7302,-5.7606,-5.8015,-5.8375,-5.8632,-5.8988,-5.9326,-5.9993,-6.0804,-6.0342,-6.1133,-6.2567,-6.2017,-6.249,-6.3399,-3.7471,-3.7289,-3.7394,-3.7777,-3.7853,-3.8081,-3.8649,-3.8797,-3.8943,-3.9265,-3.9553,-3.9839,-4.0011,-4.0191,-4.0063,-3.937,-3.7916,-3.6904,-3.6631,-3.6786,-3.7342,-3.8328,-3.8858,-3.9919,-4.1488,-4.0827,-4.0819,-4.1433,-4.1614,-4.156,-4.1323,-4.2224,-4.2029,-4.0858,-4.1346,-4.1326,-4.0871,-4.0776,-4.0776,-4.094,-4.1381,-4.1572,-4.1576,-4.2106,-4.2605,-4.3069,-4.3183,-4.3538,-4.4173,-4.5194,-4.5757,-4.6286,-4.7585,-4.8003,-4.803,-4.864,-4.8572,-4.8402,-4.8619,-4.8366,-4.8174,-4.848,-4.8483,-4.8547,-4.8923,-4.9046,-4.9433,-5.0427,-5.0815,-5.097,-5.1287,-5.1321,-5.1149,-5.0562,-5.0435,-5.0883,-5.2226,-5.2337,-5.2757,-5.4004,-5.4045,-5.3915,-5.3717,-5.3717,-5.3783,-5.3717,-5.3584,-5.3245,-5.2564,-5.3041,-5.3207,-5.2921,-5.388,-5.4599,-5.5199,-5.5822,-5.6217,-5.6437,-5.6933,-5.7351,-5.7737,-5.806,-5.8412,-5.8747,-5.8986,-5.9253,-5.9472,-5.9711,-6.0013,-6.0357,-6.0436,-6.0776,-6.1171,-6.1186,-6.1447,-6.1733,-3.7471,-3.7394,-3.7471,-3.7853,-3.7853,-3.7976,-3.8723,-3.8797,-3.8943,-3.9337,-3.9553,-3.9768,-4.0011,-4.0261,-4.0125,-3.9554,-3.7889,-3.6904,-3.7059,-3.6847,-3.7372,-3.874,-3.9556,-4.0623,-4.2064,-4.2032,-4.2129,-4.2311,-4.2496,-4.2306,-4.1954,-4.2929,-4.284,-4.1778,-4.229,-4.2117,-4.165,-4.1808,-4.2078,-4.2348,-4.2408,-4.2412,-4.243,-4.2875,-4.3226,-4.3525,-4.3586,-4.4404,-4.5496,-4.6041,-4.6767,-4.7378,-4.7505,-4.7894,-4.8328,-4.8703,-4.8567,-4.843,-4.9059,-4.8775,-4.8388,-4.8759,-4.8736,-4.8707,-4.8894,-4.8956,-4.9182,-4.9801,-4.9991,-5.0146,-5.0292,-5.0351,-5.0248,-4.9928,-4.986,-5.0376,-5.189,-5.2096,-5.2619,-5.4033,-5.4175,-5.4045,-5.398,-5.3915,-5.3849,-5.3849,-5.3849,-5.3679,-5.3304,-5.3645,-5.3809,-5.369,-5.435,-5.4957,-5.5437,-5.5993,-5.6546,-5.6984,-5.7338,-5.7726,-5.8105,-5.8535,-5.8681,-5.8653,-5.9319,-5.9521,-5.9381,-5.9968,-6.0293,-6.043,-6.0186,-6.015,-6.0162,-5.994,-6.0222,-6.0763,-3.7289,-3.7394,-3.7471,-3.7853,-3.7777,-3.7901,-3.8649,-3.8797,-3.8943,-3.9265,-3.9553,-3.9696,-3.994,-4.0331,-4.0362,-3.9708,-3.8138,-3.7244,-3.7391,-3.7187,-3.7561,-3.8777,-4.0322,-4.1491,-4.2201,-4.2879,-4.3178,-4.316,-4.3137,-4.2841,-4.2543,-4.3423,-4.3425,-4.2757,-4.3184,-4.3062,-4.2565,-4.3009,-4.3454,-4.3746,-4.3523,-4.3354,-4.3305,-4.3923,-4.4092,-4.3946,-4.4507,-4.5602,-4.6961,-4.7158,-4.7967,-4.8778,-4.7557,-4.766,-4.8299,-4.8401,-4.8151,-4.8072,-4.9247,-4.8967,-4.8447,-4.912,-4.9141,-4.8956,-4.8956,-4.8793,-4.8692,-4.8938,-4.8999,-4.9059,-4.924,-4.9342,-4.9471,-4.9649,-4.9649,-5.0129,-5.1535,-5.1905,-5.2426,-5.3832,-5.4106,-5.4175,-5.411,-5.4045,-5.4045,-5.4045,-5.4045,-5.411,-5.411,-5.411,-5.4239,-5.4557,-5.4745,-5.5139,-5.5764,-5.6273,-5.6829,-5.7437,-5.7679,-5.8006,-5.8449,-5.8865,-5.884,-5.8528,-5.9463,-5.9604,-5.9321,-6.0073,-6.043,-6.0473,-5.9875,-5.9572,-5.9379,-5.885,-5.9172,-6.0022,-3.7471,-3.7548,-3.7625,-3.7853,-3.8005,-3.8202,-3.8501,-3.8723,-3.887,-3.909,-3.9337,-3.9553,-3.9768,-4.0539,-4.0851,-4.0385,-4.0139,-3.9128,-3.7219,-3.7686,-3.8153,-3.8529,-4.0322,-4.1717,-4.2737,-4.3262,-4.368,-4.3963,-4.4068,-4.3888,-4.343,-4.436,-4.4144,-4.2894,-4.3632,-4.3632,-4.3078,-4.3147,-4.3266,-4.3335,-4.4023,-4.4215,-4.4216,-4.5044,-4.5269,-4.5214,-4.5809,-4.6632,-4.742,-4.7307,-4.7021,-4.6769,-4.7136,-4.7375,-4.7786,-4.8518,-4.9274,-4.9872,-5.008,-4.9988,-4.9896,-4.9791,-4.9708,-4.959,-4.959,-4.8753,-4.801,-4.8071,-4.8071,-4.8098,-4.8243,-4.8727,-4.9202,-4.9471,-4.935,-4.9657,-5.0693,-5.1377,-5.2033,-5.2985,-5.3669,-5.398,-5.3783,-5.4045,-5.4175,-5.4175,-5.4303,-5.4431,-5.4431,-5.4557,-5.471,-5.493,-5.5234,-5.559,-5.607,-5.6617,-5.7188,-5.769,-5.8238,-5.8624,-5.8905,-5.914,-5.9434,-5.9663,-5.9269,-5.9588,-6.0288,-5.984,-5.9733,-5.9842,-5.9785,-5.9374,-5.8832,-5.8842,-5.8997,-5.9182,-3.7548,-3.7625,-3.7701,-3.8005,-3.8005,-3.8052,-3.8575,-3.8723,-3.8943,-3.9265,-3.9337,-3.9481,-3.9768,-4.0401,-4.0746,-4.0814,-4.0608,-4.0084,-3.9044,-3.9256,-3.9738,-4.0195,-4.0673,-4.1466,-4.268,-4.3113,-4.3476,-4.3805,-4.4121,-4.4238,-4.419,-4.4661,-4.4565,-4.411,-4.4453,-4.4524,-4.4423,-4.4372,-4.4372,-4.4458,-4.4923,-4.5061,-4.5044,-4.5459,-4.5598,-4.5771,-4.6896,-4.7775,-4.8377,-4.8377,-4.8225,-4.7969,-4.7755,-4.7775,-4.8038,-4.882,-4.9361,-4.982,-5.0293,-5.0397,-5.0285,-5.0307,-5.0228,-5.0057,-4.9965,-4.9206,-4.8538,-4.8591,-4.8572,-4.8511,-4.8511,-4.872,-4.8956,-4.9046,-4.9168,-4.9467,-5.0249,-5.072,-5.1259,-5.2043,-5.2609,-5.2951,-5.3267,-5.3558,-5.392,-5.4333,-5.4557,-5.4717,-5.4745,-5.4896,-5.5079,-5.5234,-5.5531,-5.5936,-5.6347,-5.6881,-5.7351,-5.7923,-5.8375,-5.8747,-5.9064,-5.9363,-5.945,-5.9323,-5.9703,-5.992,-5.9955,-5.9755,-5.9706,-5.9688,-5.8794,-5.8017,-5.7431,-5.7998,-5.8237,-5.8345]}]]